[[{"header":{"parameterUnit":"m.s-1","parameterCategory":1,"la1":31.0,"la2":29.5877,"lo1":-88.7671,"lo2":-86.6584,"dy":0.0162,"dx":0.0185,"nx":115,"ny":88,"refTime":"2024-10-02T12:00:00:Z","depth":0,"parameterNumber":2,"parameterNumberName":"U-component_of_WINDS"},"data":[0.0,0.0,0.0,0.0,0.0,0.0,0.0,0.0,0.0,0.0,0.0,0.0,0.0,0.0,0.0,0.0,0.0,0.0,0.0,0.0,0.0,0.0,0.0,0.0,0.0,0.0,0.0,0.0,0.0,0.0,0.0,0.0,0.0,0.0,0.0,0.0,0.0,0.0,0.0,0.0,0.0,0.0,0.0,0.0,0.0,0.0,0.0,0.0,0.0,0.0,0.0,0.0,0.0,0.0,0.0,0.0,0.0,0.0,0.0,0.0,0.0,0.0,0.0,0.0,0.0,0.0,0.0,0.0,0.0,0.0,0.0,0.0,0.0,0.0,0.0,0.0,0.0,0.0,0.0,0.0,0.0,0.0,0.0,0.0,0.0,0.0,0.0,0.0,0.0,0.0,0.0,0.0,0.0,0.0,0.0,0.0,0.0,0.0,0.0,0.0,0.0,0.0,0.0,0.0,0.0,0.0,0.0,0.0,0.0,0.0,0.0,0.0,0.0,0.0,0.0,0.0,0.0,0.0,0.0,0.0,0.0,0.0,0.0,0.0,0.0,0.0,0.0,0.0,0.0,0.0,0.0,0.0,0.0,0.0,0.0,0.0,0.0,0.0,0.0,0.0,0.0,0.0,0.0,0.0,0.0,0.0,0.0,0.0,0.0,0.0,0.0,0.0,0.0,0.0,0.0,0.0,0.0,0.0,0.0,0.0,0.0,0.0,0.0,0.0,0.0,0.0,0.0,0.0,0.0,0.0,0.0,0.0,0.0,0.0,0.0,0.0,0.0,0.0,0.0,0.0,0.0,0.0,0.0,0.0,0.0,0.0,0.0,0.0,0.0,0.0,0.0,0.0,0.0,0.0,0.0,0.0,0.0,0.0,0.0,0.0,0.0,0.0,0.0,0.0,0.0,0.0,0.0,0.0,0.0,0.0,0.0,0.0,0.0,0.0,0.0,0.0,0.0,0.0,0.0,0.0,0.0,0.0,0.0,0.0,0.0,0.0,0.0,0.0,0.0,0.0,0.0,0.0,0.0,0.0,0.0,0.0,0.0,0.0,0.0,0.0,0.0,0.0,0.0,0.0,0.0,0.0,0.0,0.0,0.0,0.0,0.0,0.0,0.0,0.0,0.0,0.0,0.0,0.0,0.0,0.0,0.0,0.0,0.0,0.0,0.0,0.0,0.0,0.0,0.0,0.0,0.0,0.0,0.0,0.0,0.0,0.0,0.0,0.0,0.0,0.0,0.0,0.0,0.0,0.0,0.0,0.0,0.0,0.0,0.0,0.0,0.0,0.0,0.0,0.0,0.0,0.0,0.0,0.0,0.0,0.0,0.0,0.0,0.0,0.0,0.0,0.0,0.0,0.0,0.0,0.0,0.0,0.0,0.0,0.0,0.0,0.0,0.0,0.0,0.0,0.0,0.0,0.0,0.0,0.0,0.0,0.0,0.0,0.0,0.0,0.0,0.0,0.0,0.0,0.0,0.0,0.0,0.0,0.0,0.0,0.0,0.0,0.0,0.0,0.0,0.0,0.0,0.0,0.0,0.0,0.0,0.0,0.0,0.0,0.0,0.0,0.0,0.0,0.0,0.0,0.0,0.0,0.0,0.0,0.0,0.0,0.0,0.0,0.0,0.0,0.0,0.0,0.0,0.0,0.0,0.0,0.0,0.0,0.0,0.0,0.0,0.0,0.0,0.0,0.0,0.0,0.0,0.0,0.0,0.0,0.0,0.0,0.0,0.0,0.0,0.0,0.0,0.0,0.0,0.0,0.0,0.0,0.0,0.0,0.0,0.0,0.0,0.0,0.0,0.0,0.0,0.0,0.0,0.0,0.0,0.0,0.0,0.0,0.0,0.0,0.0,0.0,0.0,0.0,0.0,0.0,0.0,0.0,0.0,0.0,0.0,0.0,0.0,0.0,0.0,0.0,0.0,0.0,0.0,0.0,0.0,0.0,0.0,0.0,0.0,0.0,0.0,0.0,0.0,0.0,0.0,0.0,0.0,0.0,0.0,0.0,0.0,0.0,0.0,0.0,0.0,0.0,0.0,0.0,0.0,0.0,0.0,0.0,0.0,0.0,0.0,0.0,0.0,0.0,0.0,0.0,0.0,0.0,0.0,0.0,0.0,0.0,0.0,0.0,0.0,0.0,0.0,0.0,0.0,0.0,0.0,0.0,0.0,0.0,0.0,0.0,0.0,0.0,0.0,0.0,0.0,0.0,0.0,0.0,0.0,0.0,0.0,0.0,0.0,0.0,0.0,0.0,0.0,0.0,0.0,0.0,0.0,0.0,0.0,0.0,0.0,0.0,0.0,0.0,0.0,0.0,0.0,0.0,0.0,0.0,0.0,0.0,0.0,0.0,0.0,0.0,0.0,0.0,0.0,0.0,0.0,0.0,0.0,0.0,0.0,0.0,0.0,0.0,0.0,0.0,0.0,0.0,0.0,0.0,0.0,0.0,0.0,0.0,0.0,0.0,0.0,0.0,0.0,0.0,0.0,0.0,0.0,0.0,0.0,0.0,0.0,0.0,0.0,0.0,0.0,0.0,0.0,0.0,0.0,0.0,0.0,0.0,0.0,0.0,0.0,0.0,0.0,0.0,0.0,0.0,0.0,0.0,0.0,0.0,0.0,0.0,0.0,0.0,0.0,0.0,0.0,0.0,0.0,0.0,0.0,0.0,0.0,0.0,0.0,0.0,0.0,0.0,0.0,0.0,0.0,0.0,0.0,0.0,0.0,0.0,0.0,0.0,0.0,0.0,0.0,0.0,0.0,0.0,0.0,0.0,0.0,0.0,0.0,0.0,0.0,0.0,0.0,0.0,0.0,0.0,0.0,0.0,0.0,0.0,0.0,0.0,0.0,0.0,0.0,0.0,0.0,0.0,0.0,0.0,0.0,0.0,0.0,0.0,0.0,0.0,0.0,0.0,0.0,0.0,0.0,0.0,0.0,0.0,0.0,0.0,0.0,0.0,0.0,0.0,0.0,0.0,0.0,0.0,0.0,0.0,0.0,0.0,0.0,0.0,0.0,0.0,0.0,0.0,0.0,0.0,0.0,0.0,0.0,0.0,0.0,0.0,0.0,0.0,0.0,0.0,0.0,0.0,0.0,0.0,0.0,0.0,0.0,0.0,0.0,0.0,0.0,0.0,0.0,0.0,0.0,0.0,0.0,0.0,0.0,0.0,0.0,0.0,0.0,0.0,0.0,0.0,0.0,0.0,0.0,0.0,0.0,0.0,0.0,0.0,0.0,0.0,0.0,0.0,0.0,0.0,0.0,0.0,0.0,0.0,0.0,0.0,0.0,0.0,0.0,0.0,0.0,0.0,0.0,0.0,0.0,0.0,0.0,0.0,0.0,0.0,0.0,0.0,0.0,0.0,0.0,0.0,0.0,0.0,0.0,0.0,0.0,0.0,0.0,0.0,0.0,0.0,0.0,0.0,0.0,0.0,0.0,0.0,0.0,0.0,0.0,0.0,0.0,0.0,0.0,0.0,0.0,0.0,0.0,0.0,0.0,0.0,0.0,0.0,0.0,0.0,0.0,0.0,0.0,0.0,0.0,0.0,0.0,0.0,0.0,0.0,0.0,0.0,0.0,0.0,0.0,0.0,0.0,0.0,0.0,0.0,0.0,0.0,0.0,0.0,0.0,0.0,0.0,0.0,0.0,0.0,0.0,0.0,0.0,0.0,0.0,0.0,0.0,0.0,0.0,0.0,0.0,0.0,0.0,0.0,0.0,0.0,0.0,0.0,0.0,0.0,0.0,0.0,0.0,0.0,0.0,0.0,0.0,0.0,0.0,0.0,0.0,0.0,0.0,0.0,0.0,0.0,0.0,0.0,0.0,0.0,0.0,0.0,0.0,0.0,0.0,0.0,0.0,0.0,0.0,0.0,0.0,0.0,0.0,0.0,0.0,0.0,0.0,0.0,0.0,0.0,0.0,0.0,0.0,0.0,0.0,0.0,0.0,0.0,0.0,0.0,0.0,0.0,0.0,0.0,0.0,0.0,0.0,0.0,0.0,0.0,0.0,0.0,0.0,0.0,0.0,0.0,0.0,0.0,0.0,0.0,0.0,0.0,0.0,0.0,0.0,0.0,0.0,0.0,0.0,0.0,0.0,0.0,0.0,0.0,0.0,0.0,0.0,0.0,0.0,0.0,0.0,0.0,0.0,0.0,0.0,0.0,0.0,0.0,0.0,0.0,0.0,0.0,0.0,0.0,0.0,0.0,0.0,0.0,0.0,0.0,0.0,0.0,0.0,0.0,0.0,0.0,0.0,2.4513,0.0,0.0,0.0,0.0,0.0,0.0,0.0,0.0,0.0,0.0,0.0,0.0,0.0,0.0,0.0,0.0,0.0,0.0,0.0,0.0,0.0,0.0,0.0,0.0,0.0,0.0,0.0,0.0,0.0,0.0,0.0,0.0,0.0,0.0,0.0,0.0,0.0,0.0,0.0,0.0,0.0,0.0,0.0,0.0,0.0,0.0,0.0,0.0,0.0,0.0,0.0,0.0,0.0,0.0,0.0,0.0,0.0,0.0,0.0,0.0,0.0,0.0,0.0,0.0,0.0,0.0,0.0,0.0,0.0,0.0,0.0,0.0,0.0,0.0,0.0,0.0,0.0,0.0,0.0,0.0,0.0,0.0,0.0,0.0,0.0,0.0,0.0,0.0,0.0,0.0,0.0,0.0,0.0,0.0,0.0,0.0,0.0,0.0,0.0,0.0,0.0,0.0,0.0,0.0,0.0,0.0,0.0,0.0,0.0,0.0,2.5306,2.5306,2.5306,2.5186,2.4946,0.0,0.0,0.0,0.0,0.0,0.0,0.0,0.0,0.0,0.0,0.0,0.0,0.0,0.0,0.0,0.0,0.0,0.0,0.0,0.0,0.0,0.0,0.0,0.0,0.0,0.0,0.0,0.0,0.0,0.0,0.0,0.0,0.0,0.0,0.0,0.0,0.0,0.0,0.0,0.0,0.0,0.0,0.0,0.0,0.0,0.0,0.0,0.0,0.0,0.0,0.0,0.0,0.0,0.0,0.0,0.0,0.0,0.0,0.0,0.0,0.0,0.0,0.0,0.0,0.0,0.0,0.0,0.0,0.0,0.0,0.0,0.0,0.0,0.0,0.0,0.0,0.0,0.0,0.0,0.0,0.0,0.0,0.0,0.0,0.0,0.0,0.0,0.0,0.0,0.0,0.0,0.0,0.0,0.0,0.0,0.0,0.0,0.0,0.0,0.0,0.0,0.0,0.0,0.0,0.0,0.0,0.0,0.0,0.0,0.0,0.0,0.0,2.5667,2.5595,2.5474,0.0,0.0,0.0,0.0,0.0,0.0,0.0,0.0,0.0,0.0,0.0,0.0,0.0,0.0,0.0,0.0,0.0,0.0,0.0,0.0,0.0,0.0,0.0,0.0,0.0,0.0,0.0,0.0,0.0,0.0,0.0,0.0,0.0,0.0,0.0,0.0,0.0,0.0,0.0,0.0,0.0,0.0,0.0,0.0,0.0,0.0,0.0,0.0,0.0,0.0,0.0,0.0,0.0,0.0,0.0,0.0,0.0,0.0,0.0,0.0,0.0,0.0,0.0,0.0,0.0,0.0,0.0,0.0,0.0,0.0,0.0,0.0,0.0,0.0,0.0,0.0,0.0,0.0,0.0,0.0,0.0,0.0,0.0,0.0,0.0,0.0,0.0,0.0,0.0,0.0,0.0,0.0,0.0,0.0,0.0,0.0,0.0,0.0,0.0,0.0,0.0,0.0,0.0,0.0,0.0,0.0,0.0,0.0,0.0,0.0,2.5781,2.6705,2.6729,0.0,2.6069,0.0,0.0,0.0,0.0,0.0,0.0,0.0,0.0,0.0,0.0,0.0,0.0,0.0,0.0,0.0,0.0,0.0,0.0,0.0,0.0,0.0,0.0,0.0,0.0,0.0,0.0,0.0,0.0,0.0,0.0,0.0,0.0,0.0,0.0,0.0,0.0,0.0,0.0,0.0,0.0,0.0,0.0,0.0,0.0,0.0,0.0,0.0,0.0,0.0,0.0,0.0,0.0,0.0,0.0,0.0,0.0,0.0,0.0,0.0,0.0,0.0,0.0,0.0,0.0,0.0,0.0,0.0,0.0,0.0,0.0,0.0,0.0,0.0,0.0,0.0,0.0,0.0,0.0,0.0,0.0,0.0,0.0,0.0,0.0,0.0,0.0,0.0,0.0,0.0,0.0,0.0,0.0,0.0,0.0,0.0,0.0,0.0,0.0,0.0,0.0,0.0,0.0,0.0,0.0,0.0,0.0,0.0,0.0,0.0,0.0,2.646,2.6873,2.658,2.6334,0.0,0.0,0.0,0.0,0.0,0.0,0.0,0.0,0.0,0.0,0.0,0.0,0.0,0.0,0.0,0.0,0.0,0.0,0.0,0.0,0.0,0.0,0.0,0.0,0.0,0.0,0.0,0.0,0.0,0.0,0.0,0.0,0.0,0.0,0.0,0.0,0.0,0.0,0.0,0.0,0.0,0.0,0.0,0.0,0.0,0.0,0.0,0.0,0.0,0.0,0.0,0.0,0.0,0.0,0.0,0.0,0.0,0.0,0.0,0.0,0.0,0.0,0.0,0.0,0.0,0.0,0.0,0.0,0.0,0.0,0.0,0.0,0.0,0.0,0.0,0.0,0.0,0.0,0.0,0.0,0.0,0.0,0.0,0.0,0.0,0.0,0.0,0.0,0.0,0.0,0.0,0.0,0.0,0.0,0.0,0.0,0.0,0.0,0.0,0.0,0.0,0.0,0.0,0.0,0.0,0.0,0.0,0.0,0.0,0.0,2.6676,0.0,2.709,2.6767,2.6262,2.5667,0.0,0.0,0.0,0.0,0.0,0.0,0.0,0.0,0.0,0.0,0.0,0.0,0.0,0.0,0.0,0.0,0.0,0.0,0.0,0.0,0.0,0.0,0.0,0.0,0.0,0.0,0.0,0.0,0.0,0.0,0.0,0.0,0.0,0.0,0.0,0.0,0.0,0.0,0.0,0.0,0.0,0.0,0.0,0.0,0.0,0.0,0.0,0.0,0.0,0.0,0.0,0.0,0.0,0.0,0.0,0.0,0.0,0.0,0.0,0.0,0.0,0.0,0.0,0.0,0.0,0.0,0.0,0.0,0.0,0.0,0.0,0.0,0.0,0.0,0.0,0.0,0.0,0.0,0.0,0.0,0.0,0.0,0.0,0.0,0.0,0.0,0.0,0.0,0.0,0.0,0.0,0.0,0.0,0.0,0.0,0.0,0.0,0.0,0.0,0.0,0.0,0.0,0.0,0.0,0.0,0.0,0.0,0.0,0.0,2.7354,2.7138,2.7661,2.7637,2.6676,0.0,0.0,0.0,0.0,0.0,0.0,0.0,0.0,0.0,0.0,0.0,0.0,0.0,0.0,0.0,0.0,0.0,0.0,0.0,0.0,0.0,0.0,0.0,0.0,0.0,0.0,0.0,0.0,0.0,0.0,0.0,0.0,0.0,0.0,0.0,0.0,0.0,0.0,0.0,0.0,0.0,0.0,0.0,0.0,0.0,0.0,0.0,0.0,0.0,0.0,0.0,0.0,0.0,0.0,0.0,0.0,0.0,0.0,0.0,0.0,0.0,0.0,0.0,0.0,0.0,0.0,0.0,0.0,0.0,0.0,0.0,0.0,0.0,0.0,0.0,0.0,0.0,0.0,0.0,0.0,0.0,0.0,0.0,0.0,0.0,0.0,0.0,0.0,0.0,0.0,0.0,0.0,0.0,0.0,0.0,0.0,0.0,0.0,0.0,0.0,0.0,0.0,0.0,0.0,0.0,0.0,0.0,0.0,0.0,2.5931,2.658,2.7493,2.8619,2.7061,2.5955,0.0,0.0,0.0,0.0,0.0,0.0,0.0,0.0,0.0,0.0,0.0,0.0,0.0,0.0,0.0,0.0,0.0,0.0,0.0,0.0,0.0,0.0,0.0,0.0,0.0,0.0,0.0,0.0,0.0,0.0,0.0,0.0,0.0,0.0,0.0,0.0,0.0,0.0,0.0,0.0,0.0,0.0,0.0,0.0,0.0,0.0,0.0,0.0,0.0,0.0,0.0,0.0,0.0,0.0,0.0,0.0,0.0,0.0,0.0,0.0,0.0,0.0,0.0,0.0,0.0,0.0,0.0,0.0,0.0,0.0,0.0,0.0,0.0,0.0,0.0,0.0,0.0,0.0,0.0,0.0,0.0,0.0,0.0,0.0,0.0,0.0,0.0,0.0,0.0,0.0,0.0,0.0,0.0,0.0,0.0,0.0,0.0,0.0,0.0,0.0,0.0,0.0,0.0,0.0,0.0,0.0,0.0,0.0,0.0,2.5306,0.0,2.7974,0.0,2.6604,2.542,0.0,0.0,0.0,0.0,0.0,0.0,0.0,0.0,0.0,0.0,0.0,0.0,0.0,0.0,0.0,0.0,0.0,0.0,0.0,0.0,0.0,0.0,0.0,0.0,0.0,0.0,0.0,0.0,0.0,0.0,0.0,0.0,0.0,0.0,0.0,0.0,0.0,0.0,0.0,0.0,0.0,0.0,0.0,0.0,0.0,0.0,0.0,0.0,0.0,0.0,0.0,0.0,0.0,0.0,0.0,0.0,0.0,0.0,0.0,0.0,0.0,0.0,0.0,0.0,0.0,0.0,0.0,0.0,0.0,0.0,0.0,0.0,0.0,0.0,0.0,0.0,0.0,0.0,0.0,0.0,0.0,0.0,0.0,0.0,0.0,0.0,0.0,0.0,0.0,0.0,0.0,0.0,0.0,0.0,0.0,0.0,0.0,0.0,0.0,0.0,0.0,0.0,0.0,0.0,0.0,0.0,0.0,0.0,2.5306,2.6801,2.8378,2.8498,2.7018,2.6388,2.5149,0.0,0.0,0.0,0.0,0.0,0.0,0.0,0.0,0.0,0.0,0.0,0.0,0.0,0.0,0.0,0.0,0.0,0.0,0.0,0.0,0.0,0.0,0.0,0.0,0.0,0.0,0.0,0.0,0.0,0.0,0.0,0.0,0.0,0.0,0.0,0.0,0.0,0.0,0.0,0.0,0.0,0.0,0.0,0.0,0.0,0.0,0.0,0.0,0.0,0.0,0.0,0.0,0.0,0.0,0.0,0.0,0.0,0.0,0.0,0.0,0.0,0.0,0.0,0.0,0.0,0.0,0.0,0.0,0.0,0.0,0.0,0.0,0.0,0.0,0.0,0.0,0.0,0.0,0.0,0.0,0.0,0.0,0.0,0.0,0.0,0.0,0.0,0.0,0.0,0.0,0.0,0.0,0.0,0.0,0.0,0.0,0.0,0.0,0.0,0.0,0.0,0.0,0.0,0.0,0.0,0.0,0.0,0.0,0.0,2.5835,2.7373,2.831,2.8478,2.6598,2.5781,0.0,0.0,0.0,0.0,0.0,0.0,0.0,0.0,0.0,0.0,0.0,0.0,0.0,0.0,0.0,0.0,0.0,0.0,0.0,0.0,0.0,0.0,0.0,0.0,0.0,0.0,0.0,0.0,0.0,0.0,0.0,0.0,0.0,0.0,0.0,0.0,0.0,0.0,0.0,0.0,0.0,0.0,0.0,0.0,0.0,0.0,0.0,0.0,0.0,0.0,0.0,0.0,0.0,0.0,0.0,0.0,0.0,0.0,0.0,0.0,0.0,0.0,0.0,0.0,0.0,0.0,0.0,0.0,0.0,0.0,0.0,0.0,0.0,0.0,0.0,0.0,0.0,0.0,0.0,0.0,0.0,0.0,0.0,0.0,0.0,0.0,0.0,0.0,0.0,0.0,0.0,0.0,0.0,0.0,0.0,0.0,0.0,0.0,0.0,0.0,0.0,0.0,0.0,0.0,0.0,0.0,0.0,0.0,0.0,2.7157,2.845,2.922,2.9292,2.7277,2.6406,2.6748,0.0,0.0,0.0,0.0,0.0,0.0,0.0,0.0,0.0,0.0,0.0,0.0,0.0,0.0,0.0,0.0,0.0,0.0,0.0,0.0,0.0,0.0,0.0,0.0,0.0,0.0,0.0,0.0,0.0,0.0,0.0,0.0,0.0,0.0,0.0,0.0,0.0,0.0,0.0,0.0,0.0,0.0,0.0,0.0,0.0,0.0,0.0,0.0,0.0,0.0,0.0,0.0,0.0,0.0,0.0,0.0,0.0,0.0,0.0,0.0,0.0,0.0,0.0,0.0,0.0,0.0,0.0,0.0,0.0,0.0,0.0,0.0,0.0,0.0,0.0,0.0,0.0,0.0,0.0,0.0,0.0,0.0,0.0,0.0,0.0,0.0,0.0,0.0,0.0,0.0,0.0,0.0,0.0,0.0,0.0,0.0,0.0,0.0,0.0,0.0,0.0,0.0,0.0,0.0,0.0,0.0,0.0,0.0,3.0206,3.1334,3.1165,2.9653,2.8454,2.7133,0.0,0.0,0.0,0.0,0.0,0.0,0.0,0.0,0.0,0.0,0.0,0.0,0.0,0.0,0.0,0.0,0.0,0.0,0.0,0.0,0.0,0.0,0.0,0.0,0.0,0.0,0.0,0.0,0.0,0.0,0.0,0.0,0.0,0.0,0.0,0.0,0.0,0.0,0.0,0.0,0.0,0.0,0.0,0.0,0.0,0.0,0.0,0.0,0.0,0.0,0.0,0.0,0.0,0.0,0.0,0.0,0.0,0.0,0.0,0.0,0.0,0.0,0.0,0.0,0.0,0.0,0.0,0.0,0.0,0.0,0.0,0.0,0.0,0.0,0.0,0.0,0.0,0.0,0.0,0.0,0.0,0.0,0.0,0.0,0.0,0.0,0.0,0.0,0.0,0.0,0.0,0.0,0.0,0.0,0.0,0.0,0.0,0.0,0.0,0.0,0.0,0.0,0.0,0.0,0.0,0.0,0.0,0.0,0.0,3.1889,3.3645,3.3982,3.278,3.0639,2.9268,0.0,0.0,0.0,0.0,0.0,0.0,0.0,0.0,0.0,0.0,0.0,0.0,0.0,0.0,0.0,0.0,0.0,0.0,0.0,0.0,0.0,0.0,0.0,0.0,0.0,0.0,0.0,0.0,0.0,0.0,0.0,0.0,0.0,0.0,0.0,0.0,0.0,0.0,0.0,0.0,0.0,0.0,0.0,0.0,0.0,0.0,0.0,0.0,0.0,0.0,0.0,0.0,0.0,0.0,0.0,0.0,0.0,0.0,0.0,0.0,0.0,0.0,0.0,0.0,0.0,0.0,0.0,0.0,0.0,0.0,0.0,0.0,0.0,0.0,0.0,0.0,0.0,0.0,0.0,0.0,0.0,0.0,0.0,0.0,0.0,0.0,0.0,0.0,0.0,0.0,0.0,0.0,0.0,0.0,0.0,0.0,0.0,0.0,0.0,0.0,0.0,0.0,0.0,0.0,0.0,0.0,0.0,0.0,3.2178,3.3477,3.5521,3.6218,3.5352,3.2997,3.0999,0.0,0.0,0.0,0.0,0.0,0.0,0.0,0.0,0.0,0.0,0.0,0.0,0.0,0.0,0.0,0.0,0.0,0.0,0.0,0.0,0.0,0.0,0.0,0.0,0.0,0.0,0.0,0.0,0.0,0.0,0.0,0.0,0.0,0.0,0.0,0.0,0.0,0.0,0.0,0.0,0.0,0.0,0.0,0.0,0.0,0.0,0.0,0.0,0.0,0.0,0.0,0.0,0.0,0.0,0.0,0.0,0.0,0.0,0.0,0.0,0.0,0.0,0.0,0.0,0.0,0.0,0.0,0.0,0.0,0.0,0.0,0.0,0.0,0.0,0.0,0.0,0.0,0.0,0.0,0.0,0.0,0.0,0.0,0.0,0.0,0.0,0.0,0.0,0.0,0.0,0.0,0.0,0.0,0.0,0.0,0.0,0.0,0.0,0.0,0.0,0.0,0.0,0.0,0.0,0.0,0.0,0.0,0.0,3.338,3.4871,3.6916,3.7735,3.7156,3.5159,3.2444,0.0,0.0,0.0,0.0,0.0,0.0,0.0,0.0,0.0,0.0,0.0,0.0,0.0,0.0,0.0,0.0,0.0,0.0,0.0,0.0,0.0,0.0,0.0,0.0,0.0,0.0,0.0,0.0,0.0,0.0,0.0,0.0,0.0,0.0,0.0,0.0,0.0,0.0,0.0,0.0,0.0,0.0,0.0,0.0,0.0,0.0,0.0,0.0,0.0,0.0,0.0,0.0,0.0,0.0,0.0,0.0,0.0,0.0,0.0,0.0,0.0,0.0,0.0,0.0,0.0,0.0,0.0,0.0,0.0,0.0,0.0,0.0,0.0,0.0,0.0,0.0,0.0,0.0,0.0,0.0,0.0,0.0,0.0,0.0,0.0,0.0,0.0,0.0,0.0,0.0,0.0,0.0,0.0,0.0,0.0,0.0,0.0,0.0,0.0,0.0,0.0,0.0,0.0,0.0,0.0,0.0,0.0,0.0,3.4246,3.54,3.7108,3.776,3.723,3.5545,3.3501,0.0,0.0,0.0,0.0,0.0,0.0,0.0,0.0,0.0,0.0,0.0,0.0,0.0,0.0,0.0,0.0,0.0,0.0,0.0,0.0,0.0,0.0,0.0,0.0,0.0,0.0,0.0,0.0,0.0,0.0,0.0,0.0,0.0,0.0,0.0,0.0,0.0,0.0,0.0,0.0,0.0,0.0,0.0,0.0,0.0,0.0,0.0,0.0,2.0274,0.0,0.0,0.0,0.0,0.0,0.0,0.0,0.0,0.0,0.0,0.0,0.0,0.0,0.0,0.0,0.0,0.0,0.0,0.0,0.0,0.0,0.0,0.0,0.0,0.0,0.0,0.0,0.0,0.0,0.0,0.0,0.0,0.0,0.0,0.0,0.0,0.0,0.0,0.0,0.0,0.0,0.0,0.0,0.0,0.0,0.0,0.0,0.0,0.0,0.0,0.0,0.0,0.0,0.0,0.0,0.0,0.0,0.0,0.0,3.5015,3.6338,3.7447,3.788,3.7541,3.6266,3.4342,0.0,0.0,0.0,0.0,0.0,0.0,0.0,0.0,0.0,0.0,0.0,0.0,0.0,0.0,0.0,0.0,0.0,0.0,0.0,0.0,0.0,0.0,0.0,0.0,0.0,0.0,0.0,0.0,0.0,0.0,0.0,0.0,0.0,0.0,0.0,0.0,0.0,0.0,0.0,0.0,0.0,0.0,0.0,0.0,0.0,0.0,0.0,0.0,0.0,0.0,0.0,0.0,0.0,0.0,0.0,0.0,0.0,0.0,0.0,0.0,0.0,0.0,0.0,0.0,0.0,0.0,0.0,0.0,0.0,0.0,0.0,0.0,0.0,0.0,0.0,0.0,0.0,0.0,0.0,0.0,0.0,0.0,0.0,0.0,0.0,0.0,0.0,0.0,0.0,0.0,0.0,0.0,0.0,0.0,0.0,0.0,0.0,0.0,0.0,0.0,0.0,0.0,0.0,0.0,0.0,0.0,0.0,3.3885,3.552,3.7252,3.7784,3.8,3.8,3.6964,3.4968,3.1936,0.0,0.0,0.0,0.0,0.0,0.0,0.0,0.0,0.0,0.0,0.0,0.0,0.0,0.0,0.0,0.0,0.0,0.0,0.0,0.0,0.0,0.0,0.0,0.0,0.0,0.0,0.0,0.0,0.0,0.0,0.0,0.0,0.0,0.0,0.0,0.0,0.0,0.0,2.2318,2.2941,0.0,0.0,0.0,0.0,0.0,0.0,0.0,0.0,2.1637,0.0,0.0,0.0,0.0,0.0,0.0,0.0,0.0,0.0,0.0,0.0,0.0,0.0,0.0,0.0,0.0,0.0,0.0,0.0,0.0,0.0,0.0,0.0,0.0,0.0,0.0,0.0,0.0,0.0,0.0,0.0,0.0,0.0,0.0,0.0,0.0,0.0,0.0,0.0,0.0,0.0,0.0,0.0,0.0,0.0,0.0,0.0,0.0,0.0,0.0,0.0,0.0,0.0,0.0,0.0,0.0,3.4871,3.4414,3.5328,3.7808,3.7976,3.8,3.7976,3.6964,3.5136,3.2513,0.0,0.0,0.0,0.0,0.0,0.0,0.0,0.0,0.0,0.0,0.0,0.0,0.0,0.0,0.0,0.0,0.0,0.0,0.0,0.0,0.0,0.0,0.0,0.0,0.0,0.0,0.0,0.0,0.0,0.0,0.0,0.0,0.0,0.0,0.0,0.0,0.0,0.0,0.0,2.3918,2.4518,0.0,0.0,0.0,0.0,0.0,0.0,0.0,0.0,2.1526,0.0,0.0,0.0,0.0,0.0,0.0,0.0,0.0,0.0,0.0,0.0,0.0,0.0,0.0,0.0,0.0,0.0,0.0,0.0,0.0,0.0,0.0,0.0,0.0,0.0,0.0,0.0,0.0,0.0,0.0,0.0,0.0,0.0,0.0,0.0,0.0,0.0,0.0,0.0,0.0,0.0,0.0,0.0,0.0,0.0,0.0,0.0,0.0,0.0,0.0,0.0,0.0,0.0,0.0,0.0,3.4246,3.5208,3.6435,3.7928,3.8,3.8,3.7952,3.6145,3.4198,0.0,0.0,0.0,0.0,0.0,0.0,0.0,0.0,0.0,0.0,0.0,0.0,0.0,0.0,0.0,0.0,0.0,0.0,0.0,0.0,0.0,0.0,0.0,0.0,0.0,0.0,0.0,0.0,0.0,0.0,0.0,0.0,0.0,0.0,0.0,0.0,0.0,0.0,0.0,0.0,2.4632,2.507,2.4255,0.0,0.0,0.0,0.0,0.0,0.0,2.2006,2.1595,0.0,0.0,0.0,0.0,0.0,0.0,0.0,0.0,0.0,0.0,0.0,0.0,0.0,0.0,0.0,0.0,0.0,0.0,0.0,0.0,0.0,0.0,0.0,0.0,0.0,0.0,0.0,0.0,0.0,0.0,0.0,0.0,0.0,0.0,0.0,0.0,0.0,0.0,0.0,0.0,0.0,0.0,0.0,0.0,0.0,0.0,0.0,0.0,0.0,0.0,0.0,0.0,0.0,0.0,0.0,3.3284,3.5665,3.7228,3.7952,3.8,3.8,3.7952,3.5712,3.3597,0.0,0.0,0.0,0.0,0.0,0.0,0.0,0.0,0.0,0.0,0.0,0.0,0.0,0.0,0.0,0.0,0.0,0.0,0.0,0.0,0.0,0.0,0.0,0.0,0.0,0.0,0.0,0.0,0.0,0.0,0.0,0.0,0.0,0.0,0.0,0.0,0.0,0.0,0.0,0.0,0.0,2.5478,2.4878,2.4155,0.0,0.0,0.0,0.0,2.3267,2.2866,0.0,0.0,0.0,0.0,0.0,0.0,0.0,0.0,0.0,0.0,0.0,0.0,0.0,0.0,0.0,0.0,0.0,0.0,0.0,0.0,0.0,0.0,0.0,0.0,0.0,0.0,0.0,0.0,0.0,0.0,0.0,0.0,0.0,0.0,0.0,0.0,0.0,0.0,0.0,0.0,0.0,0.0,0.0,0.0,0.0,0.0,0.0,0.0,0.0,0.0,0.0,0.0,0.0,0.0,0.0,0.0,3.3236,3.4944,3.6507,3.7928,3.8,3.8,3.7976,3.6771,3.4727,0.0,0.0,0.0,0.0,0.0,0.0,0.0,0.0,0.0,0.0,0.0,0.0,0.0,0.0,0.0,0.0,0.0,0.0,0.0,0.0,0.0,0.0,0.0,0.0,0.0,0.0,0.0,0.0,0.0,0.0,0.0,0.0,0.0,0.0,0.0,0.0,0.0,0.0,0.0,0.0,0.0,2.5718,2.5496,2.5149,2.4913,0.0,0.0,2.4936,2.5078,2.5312,0.0,0.0,0.0,0.0,0.0,0.0,0.0,0.0,0.0,0.0,0.0,0.0,0.0,0.0,0.0,0.0,0.0,0.0,0.0,0.0,0.0,0.0,0.0,0.0,0.0,0.0,0.0,0.0,0.0,0.0,0.0,0.0,0.0,0.0,0.0,0.0,0.0,0.0,0.0,0.0,0.0,0.0,0.0,0.0,0.0,0.0,0.0,0.0,0.0,0.0,0.0,0.0,0.0,0.0,0.0,3.1673,3.3693,3.6145,3.7757,3.8431,3.8455,3.831,3.7974,3.5535,3.3315,0.0,0.0,0.0,0.0,0.0,0.0,0.0,0.0,0.0,0.0,0.0,0.0,0.0,0.0,0.0,0.0,0.0,0.0,0.0,0.0,0.0,0.0,0.0,0.0,0.0,0.0,0.0,0.0,0.0,0.0,0.0,0.0,0.0,0.0,0.0,0.0,0.0,0.0,0.0,0.0,0.0,0.0,2.6484,2.5977,0.0,0.0,0.0,2.583,2.5459,0.0,0.0,0.0,0.0,0.0,0.0,0.0,0.0,0.0,0.0,0.0,0.0,0.0,0.0,0.0,0.0,0.0,0.0,0.0,0.0,0.0,0.0,0.0,0.0,0.0,0.0,0.0,0.0,0.0,0.0,0.0,0.0,0.0,0.0,0.0,0.0,0.0,0.0,0.0,0.0,0.0,0.0,0.0,0.0,0.0,0.0,0.0,0.0,0.0,0.0,0.0,0.0,0.0,0.0,0.0,0.0,0.0,3.4222,3.7226,3.886,3.8981,3.8888,3.8623,3.8166,3.4981,0.0,0.0,0.0,0.0,0.0,0.0,0.0,0.0,0.0,0.0,0.0,0.0,0.0,0.0,0.0,0.0,0.0,0.0,0.0,0.0,0.0,0.0,0.0,0.0,0.0,0.0,0.0,1.9301,0.0,0.0,0.0,0.0,0.0,0.0,0.0,0.0,0.0,0.0,0.0,0.0,0.0,0.0,2.6827,2.7249,2.6892,2.66,0.0,0.0,2.6729,2.6233,2.6233,2.57,0.0,0.0,0.0,0.0,0.0,0.0,0.0,0.0,0.0,0.0,0.0,0.0,0.0,0.0,0.0,0.0,0.0,0.0,0.0,0.0,0.0,0.0,0.0,0.0,0.0,0.0,0.0,0.0,0.0,0.0,0.0,0.0,0.0,0.0,0.0,0.0,0.0,0.0,0.0,0.0,0.0,0.0,0.0,0.0,0.0,0.0,0.0,0.0,0.0,0.0,0.0,0.0,0.0,0.0,0.0,3.4751,3.7418,3.9029,3.9513,3.9056,3.8764,3.8692,3.6552,3.403,0.0,0.0,0.0,0.0,0.0,0.0,0.0,0.0,0.0,0.0,0.0,0.0,0.0,0.0,0.0,0.0,0.0,0.0,0.0,0.0,0.0,0.0,0.0,0.0,0.0,0.0,0.0,0.0,0.0,0.0,0.0,0.0,0.0,0.0,0.0,0.0,0.0,0.0,0.0,0.0,0.0,2.7531,2.7561,2.7968,2.8223,0.0,0.0,2.783,2.8132,2.848,2.772,2.4661,0.0,0.0,0.0,0.0,0.0,0.0,0.0,0.0,0.0,0.0,0.0,0.0,0.0,0.0,0.0,0.0,0.0,0.0,0.0,0.0,0.0,0.0,0.0,0.0,0.0,0.0,0.0,0.0,0.0,0.0,0.0,0.0,0.0,0.0,0.0,0.0,0.0,0.0,0.0,0.0,0.0,0.0,0.0,0.0,0.0,0.0,0.0,0.0,0.0,0.0,0.0,0.0,0.0,3.2898,3.528,3.7923,3.9561,4.0042,3.9561,3.9125,3.8788,3.5614,3.2851,0.0,0.0,0.0,0.0,0.0,0.0,0.0,0.0,0.0,0.0,0.0,0.0,0.0,0.0,0.0,0.0,0.0,0.0,0.0,0.0,0.0,0.0,0.0,0.0,0.0,0.0,0.0,0.0,2.1714,2.1588,2.1429,0.0,0.0,0.0,0.0,0.0,0.0,0.0,0.0,0.0,0.0,2.8164,2.9451,2.937,0.0,0.0,2.9005,2.8876,2.8773,2.826,2.7298,2.5598,2.4801,0.0,0.0,0.0,0.0,0.0,0.0,0.0,0.0,0.0,0.0,0.0,0.0,0.0,0.0,0.0,0.0,0.0,0.0,0.0,0.0,0.0,0.0,0.0,0.0,0.0,0.0,0.0,0.0,0.0,0.0,0.0,0.0,0.0,0.0,0.0,0.0,0.0,0.0,0.0,0.0,0.0,0.0,0.0,0.0,0.0,0.0,0.0,0.0,0.0,0.0,0.0,0.0,3.3476,3.6074,3.8362,3.9894,4.0619,3.9556,3.8783,3.8272,3.4772,3.1932,0.0,0.0,0.0,0.0,0.0,0.0,0.0,0.0,0.0,0.0,0.0,0.0,0.0,0.0,0.0,0.0,0.0,0.0,0.0,0.0,0.0,0.0,0.0,0.0,0.0,0.0,0.0,0.0,2.2432,2.2166,2.1339,0.0,0.0,0.0,0.0,0.0,0.0,0.0,0.0,0.0,0.0,2.8872,3.0294,3.0067,2.9727,2.9611,2.939,2.9207,2.9012,2.8278,2.7389,2.6343,0.0,0.0,0.0,0.0,0.0,0.0,0.0,0.0,0.0,0.0,0.0,0.0,0.0,0.0,0.0,0.0,0.0,0.0,0.0,0.0,0.0,0.0,0.0,0.0,0.0,0.0,0.0,0.0,0.0,0.0,2.5282,0.0,0.0,0.0,0.0,0.0,0.0,0.0,0.0,0.0,0.0,0.0,0.0,0.0,0.0,0.0,0.0,0.0,0.0,0.0,0.0,0.0,0.0,3.4535,3.7106,3.8615,3.994,4.1009,3.8786,3.7485,3.7286,3.4487,3.1784,2.9182,0.0,0.0,0.0,0.0,0.0,0.0,0.0,0.0,0.0,0.0,0.0,0.0,0.0,0.0,0.0,0.0,0.0,0.0,0.0,0.0,0.0,0.0,0.0,0.0,0.0,0.0,2.2308,2.1896,2.1313,0.0,0.0,0.0,0.0,0.0,0.0,0.0,0.0,0.0,0.0,2.8832,2.9574,2.9641,2.9959,3.0057,2.9684,2.8957,2.859,2.8957,2.8986,2.8407,0.0,0.0,0.0,0.0,0.0,0.0,0.0,0.0,0.0,0.0,0.0,0.0,0.0,0.0,0.0,0.0,0.0,0.0,0.0,0.0,0.0,0.0,0.0,0.0,0.0,0.0,0.0,2.8787,2.7974,0.0,0.0,0.0,0.0,0.0,0.0,0.0,0.0,0.0,0.0,0.0,3.1753,3.3815,0.0,0.0,0.0,0.0,0.0,0.0,0.0,0.0,0.0,0.0,0.0,0.0,3.4479,3.6805,3.8076,3.8813,3.8965,3.7361,3.6471,3.6392,3.3424,3.0472,2.7708,0.0,0.0,0.0,0.0,0.0,0.0,0.0,0.0,0.0,0.0,0.0,0.0,0.0,0.0,0.0,0.0,0.0,0.0,0.0,0.0,0.0,0.0,0.0,0.0,0.0,2.1312,0.0,0.0,0.0,0.0,0.0,0.0,0.0,0.0,0.0,0.0,0.0,2.7243,2.8454,2.9427,3.0075,3.0382,3.0767,3.0877,0.0,0.0,0.0,0.0,0.0,0.0,0.0,0.0,0.0,0.0,0.0,0.0,0.0,0.0,3.0584,2.6692,2.6086,2.6104,2.5847,0.0,0.0,0.0,0.0,0.0,0.0,0.0,0.0,0.0,0.0,0.0,0.0,0.0,0.0,0.0,0.0,3.0567,0.0,0.0,0.0,0.0,0.0,0.0,0.0,0.0,3.4381,3.5494,3.4904,3.6827,3.7271,0.0,3.5506,3.3761,0.0,0.0,0.0,0.0,0.0,0.0,0.0,0.0,3.4465,3.6145,3.7325,3.7822,3.7511,3.6086,3.5227,3.4963,3.2067,2.9403,2.7281,2.5515,2.427,0.0,0.0,0.0,0.0,0.0,0.0,0.0,0.0,0.0,0.0,0.0,0.0,0.0,0.0,0.0,0.0,0.0,0.0,0.0,0.0,0.0,0.0,0.0,2.1453,0.0,0.0,0.0,0.0,0.0,0.0,0.0,0.0,0.0,2.6802,2.7757,2.8876,3.0075,3.0461,3.0809,3.1341,0.0,0.0,0.0,0.0,0.0,0.0,0.0,2.9702,3.0345,3.0461,3.0699,3.1341,3.2551,3.3266,3.2735,0.0,0.0,2.9434,2.8883,2.8975,2.8718,2.9415,3.0002,2.9892,3.0699,3.1304,0.0,0.0,0.0,0.0,0.0,0.0,0.0,0.0,3.3645,3.3861,0.0,3.3164,0.0,0.0,0.0,0.0,0.0,0.0,0.0,0.0,3.7875,3.9432,3.9398,3.989,3.9919,3.9468,3.9756,3.8647,3.6074,3.2135,0.0,0.0,0.0,0.0,0.0,0.0,3.4591,3.5261,3.6444,3.7002,3.6749,3.4951,3.3689,3.3096,3.0524,2.8741,2.7903,2.7096,2.5939,2.4385,2.313,0.0,0.0,0.0,0.0,0.0,0.0,0.0,0.0,0.0,0.0,0.0,0.0,0.0,0.0,0.0,0.0,0.0,0.0,0.0,0.0,2.2112,0.0,0.0,0.0,0.0,0.0,0.0,0.0,0.0,0.0,0.0,2.8755,2.9299,3.0437,3.2313,0.0,0.0,0.0,0.0,3.1616,3.2038,3.1763,3.1653,3.2056,3.2386,3.2478,3.2184,0.0,0.0,3.3982,3.4533,3.4826,3.4057,3.4899,3.5302,3.4038,3.3101,3.2606,3.2606,3.2368,3.2294,3.268,3.3358,3.3908,3.9221,0.0,0.0,0.0,0.0,3.7443,3.862,4.0499,3.9393,3.8359,3.737,3.6723,0.0,0.0,0.0,0.0,0.0,0.0,3.6075,3.7399,3.8988,3.9907,4.0187,4.0298,4.0244,4.0079,3.862,3.7905,3.7693,3.4917,3.2942,3.18,0.0,0.0,0.0,0.0,3.4045,3.5232,3.5779,3.5694,3.504,3.3658,3.245,3.1527,3.0723,3.002,2.9525,2.8718,2.7848,2.6811,2.5333,0.0,0.0,0.0,0.0,0.0,0.0,0.0,0.0,0.0,0.0,0.0,0.0,0.0,0.0,0.0,0.0,0.0,0.0,0.0,2.2487,2.2913,2.3334,0.0,0.0,0.0,0.0,0.0,0.0,0.0,0.0,0.0,3.2514,3.2386,3.2276,0.0,0.0,3.2661,3.2606,3.29,3.3248,3.3651,0.0,0.0,0.0,3.3762,3.369,3.4458,3.5412,3.6145,3.6328,3.6548,3.6621,3.6365,3.664,3.675,3.6439,3.5504,3.4771,3.4752,3.488,3.5137,3.5504,3.5999,3.6328,4.4082,4.1172,4.0162,4.0258,4.1148,4.1264,4.2369,4.4075,4.3168,4.2327,4.1552,4.055,3.8697,3.6262,3.5341,0.0,0.0,0.0,3.7886,3.9892,4.0014,4.0294,4.0692,4.0662,4.0375,3.9889,3.8583,3.8171,3.8702,3.6852,3.547,3.4432,0.0,0.0,3.2952,3.3397,3.4043,3.4903,3.5357,3.5109,3.4134,3.2929,3.199,3.1318,3.0956,3.0681,3.0442,2.98,2.9115,2.8307,2.7041,2.5499,0.0,0.0,0.0,0.0,0.0,0.0,0.0,0.0,0.0,0.0,0.0,2.1269,2.0005,0.0,0.0,0.0,2.2588,2.3804,2.475,2.5336,0.0,0.0,0.0,0.0,0.0,0.0,0.0,3.1781,3.2771,3.3762,3.4954,3.4954,3.4733,3.433,3.4038,3.3983,3.4257,0.0,3.4698,3.5284,3.5541,3.576,3.5907,3.5522,3.5504,3.6383,3.6915,3.7391,3.7794,3.7867,3.7867,3.7828,3.7343,3.6856,3.6856,3.5709,3.5129,3.6103,3.6659,3.7007,3.7226,3.7592,3.7867,4.8195,4.7545,4.5148,4.4065,4.3986,4.4965,4.5421,4.5421,4.5373,4.5582,4.5821,4.4191,4.2598,4.0994,3.8761,0.0,4.022,3.8722,3.9493,4.2033,4.0781,4.0446,4.0908,4.0806,4.0225,3.9191,3.9087,3.9018,3.8859,3.7895,3.7422,3.7324,3.4892,3.3527,3.3305,3.3985,3.4357,3.4354,3.5155,3.5015,3.3872,3.2735,3.2129,3.2056,3.1286,3.0864,3.0791,3.0406,2.9837,2.9078,2.8289,2.7132,2.559,0.0,0.0,0.0,0.0,0.0,0.0,0.0,0.0,0.0,0.0,0.0,0.0,0.0,0.0,0.0,2.5333,0.0,2.783,2.8674,0.0,0.0,0.0,3.0051,3.0571,3.1909,3.3101,3.3908,0.0,0.0,3.6347,0.0,3.7318,3.6988,3.5925,3.5577,3.664,3.6145,3.5999,3.6731,3.6878,3.7024,3.7336,3.7373,3.7464,3.7869,3.8014,3.8142,3.8414,3.8307,3.8383,3.821,3.6952,3.5776,3.5776,3.448,3.4163,3.651,3.7216,3.7508,3.737,3.7582,3.7737,5.0046,4.9902,4.9277,4.8291,4.7209,4.7858,4.8147,4.8098,4.7714,4.7046,4.6139,4.5371,4.4277,4.289,4.1488,4.1229,4.186,4.0222,4.0027,4.0863,3.9826,3.9549,3.9922,3.9122,3.8583,3.8278,3.7353,3.708,3.7297,3.6464,3.6217,3.6453,3.5581,3.4916,3.4536,3.4146,3.4203,3.4764,3.502,3.486,3.4275,3.3688,3.3083,3.2459,3.1964,3.1433,3.0809,3.0406,2.9965,2.9482,2.8711,2.7812,2.682,2.4856,0.0,0.0,0.0,0.0,0.0,0.0,0.0,0.0,0.0,2.5491,2.2821,0.0,2.6545,0.0,2.7812,2.8858,2.9152,2.9904,0.0,0.0,3.2019,3.2533,3.4147,3.4368,3.4752,3.554,3.6218,3.6916,3.7464,3.7759,3.7922,3.8124,3.7391,3.6823,3.6823,3.6915,3.7134,3.7613,3.7684,3.7888,3.8197,3.8307,3.8325,3.8435,3.8453,3.849,3.8582,3.7472,3.6614,3.6534,3.5187,3.4156,3.4034,3.3642,3.3553,3.4204,3.4438,3.4488,3.4488,3.4611,3.466,5.0912,5.0649,5.0162,4.931,4.8355,4.9384,4.9806,4.9747,4.8717,4.7667,4.6473,4.4748,4.3697,4.3096,4.1981,4.1748,4.2138,4.0458,4.0191,4.1126,3.9761,3.9217,3.9453,3.8825,3.8231,3.7727,3.7052,3.6826,3.7033,3.6422,3.633,3.6719,3.6165,3.5921,3.6009,3.5253,3.519,3.5721,3.543,3.5138,3.4935,3.4002,3.3248,3.2606,3.1854,3.1176,3.0584,3.013,2.9758,2.9324,2.8718,2.8215,2.7757,2.6343,2.5425,0.0,0.0,0.0,0.0,0.0,0.0,0.0,0.0,0.0,0.0,0.0,2.8693,2.906,3.0351,3.1414,3.1946,3.29,3.3853,3.4698,3.4753,3.5192,3.6311,3.6347,3.6604,3.7189,3.7464,3.7757,3.8197,3.8252,3.8343,3.8563,3.8215,3.7849,3.7666,3.7794,3.8014,3.8215,3.8252,3.8325,3.8582,3.86,3.86,3.86,3.86,3.8344,3.757,3.6654,3.5753,3.4944,3.3397,3.2263,3.2222,3.1546,3.1105,3.1064,3.1064,3.167,3.3069,3.3397,3.3397,5.0686,5.0162,4.9231,4.8566,4.8182,4.9531,5.0187,5.0306,4.891,4.7744,4.6677,4.3409,4.2195,4.2574,4.1434,4.1228,4.1681,3.9976,4.0032,4.1357,3.9731,3.8975,3.8994,3.8956,3.8405,3.7429,3.7391,3.7391,3.7373,3.7043,3.7061,3.7336,3.6731,3.6731,3.7374,3.6714,3.6438,3.664,3.5944,3.5595,3.5486,3.4038,3.3083,3.257,3.1469,3.0607,3.0075,2.98,2.947,2.9085,2.8828,2.87,2.8711,2.7958,2.7481,0.0,2.671,0.0,0.0,0.0,0.0,0.0,0.0,0.0,0.0,3.0351,3.1194,3.1758,3.2973,3.413,3.5138,3.6273,3.6951,3.6951,3.7299,3.7556,3.7668,3.7961,3.827,3.8637,3.8673,3.8673,3.86,3.86,3.86,3.86,3.8582,3.8508,3.8563,3.8545,3.8545,3.86,3.86,3.8563,3.856,3.8344,3.8185,3.8185,3.7827,3.741,3.5873,3.5389,3.4765,3.3315,3.1644,3.0497,3.0455,2.9258,2.8347,2.8473,2.8516,2.9328,3.1711,3.2412,3.2741,4.792,4.7853,4.7639,4.732,4.6917,4.6858,4.7565,4.873,4.8417,4.7658,4.633,4.3135,4.1935,4.2295,4.1324,4.0877,4.0743,3.9662,3.9032,3.8702,3.8058,3.7736,3.7736,3.7736,3.7603,3.7391,3.7391,3.7391,3.7391,3.7299,3.7318,3.7429,3.7594,3.7556,3.7391,0.0,0.0,0.0,3.5669,3.5431,3.5101,3.4167,3.334,3.2606,3.1744,0.0,2.9354,2.9764,2.9892,2.9537,3.002,0.0,0.0,0.0,0.0,0.0,0.0,0.0,0.0,0.0,0.0,0.0,3.2019,3.1726,3.1524,3.3651,3.4715,3.3982,3.5504,3.6548,3.6475,3.7264,3.7757,3.7757,3.8124,3.8508,3.8801,3.8951,3.9003,3.9058,3.9076,3.8948,3.8673,3.86,3.8618,3.8618,3.86,3.86,3.856,3.856,3.86,3.86,3.856,3.856,3.86,3.741,3.6494,3.6373,3.5228,3.4416,3.3928,3.2741,3.185,3.1271,2.9871,2.8726,2.8726,2.8389,2.8192,2.8192,2.8192,2.8389,2.9048,2.9216,2.9174,4.746,0.0,4.6652,4.5994,0.0,4.4292,4.4651,4.5906,4.5492,4.4757,4.368,4.1206,4.0608,4.1365,4.0279,3.9699,3.9569,3.9098,3.8673,3.827,3.8087,3.7995,3.7995,3.7995,3.7995,3.7995,3.7995,3.7886,3.7723,3.7666,3.7574,3.7429,3.7592,3.7684,3.7704,3.7482,3.6878,3.587,3.5907,3.5779,3.5577,3.4623,3.3817,3.3193,0.0,0.0,0.0,0.0,0.0,0.0,0.0,0.0,0.0,0.0,0.0,3.1909,3.1781,3.1854,3.2239,3.2826,3.3615,3.4588,3.5412,3.5339,3.4183,3.5577,3.6402,3.6237,3.7136,3.7757,3.7977,3.8343,3.8695,3.8896,3.9098,3.9318,3.9483,3.9355,3.9186,3.9186,3.9186,3.9113,3.893,3.9135,3.9135,3.893,3.8893,3.85,3.7605,3.8066,3.86,3.856,3.7769,3.7312,3.7152,3.585,3.4701,3.4579,3.4009,3.311,3.2263,3.1395,3.0538,2.9718,2.8768,2.8192,2.8192,2.8192,2.8192,2.8192,2.8192,2.8192,2.8192,2.8192,2.8192,4.6955,4.6401,4.554,4.4601,4.3659,4.2257,4.2159,4.2843,0.0,0.0,0.0,3.9409,3.9175,4.0079,3.9075,3.86,3.86,3.86,3.86,3.86,3.86,3.86,3.86,3.86,3.86,3.86,3.86,3.8417,3.8087,3.8126,3.7922,3.7629,3.7592,3.7721,3.7979,3.7592,3.7061,3.6439,3.6182,3.6072,3.5981,3.4954,3.4202,3.3817,3.279,3.1983,3.1538,3.1322,3.1231,3.1231,3.1341,3.1763,3.2496,3.2918,3.3725,3.4973,3.5229,3.5449,3.5779,3.6274,3.6567,3.6622,3.7998,3.8179,3.6713,3.6988,3.7482,3.8142,3.8197,3.8472,3.9131,3.9259,3.9465,3.9836,3.9872,3.9891,3.9964,3.9667,3.9461,3.9406,3.9483,3.9369,3.9355,3.9652,3.9599,3.8964,3.8671,3.8077,3.639,3.6725,3.7467,3.7458,3.6396,3.5646,3.5493,3.418,3.3122,3.303,3.2726,3.1994,3.0803,3.033,2.976,2.86,2.8234,2.8192,2.8192,2.8192,2.8192,2.8192,2.8192,2.8192,2.8192,2.8232,2.8259,4.4088,4.3639,4.3511,4.2927,4.1991,4.1417,4.0883,4.0509,4.1717,4.2209,4.1994,3.964,3.8679,3.8838,3.8679,3.86,3.86,3.86,3.86,0.0,3.86,3.86,3.86,3.86,3.86,3.86,3.86,3.8563,3.8508,3.8508,3.849,3.8435,3.8435,3.827,3.7998,3.7592,3.7336,3.7189,3.62,3.5504,3.5156,3.4678,3.422,3.3817,3.3306,3.2664,3.1964,3.2518,3.2848,3.29,3.3523,3.411,3.4551,3.4972,3.5302,3.5522,3.6163,3.6566,3.664,3.7318,3.7867,3.827,3.9153,3.9322,3.838,3.8637,3.8911,3.9003,3.8985,3.9058,3.9205,3.9557,3.9836,3.9932,3.9891,4.0019,4.0368,4.035,4.0194,4.0111,4.0331,4.0024,3.9527,3.9627,3.9048,3.7811,3.7163,3.6607,3.5034,3.449,3.4608,3.4786,3.4474,3.4276,3.4163,3.2804,3.1645,3.1519,3.0325,2.9466,2.8921,2.8754,2.8642,2.8263,2.8192,2.8192,2.8192,2.8192,2.8192,2.8192,2.8192,2.8192,2.8192,2.8366,2.8444,4.2902,4.2735,4.2735,4.233,4.1684,4.1268,4.0884,4.0598,4.1075,4.1048,4.051,3.9424,3.8801,3.86,3.86,3.86,3.86,3.86,3.86,3.86,3.86,3.86,3.86,3.86,3.86,3.86,3.86,3.86,3.86,3.86,3.86,3.86,3.86,3.8398,3.8034,3.7833,3.7631,3.7391,3.6879,3.6365,3.598,3.5595,3.5302,3.51,3.4698,3.4458,3.4293,3.4642,3.4844,3.4844,3.5376,3.5779,3.5962,3.6347,3.6768,3.7189,3.7574,3.7977,3.8438,3.8844,3.908,3.934,3.9872,4.0074,3.9667,3.9373,3.9318,3.952,3.9373,3.9388,3.985,4.0111,4.0313,4.0515,4.0552,4.0625,4.0754,4.0625,4.0123,3.9211,3.896,3.8537,3.7358,3.7368,3.7175,3.601,3.507,3.3889,3.3163,3.2186,3.2225,3.3753,3.3418,3.2719,3.255,3.1034,2.9873,2.9593,2.893,2.8382,2.8205,2.8192,2.8192,2.8192,2.8192,2.8192,2.8192,2.8192,2.8192,2.8192,2.8192,2.8192,2.8219,2.839,2.8591,4.2602,4.2499,4.2518,4.2246,4.1806,4.1394,4.1249,4.1194,4.0809,4.0198,3.9557,3.9278,3.9021,3.8747,3.8655,3.8655,3.871,3.8637,3.8655,3.8728,3.8637,3.86,3.8618,3.8692,3.8728,3.8747,3.882,3.8915,3.8856,3.8783,3.8692,3.8618,3.86,3.8435,3.8163,3.8105,3.8016,3.7684,3.7666,3.7428,3.6951,3.6659,3.6476,3.6457,3.6145,3.6145,3.6457,3.6438,3.6531,3.6622,3.6896,3.7153,3.7336,3.7629,3.8124,3.8823,3.8875,3.9171,3.9799,3.9983,3.9983,3.9909,4.035,4.0607,4.0478,3.9887,3.963,3.9928,3.9722,3.9795,4.0327,4.0588,4.0772,4.1066,4.0663,4.0584,4.0939,4.0138,3.9102,3.7928,3.7488,3.6638,3.5515,3.5319,3.5221,3.4364,3.2581,3.1483,3.1421,3.0348,3.0839,3.2104,3.2013,3.1124,3.0724,2.9672,2.8737,2.8312,2.8312,2.8299,2.8232,2.8192,2.8232,2.8272,2.8312,2.8366,2.8379,2.8406,2.8419,2.8446,2.8393,2.8312,2.8326,2.8524,2.8724,4.3219,4.2875,4.2838,4.2617,4.2174,4.1818,4.161,4.1598,4.1231,4.0809,4.0331,3.9575,3.9186,3.9095,3.8783,3.882,3.9076,3.8765,3.8801,3.9058,3.8765,3.86,3.8655,3.8966,3.9131,3.9186,3.956,3.9689,3.9671,3.9336,3.8966,3.8637,3.86,3.86,3.8545,3.8545,3.8527,3.849,3.849,3.8124,3.7391,3.7281,3.7263,3.7263,3.7226,3.7244,3.7299,3.7281,3.7484,3.7814,3.7888,3.8197,3.8856,3.9003,3.9263,3.9726,3.9781,3.9817,3.9909,4.024,4.0313,3.9983,4.0607,4.0882,4.057,4.046,4.0405,4.0359,4.0322,4.0405,4.0533,4.0827,4.0945,4.0729,3.9586,3.9203,4.018,3.8024,3.6485,3.8152,3.6523,3.5561,3.5067,3.4984,3.4548,3.2998,3.1413,3.0305,3.0328,3.0132,2.9864,3.0277,2.9758,2.9558,2.9555,2.9098,2.8617,2.8537,2.8551,2.8446,2.8259,2.8192,2.8259,2.8473,2.8524,2.8591,2.8804,2.8908,2.8868,2.8804,2.8698,2.8564,2.8591,2.8804,2.8938,4.2704,4.2574,4.2574,4.2444,4.2216,4.1867,4.1684,4.1647,4.1286,4.1011,4.0809,4.0217,3.9703,3.9245,3.93,3.9318,3.9226,3.9318,3.93,3.9205,3.93,3.9226,3.9003,3.9392,3.9593,3.9634,3.9817,3.9872,3.9854,3.9707,3.9502,3.9373,3.9355,3.9226,3.8966,3.8948,3.8838,3.8618,3.86,3.8435,3.8124,3.7867,3.7778,3.7778,3.7778,3.8016,3.8398,3.8453,3.8676,3.9101,3.9138,3.9285,3.9575,3.9832,4.0185,4.0588,4.1066,4.1213,4.0992,4.1097,4.1047,4.0644,4.0901,4.1029,4.0882,4.0864,4.0426,3.9507,3.9976,4.0588,4.0743,4.1011,4.0663,3.9628,3.8716,3.8203,3.7698,3.6448,3.5538,3.5087,3.4345,3.341,3.2484,3.2174,3.1879,3.1093,3.0258,2.9958,2.9913,2.9913,2.9913,2.986,2.9553,2.9299,2.9232,2.8855,2.8577,2.839,2.8379,2.8299,2.8245,2.8192,2.8286,2.8551,2.8617,2.8724,2.8908,2.8988,2.8988,2.8975,2.8975,2.8911,2.9085,2.9219,2.9219,4.2644,4.2619,4.2619,4.2644,4.2564,4.2069,4.1849,4.1776,4.1341,4.1102,4.1066,4.079,4.0235,3.9667,3.9817,3.9762,3.9612,3.9799,3.9799,3.9593,3.9817,3.9726,3.9465,3.9854,4.0056,4.0093,4.0295,4.035,4.0221,4.0093,4.0001,3.9909,3.9872,3.9744,3.9428,3.941,3.9263,3.8966,3.8838,3.8765,3.8728,3.8472,3.8346,3.8307,3.8346,3.8676,3.9355,3.941,3.9593,4.0019,4.0056,4.0166,4.0387,4.068,4.1029,4.1415,4.1984,4.2204,4.1867,4.1849,4.1708,4.1341,4.1268,4.0959,4.0469,4.0367,3.9458,3.7869,3.8499,3.9134,3.9515,3.9632,3.8992,3.7705,3.7288,3.6507,3.5828,3.4999,3.3782,3.2925,3.2642,3.169,3.0438,3.0146,3.0093,3.0048,2.9958,2.9913,2.9913,2.9913,2.9913,2.99,2.9673,2.9419,2.9135,2.8845,2.8537,2.8393,2.8312,2.8219,2.8192,2.8192,2.8286,2.8524,2.8617,2.8845,2.9165,2.9161,2.9175,2.9135,2.9179,2.9179,2.9205,2.9392,2.9459,4.3444,4.3426,4.3426,4.3389,4.3353,4.2582,4.2252,4.2241,4.1488,4.1139,4.1139,4.1084,4.0845,4.0382,4.0093,4.0093,4.035,4.0093,4.0111,4.0331,4.0093,3.9891,3.9891,4.0276,4.0497,4.0588,4.1134,4.1359,4.1047,4.068,4.0276,3.9946,3.9964,3.995,3.9854,3.9854,3.9836,3.9726,3.9373,3.9168,3.9168,3.915,3.9113,3.9131,3.9131,3.9355,3.9799,3.9854,4.0056,4.0478,4.0515,4.0827,4.1464,4.161,4.1812,4.2179,4.2314,4.2289,4.2166,4.2122,4.1835,4.1531,4.1122,4.0635,3.8666,3.8417,3.7586,3.5798,3.575,3.5923,3.5814,3.6399,3.6305,3.5692,3.4633,3.4636,3.5532,3.2986,3.197,3.2392,3.1739,3.0872,3.0418,3.0087,2.994,2.9913,2.9913,2.9913,2.9913,2.9913,2.9913,2.9873,2.97,2.9486,2.9406,2.9032,2.8698,2.8551,2.8446,2.8232,2.8192,2.8219,2.8393,2.8564,2.8748,2.9015,2.9392,2.9553,2.9606,2.9579,2.9486,2.9459,2.9406,2.9406,2.9472,4.3719,4.3499,4.3481,4.3481,4.3426,4.2894,4.27,4.2644,4.2087,4.1727,4.1525,4.1464,4.1268,4.0882,4.0735,4.0607,4.0533,4.0607,4.0607,4.0552,4.0607,4.0533,4.0331,4.0699,4.1047,4.128,4.1555,4.18,4.1837,4.1488,4.1189,4.1047,4.079,4.0552,4.0331,4.0295,4.0166,3.9932,3.9726,3.9671,3.9571,3.9671,3.974,3.9997,3.9799,3.9854,4.0276,4.0295,4.0478,4.0864,4.1097,4.1372,4.1684,4.2161,4.2619,4.3004,4.3059,4.2383,4.1011,4.0781,3.9929,3.8208,3.7993,3.7745,3.6746,3.6448,3.5711,3.4185,3.3703,3.3307,3.2719,3.4087,3.5147,3.4123,3.3561,3.309,3.2558,3.1528,3.0996,3.1167,3.0677,3.0293,3.0373,3.01,2.9927,2.9913,2.9913,2.9913,2.9913,2.9913,2.9913,2.99,2.9833,2.9753,2.9753,2.9215,2.8828,2.8761,2.8684,2.8524,2.8444,2.8326,2.8419,2.8751,2.8961,2.9202,2.9553,2.9726,2.9806,2.9806,2.9713,2.9659,2.9588,2.9579,2.9619,4.3738,4.3518,4.3481,4.3481,4.3444,4.3103,4.292,4.2865,4.2454,4.2069,4.1739,4.1684,4.1464,4.1158,4.1102,4.0974,4.0735,4.0974,4.0956,4.0735,4.0974,4.0956,4.0772,4.0974,4.1323,4.1647,4.1831,4.2069,4.2344,4.1941,4.1776,4.1831,4.1506,4.1176,4.0956,4.0901,4.0699,4.035,4.0148,3.9828,3.9316,3.9192,3.9009,3.874,3.8551,3.9319,4.0756,4.0859,4.0705,4.0624,4.0801,4.0696,4.0333,4.0789,4.1308,4.1554,4.1544,4.0995,3.9604,3.9298,3.8494,3.6794,3.649,3.6182,3.5225,3.4937,3.3901,3.254,3.1932,3.1321,3.0915,3.2433,3.3457,3.2513,3.2455,3.2179,3.1147,3.1069,3.1042,3.0947,3.0485,3.0274,3.0381,3.0127,2.9953,2.9913,2.9913,2.9913,2.9913,2.9913,2.9913,2.9913,2.9913,2.9887,2.9873,2.9508,2.9215,2.9121,2.8851,2.8718,2.8612,2.8468,2.8494,2.8868,2.9161,2.9415,2.9615,2.986,2.9869,2.9869,2.9873,2.9806,2.978,2.974,2.9753,4.3518,4.3481,4.3481,4.3481,4.3444,4.3096,4.2938,4.2901,4.2553,4.2197,4.1886,4.1757,4.1574,4.1213,4.1176,4.1121,4.1066,4.1139,4.1158,4.1121,4.1176,4.1194,4.1176,4.1213,4.1451,4.1812,4.2142,4.2509,4.2846,4.2197,4.1977,4.2161,4.1886,4.1708,4.1666,4.161,4.1445,4.1042,4.0568,3.9515,3.7959,3.7783,3.7013,3.5612,3.5724,3.7581,4.1176,4.1287,4.0474,3.9353,3.928,3.858,3.7698,3.7842,3.7867,3.8081,3.7867,3.7905,3.7911,3.7895,3.7677,3.6916,3.7336,3.5974,3.416,3.3607,3.2739,3.1222,3.0686,3.0445,3.0499,3.0948,3.1166,3.0593,3.1394,3.1578,3.1376,3.1476,3.1698,3.1463,3.0849,3.0515,3.0568,3.0261,2.994,2.9913,2.9913,2.9913,2.9913,2.9913,2.9913,2.9869,2.9779,2.9689,2.9779,2.9842,2.9624,2.9437,2.9114,2.8857,2.8744,2.8625,2.8425,2.8658,2.8951,2.9188,2.9472,2.9599,2.9554,2.9554,2.9689,2.9734,2.9681,2.9628,2.9744,4.3481,4.3481,4.3481,4.3481,4.3481,4.3353,4.3298,4.3298,4.3169,4.292,4.2589,4.2553,4.2167,4.161,4.1525,4.1378,4.1139,4.1378,4.1543,4.158,4.1818,4.1929,4.1886,4.1947,4.2149,4.2553,4.2931,4.3169,4.3169,4.2747,4.2626,4.2626,4.2289,4.2149,4.1915,4.2087,4.1886,4.1391,4.0101,3.8949,3.8084,3.6989,3.6149,3.5716,3.593,3.6962,3.8313,3.797,3.7562,3.7286,3.7574,3.7611,3.7446,3.7704,3.7767,3.7639,3.7767,3.7211,3.6116,3.5746,3.5079,3.3969,3.3483,3.2958,3.2189,3.1928,3.1541,3.0922,3.0782,3.0707,3.0702,3.0929,3.1036,3.0969,3.1196,3.145,3.149,3.1436,3.1463,3.1577,3.0948,3.06,3.0608,3.0287,2.994,2.9953,2.994,2.9913,2.9927,2.9882,2.9734,2.951,2.9465,2.933,2.924,2.924,2.9117,2.9089,2.8924,2.8811,2.874,2.8613,2.8468,2.8502,2.8749,2.8981,2.9233,2.9272,2.9195,2.9015,2.9015,2.9137,2.9335,2.9412,2.9444,4.3628,4.3499,4.3481,4.3481,4.3481,4.3481,4.3481,4.3481,4.3481,4.3261,4.2957,4.2901,4.2527,4.1977,4.1757,4.1672,4.1555,4.1984,4.2124,4.2161,4.2362,4.2534,4.2527,4.2674,4.2839,4.3177,4.3518,4.3719,4.3683,4.3169,4.2622,4.2039,4.1602,4.0922,4.042,4.0332,4.0105,3.9479,3.8477,3.7458,3.6441,3.5488,3.4695,3.4143,3.4232,3.4501,3.4769,3.4366,3.4668,3.538,3.5318,3.5219,3.5518,3.5529,3.5578,3.5505,3.5501,3.5053,3.4079,3.3775,3.3278,3.2204,3.1824,3.1711,3.1543,3.1289,3.1196,3.1169,3.1062,3.0955,3.0996,3.1223,3.137,3.1396,3.1396,3.1476,3.161,3.1503,3.1476,3.1476,3.0996,3.0768,3.0755,3.0341,3.0074,3.014,3.006,2.9993,2.9962,2.98,2.9491,2.9182,2.906,2.888,2.861,2.8565,2.8565,2.8636,2.8668,2.8635,2.8596,2.8456,2.8341,2.8405,2.8584,2.87,2.888,2.879,2.87,2.852,2.8429,2.87,2.8899,2.8848,2.8924,4.3866,4.3536,4.3499,4.3481,4.3481,4.3481,4.3481,4.3481,4.3481,4.3279,4.303,4.3012,4.2755,4.2307,4.2014,4.1996,4.2314,4.2626,4.2828,4.2901,4.2993,4.3048,4.3085,4.3316,4.3499,4.3664,4.3958,4.3977,4.3524,4.2925,4.1969,4.0412,3.9914,3.8981,3.7915,3.719,3.7186,3.6732,3.6387,3.5356,3.359,3.3388,3.2802,3.1224,3.1337,3.1533,3.183,3.1877,3.2533,3.3909,3.2919,3.2348,3.2183,3.1872,3.2205,3.2246,3.1819,3.2246,3.2134,3.2346,3.2345,3.2428,3.2353,3.246,3.2024,3.1717,3.1517,3.1383,3.1289,3.1249,3.1303,3.1463,3.1671,3.1711,3.1671,3.1684,3.1711,3.1698,3.1698,3.1617,3.1196,3.0842,3.0996,3.0356,3.0218,3.0239,3.0034,2.9896,2.9851,2.9558,2.9221,2.8912,2.8552,2.8339,2.8023,2.7933,2.7933,2.7965,2.8083,2.8173,2.825,2.8123,2.8097,2.8218,2.8269,2.8372,2.8384,2.8249,2.8158,2.8068,2.8113,2.8384,2.8449,2.8353,2.8488,4.4031,4.3903,4.3628,4.3481,4.3481,4.3481,4.3499,4.3499,4.3499,4.3444,4.3334,4.3334,4.3078,4.2755,4.2644,4.2516,4.2454,4.2755,4.3103,4.3353,4.3646,4.3756,4.3774,4.3911,4.4068,4.4261,4.417,4.3613,4.2014,4.1667,4.0459,3.8448,3.8246,3.7936,3.7448,3.7203,3.718,3.6544,3.5273,3.4409,3.346,3.2315,3.1661,3.1269,3.1303,3.145,3.1591,3.1557,3.1759,3.23,3.2043,3.1738,3.1858,3.1891,3.1864,3.1778,3.1864,3.1998,3.2024,3.1917,3.1944,3.2144,3.2166,3.1971,3.2091,3.1837,3.1757,3.1757,3.1704,3.1543,3.1557,3.1671,3.1724,3.1724,3.1724,3.1724,3.1724,3.1724,3.1724,3.1671,3.133,3.0869,3.0511,3.0188,2.9841,2.9598,2.9449,2.9261,2.9417,2.9125,2.8719,2.8249,2.792,2.7706,2.748,2.739,2.7344,2.7299,2.7377,2.7558,2.7591,2.7567,2.7657,2.7785,2.7649,2.7706,2.7706,2.7616,2.7571,2.7616,2.7571,2.7661,2.7842,2.7895,2.8121,4.4398,4.4086,4.4013,4.3884,4.3774,4.3921,4.3903,4.3756,4.3738,4.3646,4.3518,4.3481,4.3371,4.3133,4.2975,4.2858,4.2821,4.3023,4.3261,4.3284,4.2811,4.3081,4.3787,4.4131,4.386,4.336,4.3395,4.2186,4.0531,4.0088,3.8738,3.6994,3.6544,3.6063,3.4887,3.512,3.4972,3.4411,3.3575,3.2961,3.2523,3.1857,3.1524,3.1436,3.1583,3.1724,3.1711,3.1711,3.1764,3.1845,3.1805,3.1764,3.1837,3.1877,3.1837,3.1724,3.1837,3.1904,3.1917,3.1851,3.1944,3.2078,3.2011,3.2179,3.2286,3.2166,3.2166,3.2038,3.1931,3.1858,3.1738,3.1724,3.1778,3.1824,3.1744,3.1724,3.1724,3.1487,3.1521,3.1455,3.1033,3.0627,3.0369,3.0026,2.9669,2.9445,2.933,2.9228,2.9105,2.8623,2.8181,2.7859,2.755,2.7393,2.7314,2.7269,2.7296,2.7205,2.7193,2.7272,2.7208,2.7196,2.7241,2.7344,2.7118,2.7027,2.7163,2.7254,2.7208,2.7208,2.7027,2.7084,2.7356,2.7513,2.7739,4.4875,4.4233,4.459,4.4471,4.4278,4.4554,4.4462,4.4178,4.4141,4.394,4.3646,4.3573,4.3536,4.3481,4.3177,4.3133,4.3444,4.3408,4.3177,4.2479,4.1479,4.113,4.2546,4.2698,4.2241,4.1454,4.1319,4.0215,3.883,3.8198,3.6892,3.5173,3.4657,3.3733,3.2733,3.2138,3.1611,3.1853,3.2022,3.1867,3.1705,3.1631,3.1644,3.1671,3.1684,3.1724,3.1724,3.1738,3.177,3.2038,3.181,3.1845,3.1971,3.1784,3.1751,3.1778,3.1845,3.1877,3.1851,3.2104,3.2211,3.2291,3.2487,3.2594,3.2541,3.25,3.242,3.2211,3.2158,3.2051,3.1904,3.1797,3.1774,3.1885,3.1787,3.1593,3.1527,3.1167,3.1107,3.1413,3.0419,3.0256,3.017,3.0007,2.9402,2.9077,2.8977,2.8877,2.8719,2.8405,2.8007,2.7694,2.7409,2.7193,2.7148,2.7148,2.7256,2.7329,2.7329,2.7326,2.7121,2.7072,2.7027,2.7027,2.7027,2.7027,2.7027,2.7027,2.7027,2.7075,2.7111,2.7042,2.7075,2.7175,2.7344,4.5205,4.5021,4.4811,4.4618,4.4609,4.4636,4.4682,4.459,4.4545,4.4325,4.4013,4.3958,4.3756,4.3481,4.3371,4.3408,4.3303,4.3124,4.2748,4.0894,3.915,3.848,3.9103,3.933,3.9443,3.9235,3.938,3.8198,3.6543,3.5881,3.4762,3.2857,3.2776,3.2253,3.1833,3.1711,3.165,3.1597,3.1698,3.1684,3.1631,3.1657,3.1724,3.1724,3.1724,3.1724,3.1724,3.1724,3.1751,3.1778,3.173,3.1805,3.1872,3.1831,3.1831,3.1925,3.2206,3.2393,3.2447,3.2621,3.2786,3.2732,3.2701,3.2594,3.2594,3.2634,3.2594,3.25,3.25,3.246,3.2296,3.1957,3.1776,3.1656,3.1387,3.1014,3.0834,3.082,3.0752,3.0496,3.0207,2.9845,2.9542,2.956,2.9175,2.8793,2.8613,2.8468,2.8333,2.8187,2.7909,2.7652,2.7585,2.7425,2.7377,2.7365,2.7401,2.7425,2.7413,2.7295,2.7078,2.7027,2.7027,2.7027,2.7027,2.7027,2.7027,2.7039,2.7051,2.7123,2.7208,2.7174,2.7162,2.7135,2.7039,4.5462,4.5297,4.526,4.5132,4.5003,4.515,4.5132,4.4985,4.4966,4.4636,4.4178,4.4086,4.3866,4.3499,4.3436,4.3079,4.1967,4.1093,4.0169,3.8814,3.7161,3.6236,3.5895,3.5641,3.5693,3.6782,3.7065,3.5881,3.4464,3.3909,3.3312,3.2034,3.1864,3.1953,3.1738,3.1724,3.1724,3.1711,3.1724,3.1724,3.1724,3.1724,3.1724,3.1724,3.1724,3.1724,3.1724,3.1724,3.1791,3.1837,3.1877,3.2005,3.2152,3.2211,3.2332,3.2532,3.2572,3.2808,3.2848,3.2929,3.2959,3.3,3.2946,3.2959,3.2946,3.2946,3.2718,3.2589,3.2598,3.2697,3.2402,3.1705,3.1424,3.1477,3.1154,3.0769,3.0471,3.0377,3.0363,2.9987,2.965,2.9444,2.9241,2.9182,2.8991,2.8654,2.8654,2.851,2.8303,2.8158,2.7965,2.7808,2.7786,2.7727,2.7655,2.7618,2.7524,2.7522,2.7425,2.7247,2.7042,2.7006,2.7027,2.7027,2.7027,2.7027,2.7027,2.7051,2.7123,2.7268,2.7365,2.7389,2.7449,2.7498,2.7304,4.57,4.5425,4.5755,4.57,4.548,4.5718,4.5663,4.5425,4.5388,4.4726,4.3924,4.3842,4.3152,4.2658,4.2361,4.1479,3.9987,3.8173,3.7207,3.6884,3.5089,3.4294,3.3854,3.3158,3.3066,3.4463,3.462,3.3701,3.2892,3.2433,3.2406,3.2024,3.2011,3.1851,3.1751,3.1724,3.1724,3.1724,3.1724,3.1724,3.1724,3.1724,3.1724,3.1724,3.1724,3.1764,3.177,3.1898,3.2019,3.2211,3.2278,3.2465,3.2741,3.2835,3.3,3.3213,3.304,3.3053,3.3066,3.312,3.3173,3.312,3.3253,3.3374,3.3374,3.317,3.2878,3.2623,3.2494,3.2508,3.2134,3.1472,3.1199,3.1175,3.0999,3.0626,3.0231,2.9934,2.9919,2.9765,2.9403,2.909,2.9004,2.8896,2.8716,2.8572,2.862,2.8572,2.8367,2.8222,2.8101,2.8053,2.8065,2.8125,2.8077,2.7993,2.792,2.7655,2.751,2.7307,2.7138,2.7126,2.7114,2.7051,2.7027,2.7039,2.7039,2.7039,2.716,2.7401,2.7449,2.7401,2.7582,2.7848,2.7582,4.5847,4.5792,4.5865,4.5847,4.5792,4.5865,4.5706,4.581,4.5426,4.4468,4.262,4.2491,4.1128,3.9683,3.898,3.8556,3.7777,3.6097,3.5089,3.4809,3.329,3.2455,3.2313,3.209,3.2036,3.2097,3.2422,3.23,3.2041,3.1858,3.1925,3.1818,3.1818,3.1751,3.1738,3.1724,3.1724,3.1724,3.1724,3.1724,3.1724,3.1724,3.1724,3.1724,3.1751,3.1837,3.2051,3.2313,3.2581,3.2812,3.3053,3.3307,3.3297,3.2986,3.2812,3.2995,3.32,3.3347,3.336,3.3547,3.3681,3.3694,3.3484,3.3314,3.3213,3.3013,3.2659,3.2446,3.2119,3.1931,3.1843,3.1277,3.1026,3.0912,3.0661,3.0237,2.9979,2.9845,2.9688,2.9469,2.9128,2.8874,2.8862,2.8813,2.8668,2.8572,2.8572,2.8572,2.8524,2.8439,2.8391,2.8367,2.8379,2.8451,2.8512,2.8415,2.8294,2.7896,2.7691,2.7512,2.7379,2.7343,2.7271,2.7256,2.7135,2.703,2.7018,2.7039,2.7268,2.7546,2.7498,2.7413,2.7703,2.7956,2.7727,4.5883,4.5883,4.5883,4.5252,4.443,4.4287,4.3652,4.2775,4.2632,4.1933,4.0902,4.0501,3.9698,3.8336,3.8006,3.7335,3.5769,3.4028,3.3149,3.2772,3.2138,3.1724,3.1724,3.1724,3.1724,3.1724,3.1724,3.1724,3.1724,3.1738,3.1724,3.1724,3.1724,3.1724,3.1724,3.1724,3.1724,3.1724,3.1724,3.1724,3.1724,3.1724,3.1724,3.1751,3.1837,3.2038,3.2353,3.2487,3.2808,3.3093,3.3187,3.321,3.3113,3.2934,3.2871,3.3274,3.3497,3.3641,3.3614,3.3694,3.35,3.3211,3.3079,3.2825,3.2611,3.231,3.2159,3.2021,3.1416,3.1113,3.1302,3.0923,3.0619,3.0568,3.0366,3.0192,3.0057,3.002,2.9767,2.9417,2.9175,2.9019,2.8874,2.8765,2.8656,2.8572,2.8584,2.8584,2.8584,2.8632,2.8596,2.8536,2.8512,2.8548,2.8596,2.8536,2.8451,2.8113,2.786,2.7727,2.7642,2.7582,2.7558,2.7534,2.7389,2.7268,2.703,2.7063,2.7377,2.7691,2.7739,2.7799,2.7944,2.7993,2.7811,4.5252,4.5252,4.4827,4.3699,4.2344,4.2152,4.1318,3.9915,3.9867,3.9433,3.8585,3.849,3.7954,3.7111,3.6613,3.5787,3.4001,3.2422,3.2056,3.1947,3.1785,3.1724,3.1724,3.1724,3.1724,3.1724,3.1724,3.1724,3.1724,3.1724,3.1724,3.1724,3.1724,3.1724,3.1724,3.1724,3.1724,3.1724,3.1724,3.1724,3.1724,3.1724,3.1751,3.1757,3.1984,3.23,3.2634,3.2795,3.2977,3.3157,3.311,3.2894,3.26,3.2499,3.291,3.366,3.3629,3.3524,3.3367,3.3184,3.2814,3.2512,3.2474,3.2209,3.197,3.1819,3.1567,3.1365,3.086,3.0416,3.0708,3.0467,3.0264,3.0214,3.0264,3.0202,3.0189,3.0153,3.0081,2.9755,2.9405,2.9163,2.9019,2.8765,2.8596,2.8693,2.8693,2.8632,2.8644,2.8705,2.8729,2.8596,2.856,2.8548,2.8536,2.85,2.8403,2.8198,2.7993,2.7872,2.7811,2.7775,2.7682,2.7566,2.7751,2.7618,2.7341,2.708,2.7498,2.7787,2.7993,2.8149,2.8246,2.8246,2.8113,4.3175,4.3014,4.1222,4.0255,4.011,4.0061,3.9915,3.9527,3.9332,3.8536,3.6746,3.6712,3.5623,3.4255,3.3623,3.3064,3.2475,3.2245,3.1944,3.1904,3.1805,3.1724,3.1724,3.1724,3.1724,3.1724,3.1724,3.1724,3.1724,3.1724,3.1724,3.1724,3.1724,3.1724,3.1724,3.1724,3.1724,3.1724,3.1724,3.1724,3.1724,3.1724,3.1845,3.1944,3.2096,3.2336,3.2754,3.2944,3.314,3.3024,3.3089,3.2785,3.2391,3.2035,3.2099,3.2251,3.2251,3.2072,3.2174,3.221,3.2109,3.197,3.192,3.187,3.1605,3.1314,3.096,3.0416,3.0214,3.0264,3.0366,3.0264,3.0214,3.0214,3.0214,3.0214,3.0214,3.0214,3.0153,3.0045,2.9695,2.9381,2.9163,2.8874,2.8584,2.8705,2.8717,2.8668,2.8741,2.8886,2.8946,2.8825,2.8837,2.8837,2.8789,2.8681,2.838,2.8235,2.7712,2.7652,2.7723,2.7629,2.7558,2.7523,2.7523,2.711,2.6352,2.6387,2.7331,2.7848,2.8017,2.8258,2.8464,2.8403,2.7926,3.9915,4.098,4.0061,3.8991,3.7915,3.7866,3.7179,3.6306,3.6109,3.5614,3.4883,3.4734,3.4036,3.3031,3.2567,3.2273,3.2078,3.1957,3.1912,3.1877,3.1744,3.1724,3.1724,3.1724,3.1724,3.1724,3.1724,3.1724,3.1724,3.1724,3.1724,3.1724,3.1724,3.1724,3.1724,3.1724,3.1724,3.1724,3.1724,3.1724,3.1724,3.1724,3.173,3.1891,3.1979,3.2251,3.2491,3.2637,3.2733,3.2608,3.2518,3.2099,3.168,3.1402,3.1389,3.1269,3.1219,3.1412,3.1896,3.1858,3.1668,3.1428,3.134,3.1288,3.1134,3.0917,3.0725,3.0494,3.0298,3.0226,3.0214,3.0214,3.0214,3.0214,3.0214,3.0214,3.0214,3.0214,3.0177,3.0093,2.9884,2.9333,2.8836,2.8461,2.8226,2.8376,2.847,2.853,2.8786,2.9115,2.9151,2.9151,2.9139,2.9127,2.9079,2.8994,2.8559,2.8055,2.6486,2.6584,2.7271,2.7353,2.659,2.5799,2.5126,2.4859,2.4803,2.5832,2.6934,2.7534,2.8041,2.7498,2.6978,2.6746,2.609,3.6687,3.8096,3.8111,3.7179,3.5762,3.5727,3.4933,3.355,3.355,3.345,3.3414,3.3437,3.3313,3.2893,3.2519,3.2318,3.2091,3.1877,3.1845,3.177,3.1704,3.1724,3.1724,3.1724,3.1724,3.1724,3.1724,3.1724,3.1724,3.1724,3.1724,3.1724,3.1724,3.1724,3.1724,3.1724,3.1724,3.1724,3.1724,3.1724,3.1677,3.1534,3.1527,3.16,3.1731,3.1868,3.2011,3.2071,3.215,3.1921,3.1744,3.1403,3.0935,3.0846,3.0866,3.0817,3.079,3.1084,3.1559,3.165,3.14,3.1147,3.0932,3.0866,3.0681,3.0576,3.0503,3.0443,3.0334,3.0238,3.0214,3.0214,3.0214,3.0214,3.0214,3.0214,3.0214,3.0214,3.0112,2.99,2.9525,2.8735,2.8275,2.7872,2.7828,2.8082,2.8192,2.8148,2.8282,2.843,2.8273,2.7977,2.8015,2.7695,2.7118,2.7358,2.7611,2.7476,2.5867,2.5137,2.5549,2.5029,2.4011,2.3296,2.2916,2.3169,2.3491,2.5092,2.6402,2.5747,2.5241,2.5317,2.5062,2.4809,2.4414,3.37,3.38,3.39,3.395,3.3714,3.36,3.3564,3.3414,3.3414,3.3414,3.3414,3.3387,3.3106,3.2795,3.2768,3.2519,3.2104,3.2078,3.1998,3.1904,3.1858,3.1738,3.1724,3.1724,3.1724,3.1724,3.1724,3.1724,3.1724,3.1724,3.1724,3.1724,3.1724,3.1724,3.1724,3.1724,3.1724,3.1724,3.1724,3.1629,3.1534,3.131,3.1116,3.1233,3.1169,3.1182,3.1436,3.1642,3.1554,3.1212,3.1099,3.096,3.0579,3.0477,3.0606,3.0881,3.0817,3.1081,3.146,3.1374,3.1069,3.0957,3.0848,3.073,3.0588,3.0383,3.0286,3.0322,3.0274,3.0226,3.0214,3.0214,3.0214,3.0214,3.0214,3.0214,3.0214,3.0214,3.0061,2.9745,2.9026,2.7981,2.6319,2.5644,2.5821,2.604,2.5761,2.5705,2.6361,2.6562,2.6443,2.625,2.6278,2.5608,2.4087,2.4357,2.5486,2.5279,2.405,2.3404,2.3286,2.2448,2.1103,2.1667,2.1508,2.1832,2.196,2.2237,2.2452,2.2432,2.251,2.3207,2.2771,2.2107,2.2037,3.3414,3.3414,3.3414,3.3414,3.3414,3.3414,3.3414,3.3414,3.3414,3.3414,3.34,3.3387,3.3187,3.2929,3.2714,3.2554,3.2104,3.1904,3.1877,3.1824,3.1764,3.1724,3.1724,3.1724,3.1724,3.1724,3.1724,3.1724,3.1724,3.1724,3.1724,3.1724,3.1724,3.1724,3.1724,3.1724,3.1724,3.1724,3.1677,3.1582,3.1202,3.1059,3.0812,3.0533,3.076,3.0701,3.0714,3.0936,3.0782,3.0605,3.0568,3.0489,3.0446,3.0419,3.0696,3.1119,3.1059,3.1264,3.1445,3.1264,3.0938,3.0805,3.0781,3.0781,3.0636,3.0491,3.0455,3.0419,3.0286,3.0226,3.0112,3.0163,3.0214,3.0214,3.0011,2.9796,2.9593,2.9276,2.8818,2.798,2.7367,2.6619,2.4804,2.294,2.344,2.3878,2.352,2.3466,2.4107,2.4595,2.4455,2.4405,2.4395,2.412,2.2636,2.3017,2.3659,2.2907,2.2113,2.1796,2.1116,1.9018,1.8171,1.9018,1.9552,1.9207,1.8862,1.8574,1.9134,2.0481,2.1271,2.1854,2.096,1.9651,1.9511,3.3414,3.3414,3.3414,3.3414,3.3414,3.3414,3.3414,3.3414,3.3414,3.3347,3.328,3.3267,3.3053,3.2746,3.2519,3.238,3.2104,3.1944,3.1837,3.1824,3.1837,3.1805,3.1751,3.1724,3.1724,3.1724,3.1724,3.1724,3.1724,3.1724,3.1724,3.1724,3.1724,3.1724,3.1724,3.1724,3.1724,3.1677,3.1487,3.1344,3.0916,3.0522,3.0331,2.9967,3.0131,3.0144,3.0143,3.0323,3.0424,3.0313,3.0288,3.031,3.0443,3.0612,3.0853,3.1131,3.1384,3.1517,3.1614,3.1493,3.1119,3.101,3.0926,3.0841,3.0672,3.0539,3.0407,3.0419,3.0247,2.996,2.9542,2.8971,2.8144,2.7623,2.7254,2.705,2.7152,2.6947,2.6538,2.6015,2.5142,2.3897,2.2761,2.0852,2.049,2.0788,2.04,2.0838,2.2188,2.2524,2.2533,2.2506,2.2515,2.2087,2.1596,2.1632,2.1492,2.0351,1.9767,1.9833,1.887,1.6963,1.6232,1.7402,1.7452,1.6424,1.6523,1.7162,1.8285,1.9593,1.9798,1.97,1.8969,1.7749,1.7261,3.3414,3.3414,3.3414,3.3414,3.3414,3.3414,3.3414,3.3414,3.34,3.328,3.3093,3.304,3.2732,3.2332,3.2278,3.2171,3.2091,3.2078,3.2051,3.1984,3.1984,3.1891,3.1805,3.1724,3.1724,3.1724,3.1724,3.1724,3.1724,3.1724,3.1724,3.1738,3.1764,3.1751,3.1724,3.1724,3.1724,3.1629,3.1202,3.1003,3.0583,3.006,2.98,2.9538,2.964,2.9724,2.9796,3.0035,3.025,3.0238,3.0214,3.0262,3.0346,3.0564,3.0805,3.1059,3.1312,3.1541,3.1759,3.1759,3.1553,3.124,3.1046,3.0853,3.0612,3.0407,2.9906,2.9687,2.9667,2.8756,2.7878,2.6845,2.5861,2.5348,2.5091,2.5039,2.5194,2.5245,2.4926,2.4051,2.2088,2.0436,1.9715,1.8843,1.7908,1.7527,1.7227,1.817,1.9975,2.0384,2.0392,2.034,2.034,1.9975,1.9563,1.9639,1.9221,1.8052,1.7624,1.7931,1.7798,1.6623,1.6225,1.6424,1.6325,1.6133,1.6133,1.6225,1.7253,1.8038,1.7303,1.6913,1.6374,1.6282,1.6182,3.3414,3.3414,3.3414,3.3414,3.3414,3.3414,3.3414,3.3414,3.34,3.3347,3.324,3.308,3.2835,3.2541,3.238,3.2233,3.2005,3.2353,3.2353,3.1877,3.2011,3.1891,3.1791,3.1724,3.1724,3.1724,3.1724,3.1724,3.1724,3.1724,3.1724,3.1738,3.181,3.1837,3.1784,3.1797,3.1795,3.1281,3.106,3.0837,3.0038,2.983,2.9627,2.9189,2.9467,2.9634,2.9658,3.0033,3.0189,3.0214,3.0214,3.0274,3.0431,3.0684,3.0962,3.1228,3.1493,3.1686,3.1795,3.1759,3.1578,3.1276,3.1046,3.0805,3.0368,3.0286,2.9503,2.8348,2.8031,2.6845,2.5296,2.4824,2.4206,2.4154,2.4051,2.4,2.4051,2.4,2.3639,2.214,2.0384,1.9201,1.832,1.8118,1.7286,1.6978,1.6978,1.6978,1.8372,1.8268,1.817,1.8118,1.8013,1.7758,1.7569,1.8056,1.8164,1.7342,1.6825,1.6665,1.6325,1.6133,1.6133,1.6275,1.6175,1.6133,1.6133,1.6133,1.6133,1.6225,1.6133,1.6133,1.6182,1.6182,1.6133,3.3414,3.3414,3.3414,3.3414,3.3414,3.3414,3.3414,3.3414,3.34,3.336,3.3227,3.304,3.2862,3.2634,3.2447,3.2514,3.2166,3.2273,3.2487,3.2019,3.2038,3.1917,3.1757,3.1724,3.1724,3.1724,3.1724,3.1724,3.1724,3.1724,3.1724,3.1791,3.1957,3.1814,3.1814,3.1872,3.1877,3.1312,3.0989,3.0504,2.9827,2.9516,2.9494,2.9286,2.9441,2.9779,2.9864,3.002,3.0214,3.0214,3.0238,3.0298,3.0515,3.0805,3.1046,3.1288,3.159,3.1759,3.1807,3.1807,3.1541,3.1083,3.101,3.0367,2.9526,2.8887,2.7594,2.6487,2.5912,2.4463,2.2968,2.2606,2.2243,2.2192,2.1578,2.1475,2.1423,2.1215,2.1111,1.9715,1.9253,1.8118,1.7444,1.7339,1.7031,1.6978,1.6978,1.6978,1.6978,1.6978,1.6978,1.7031,1.7083,1.7136,1.704,1.6996,1.6937,1.6582,1.6327,1.6146,1.6133,1.6133,1.6133,1.6133,1.6133,1.6133,1.6133,1.6133,1.6133,1.6133,1.6133,1.6133,1.6133,1.6133,1.6133,3.3414,3.3414,3.3414,3.3414,3.3414,3.3414,3.3414,3.3414,3.3414,3.3267,3.3013,3.3026,3.2902,3.2621,3.2305,3.2425,3.2692,3.2385,3.238,3.2367,3.2171,3.1931,3.1757,3.1724,3.1724,3.1724,3.1751,3.1805,3.1738,3.1724,3.1724,3.177,3.1888,3.1701,3.1697,3.1847,3.1763,3.1124,3.0708,3.0171,2.9491,2.9298,2.931,2.9284,2.9562,2.9827,2.9948,3.0081,3.0189,3.0214,3.0226,3.0226,3.0383,3.0708,3.089,3.1131,3.1517,3.1626,3.1686,3.1662,3.1505,3.1083,3.1046,2.9637,2.8327,2.7455,2.6149,2.4515,2.3433,2.2036,2.0696,2.0123,1.9506,1.8895,1.8013,1.7856,1.7811,1.7758,1.7804,1.7496,1.7549,1.7136,1.7136,1.7031,1.6978,1.6978,1.6978,1.6978,1.6978,1.6978,1.6978,1.6978,1.7031,1.7031,1.6856,1.67,1.6585,1.6524,1.6286,1.6133,1.6133,1.6133,1.6133,1.6133,1.6133,1.6133,1.6133,1.6133,1.6133,1.6133,1.6133,1.6133,1.6133,1.6133,1.6133,3.3414,3.3414,3.3414,3.3414,3.3414,3.3414,3.3414,3.3414,3.3414,3.3347,3.3267,3.3066,3.2982,3.2888,3.2759,3.2755,3.2728,3.2652,3.2465,3.2318,3.2118,3.1917,3.177,3.1724,3.1724,3.1805,3.1824,3.1877,3.1778,3.1738,3.1824,3.1936,3.1675,3.1439,3.1406,3.1571,3.1127,3.0745,3.0437,2.9896,2.9518,2.9382,2.9344,2.9477,2.9779,3.0008,3.0105,3.0141,3.0214,3.0214,3.0214,3.0214,3.025,3.0539,3.0757,3.0986,3.1155,3.1228,3.1264,3.1409,3.1372,3.1091,3.1038,2.9637,2.8024,2.6407,2.4956,2.277,2.1293,2.0111,1.9119,1.8447,1.8073,1.7601,1.6978,1.6978,1.6978,1.6978,1.6978,1.6978,1.6978,1.6978,1.6978,1.6978,1.6978,1.6978,1.6978,1.6978,1.6978,1.6978,1.6978,1.6978,1.6978,1.6978,1.6876,1.6727,1.6612,1.6483,1.6252,1.6139,1.6133,1.6133,1.6133,1.6133,1.6133,1.6133,1.6133,1.6133,1.6133,1.6133,1.6133,1.6133,1.6133,1.6133,1.6133,3.3414,3.3414,3.3414,3.3414,3.3414,3.3414,3.3414,3.3414,3.3414,3.3414,3.3387,3.324,3.3093,3.2946,3.2875,3.2741,3.2594,3.2407,3.2225,3.2198,3.2011,3.1837,3.1704,3.1738,3.1757,3.1864,3.1984,3.2078,3.1957,3.1864,3.1896,3.1495,3.126,3.1079,3.091,3.0834,3.0627,3.0367,3.012,2.9738,2.9554,2.9513,2.9598,2.9682,3.002,3.0165,3.0214,3.0214,3.0214,3.0214,3.0214,3.0214,3.0262,3.0467,3.0733,3.095,3.1022,3.1046,3.1095,3.1288,3.1203,3.091,3.0334,2.8294,2.6868,2.5262,2.2687,2.0216,1.9419,1.8611,1.7762,1.7071,1.7058,1.7037,1.6985,1.6978,1.6978,1.6978,1.6978,1.6978,1.6978,1.6978,1.6978,1.6978,1.6978,1.6978,1.6978,1.6978,1.6978,1.6978,1.6978,1.6978,1.6978,1.6971,1.6863,1.6754,1.6612,1.6463,1.6252,1.6167,1.6146,1.6133,1.6133,1.6133,1.6133,1.6133,1.6133,1.6133,1.6133,1.6133,1.6133,1.6133,1.6133,1.6133,1.6133,3.3414,3.3414,3.3414,3.3414,3.3414,3.3414,3.3414,3.3414,3.3414,3.3414,3.34,3.34,3.3227,3.2986,3.2848,3.2741,3.2567,3.2326,3.2265,3.2131,3.1944,3.1797,3.177,3.1738,3.1757,3.1971,3.2171,3.227,3.2363,3.2088,3.1599,3.0942,3.0847,3.0597,3.0262,3.0131,2.9935,2.9701,2.9946,2.9958,2.9443,2.9501,2.9803,2.9827,3.0033,3.0214,3.0214,3.0214,3.0214,3.0214,3.0214,3.0214,3.0298,3.0395,3.0672,3.0769,3.0805,3.0817,3.0865,3.1046,3.1083,3.0333,2.8969,2.7007,2.5587,2.388,2.1127,1.8873,1.8011,1.786,1.7223,1.7026,1.7026,1.6998,1.6978,1.6978,1.6978,1.6978,1.6978,1.6978,1.6978,1.6978,1.6978,1.6978,1.6978,1.6978,1.6978,1.6978,1.6978,1.6978,1.6978,1.6978,1.6978,1.6971,1.691,1.6788,1.6567,1.6442,1.6266,1.6137,1.6103,1.6139,1.6133,1.6133,1.6133,1.6133,1.6133,1.6133,1.6133,1.6133,1.6133,1.6133,1.6133,1.6133,1.6133,3.3414,3.3414,3.3414,3.3414,3.3414,3.3414,3.3414,3.3414,3.3414,3.3414,3.3414,3.3387,3.324,3.2946,3.2902,3.2835,3.2701,3.2407,3.2581,3.2425,3.2185,3.1944,3.1917,3.1757,3.177,3.1952,3.2171,3.2372,3.2168,3.1873,3.1412,3.0696,3.0424,3.0066,2.9686,2.953,2.9347,2.92,2.9685,2.9845,2.9454,2.955,2.9803,2.9888,3.0057,3.0202,3.0214,3.0214,3.0214,3.0214,3.0214,3.0214,3.0226,3.0286,3.0334,3.0395,3.0467,3.0479,3.0552,3.0721,3.0805,3.0186,2.8756,2.6588,2.4518,2.2431,2.03,1.8206,1.7058,1.7065,1.7058,1.7026,1.7039,1.7005,1.6978,1.6978,1.6978,1.6978,1.6978,1.6978,1.6978,1.6978,1.6978,1.6978,1.6978,1.6978,1.6978,1.6978,1.6978,1.6978,1.6978,1.6978,1.6978,1.6965,1.6924,1.6829,1.6601,1.65,1.6415,1.6273,1.6123,1.609,1.6133,1.6133,1.6133,1.6133,1.6133,1.6133,1.6133,1.6133,1.6133,1.6133,1.6133,1.6133,1.6133,3.3026,3.304,3.3173,3.3213,3.324,3.3347,3.3414,3.3414,3.3414,3.3414,3.3414,3.3387,3.3187,3.2839,3.2835,3.2599,3.2554,3.242,3.2345,3.2358,3.2358,3.2144,3.1984,3.1824,3.1851,3.2005,3.2291,3.2363,3.1848,3.1587,3.1107,3.025,2.9821,2.9679,2.937,2.9237,2.9091,2.9043,2.9634,2.9695,2.9513,2.9731,2.996,3.0057,3.0117,3.0214,3.0214,3.0214,3.0214,3.0214,3.0214,3.0214,3.0214,3.0238,3.0226,3.0238,3.025,3.0214,3.0235,3.0317,3.0485,2.9803,2.7542,2.4927,2.3817,2.1708,1.9031,1.7099,1.7093,1.71,1.7046,1.7046,1.7039,1.7012,1.6992,1.6978,1.6978,1.6978,1.6978,1.6978,1.6978,1.6978,1.6978,1.6978,1.6978,1.6978,1.6978,1.6978,1.6978,1.6978,1.6978,1.6978,1.6978,1.6978,1.6958,1.6842,1.6635,1.6547,1.653,1.6388,1.6232,1.6137,1.6133,1.6133,1.6133,1.6133,1.6133,1.6133,1.6133,1.6133,1.6133,1.6133,1.6133,1.6133,1.6133,3.2607,3.2634,3.2875,3.3009,3.3,3.3187,3.3307,3.3334,3.3307,3.328,3.324,3.3253,3.2973,3.2741,3.2514,3.2166,3.1971,3.2144,3.2158,3.2225,3.2158,3.2104,3.1998,3.1837,3.1891,3.1998,3.2238,3.1816,3.1231,3.112,3.0689,2.9604,2.9403,2.9419,2.9371,2.9344,2.9248,2.9344,2.9622,2.9731,2.9803,2.9936,3.0105,3.0189,3.0214,3.0214,3.0214,3.0214,3.0214,3.025,3.0274,3.031,3.0322,3.0322,3.025,3.0199,2.9491,2.9694,2.9996,2.9809,2.9888,2.9026,2.5886,2.3877,2.2827,2.0612,1.7932,1.7126,1.7127,1.7127,1.7066,1.7039,1.7026,1.7019,1.6992,1.6978,1.6978,1.6978,1.6978,1.6978,1.6978,1.6978,1.6978,1.6978,1.6978,1.6978,1.6978,1.6978,1.6978,1.6978,1.6978,1.6978,1.6978,1.6978,1.6971,1.6863,1.6662,1.6588,1.6564,1.6456,1.6334,1.6185,1.6139,1.6133,1.6133,1.6133,1.6133,1.6133,1.6133,1.6133,1.6133,1.6133,1.6133,1.6133,1.6133,3.2594,3.2607,3.2661,3.2808,3.2919,3.2799,3.2888,3.3,3.2862,3.2768,3.2808,3.2768,3.2661,3.2581,3.2278,3.2038,3.1957,3.2051,3.2278,3.2474,3.2185,3.2118,3.2011,3.1872,3.1891,3.1957,3.1915,3.1417,3.0866,3.0811,3.0229,2.8933,2.9527,2.9444,2.9128,2.9151,2.9236,2.9369,2.9393,2.9453,2.9791,2.9948,3.0153,3.0214,3.0214,3.0214,3.0214,3.0214,3.0214,3.0274,3.0371,3.0443,3.0443,3.0368,3.0194,2.9362,2.8665,2.8552,2.8711,2.8479,2.8353,2.7663,2.4908,2.3135,2.1584,1.9333,1.753,1.7065,1.7039,1.7039,1.6998,1.6998,1.6992,1.6992,1.6978,1.6978,1.6978,1.6978,1.6978,1.6978,1.6978,1.6978,1.6978,1.6978,1.6978,1.6978,1.6978,1.6978,1.6978,1.6978,1.6978,1.6978,1.6978,1.6978,1.6971,1.6876,1.6702,1.6635,1.6578,1.6422,1.6286,1.6178,1.616,1.6139,1.6133,1.6133,1.6133,1.6133,1.6133,1.6133,1.6133,1.6133,1.6133,1.6133,1.6133]},{"header":{"parameterUnit":"m.s-1","parameterCategory":1,"la1":31.0,"la2":29.5877,"lo1":-88.7671,"lo2":-86.6584,"dy":0.0162,"dx":0.0185,"nx":115,"ny":88,"refTime":"2024-10-02T12:00:00:Z","depth":0,"parameterNumber":3,"parameterNumberName":"V-component_of_WINDS"},"data":[0.0,0.0,0.0,0.0,0.0,0.0,0.0,0.0,0.0,0.0,0.0,0.0,0.0,0.0,0.0,0.0,0.0,0.0,0.0,0.0,0.0,0.0,0.0,0.0,0.0,0.0,0.0,0.0,0.0,0.0,0.0,0.0,0.0,0.0,0.0,0.0,0.0,0.0,0.0,0.0,0.0,0.0,0.0,0.0,0.0,0.0,0.0,0.0,0.0,0.0,0.0,0.0,0.0,0.0,0.0,0.0,0.0,0.0,0.0,0.0,0.0,0.0,0.0,0.0,0.0,0.0,0.0,0.0,0.0,0.0,0.0,0.0,0.0,0.0,0.0,0.0,0.0,0.0,0.0,0.0,0.0,0.0,0.0,0.0,0.0,0.0,0.0,0.0,0.0,0.0,0.0,0.0,0.0,0.0,0.0,0.0,0.0,0.0,0.0,0.0,0.0,0.0,0.0,0.0,0.0,0.0,0.0,0.0,0.0,0.0,0.0,0.0,0.0,0.0,0.0,0.0,0.0,0.0,0.0,0.0,0.0,0.0,0.0,0.0,0.0,0.0,0.0,0.0,0.0,0.0,0.0,0.0,0.0,0.0,0.0,0.0,0.0,0.0,0.0,0.0,0.0,0.0,0.0,0.0,0.0,0.0,0.0,0.0,0.0,0.0,0.0,0.0,0.0,0.0,0.0,0.0,0.0,0.0,0.0,0.0,0.0,0.0,0.0,0.0,0.0,0.0,0.0,0.0,0.0,0.0,0.0,0.0,0.0,0.0,0.0,0.0,0.0,0.0,0.0,0.0,0.0,0.0,0.0,0.0,0.0,0.0,0.0,0.0,0.0,0.0,0.0,0.0,0.0,0.0,0.0,0.0,0.0,0.0,0.0,0.0,0.0,0.0,0.0,0.0,0.0,0.0,0.0,0.0,0.0,0.0,0.0,0.0,0.0,0.0,0.0,0.0,0.0,0.0,0.0,0.0,0.0,0.0,0.0,0.0,0.0,0.0,0.0,0.0,0.0,0.0,0.0,0.0,0.0,0.0,0.0,0.0,0.0,0.0,0.0,0.0,0.0,0.0,0.0,0.0,0.0,0.0,0.0,0.0,0.0,0.0,0.0,0.0,0.0,0.0,0.0,0.0,0.0,0.0,0.0,0.0,0.0,0.0,0.0,0.0,0.0,0.0,0.0,0.0,0.0,0.0,0.0,0.0,0.0,0.0,0.0,0.0,0.0,0.0,0.0,0.0,0.0,0.0,0.0,0.0,0.0,0.0,0.0,0.0,0.0,0.0,0.0,0.0,0.0,0.0,0.0,0.0,0.0,0.0,0.0,0.0,0.0,0.0,0.0,0.0,0.0,0.0,0.0,0.0,0.0,0.0,0.0,0.0,0.0,0.0,0.0,0.0,0.0,0.0,0.0,0.0,0.0,0.0,0.0,0.0,0.0,0.0,0.0,0.0,0.0,0.0,0.0,0.0,0.0,0.0,0.0,0.0,0.0,0.0,0.0,0.0,0.0,0.0,0.0,0.0,0.0,0.0,0.0,0.0,0.0,0.0,0.0,0.0,0.0,0.0,0.0,0.0,0.0,0.0,0.0,0.0,0.0,0.0,0.0,0.0,0.0,0.0,0.0,0.0,0.0,0.0,0.0,0.0,0.0,0.0,0.0,0.0,0.0,0.0,0.0,0.0,0.0,0.0,0.0,0.0,0.0,0.0,0.0,0.0,0.0,0.0,0.0,0.0,0.0,0.0,0.0,0.0,0.0,0.0,0.0,0.0,0.0,0.0,0.0,0.0,0.0,0.0,0.0,0.0,0.0,0.0,0.0,0.0,0.0,0.0,0.0,0.0,0.0,0.0,0.0,0.0,0.0,0.0,0.0,0.0,0.0,0.0,0.0,0.0,0.0,0.0,0.0,0.0,0.0,0.0,0.0,0.0,0.0,0.0,0.0,0.0,0.0,0.0,0.0,0.0,0.0,0.0,0.0,0.0,0.0,0.0,0.0,0.0,0.0,0.0,0.0,0.0,0.0,0.0,0.0,0.0,0.0,0.0,0.0,0.0,0.0,0.0,0.0,0.0,0.0,0.0,0.0,0.0,0.0,0.0,0.0,0.0,0.0,0.0,0.0,0.0,0.0,0.0,0.0,0.0,0.0,0.0,0.0,0.0,0.0,0.0,0.0,0.0,0.0,0.0,0.0,0.0,0.0,0.0,0.0,0.0,0.0,0.0,0.0,0.0,0.0,0.0,0.0,0.0,0.0,0.0,0.0,0.0,0.0,0.0,0.0,0.0,0.0,0.0,0.0,0.0,0.0,0.0,0.0,0.0,0.0,0.0,0.0,0.0,0.0,0.0,0.0,0.0,0.0,0.0,0.0,0.0,0.0,0.0,0.0,0.0,0.0,0.0,0.0,0.0,0.0,0.0,0.0,0.0,0.0,0.0,0.0,0.0,0.0,0.0,0.0,0.0,0.0,0.0,0.0,0.0,0.0,0.0,0.0,0.0,0.0,0.0,0.0,0.0,0.0,0.0,0.0,0.0,0.0,0.0,0.0,0.0,0.0,0.0,0.0,0.0,0.0,0.0,0.0,0.0,0.0,0.0,0.0,0.0,0.0,0.0,0.0,0.0,0.0,0.0,0.0,0.0,0.0,0.0,0.0,0.0,0.0,0.0,0.0,0.0,0.0,0.0,0.0,0.0,0.0,0.0,0.0,0.0,0.0,0.0,0.0,0.0,0.0,0.0,0.0,0.0,0.0,0.0,0.0,0.0,0.0,0.0,0.0,0.0,0.0,0.0,0.0,0.0,0.0,0.0,0.0,0.0,0.0,0.0,0.0,0.0,0.0,0.0,0.0,0.0,0.0,0.0,0.0,0.0,0.0,0.0,0.0,0.0,0.0,0.0,0.0,0.0,0.0,0.0,0.0,0.0,0.0,0.0,0.0,0.0,0.0,0.0,0.0,0.0,0.0,0.0,0.0,0.0,0.0,0.0,0.0,0.0,0.0,0.0,0.0,0.0,0.0,0.0,0.0,0.0,0.0,0.0,0.0,0.0,0.0,0.0,0.0,0.0,0.0,0.0,0.0,0.0,0.0,0.0,0.0,0.0,0.0,0.0,0.0,0.0,0.0,0.0,0.0,0.0,0.0,0.0,0.0,0.0,0.0,0.0,0.0,0.0,0.0,0.0,0.0,0.0,0.0,0.0,0.0,0.0,0.0,0.0,0.0,0.0,0.0,0.0,0.0,0.0,0.0,0.0,0.0,0.0,0.0,0.0,0.0,0.0,0.0,0.0,0.0,0.0,0.0,0.0,0.0,0.0,0.0,0.0,0.0,0.0,0.0,0.0,0.0,0.0,0.0,0.0,0.0,0.0,0.0,0.0,0.0,0.0,0.0,0.0,0.0,0.0,0.0,0.0,0.0,0.0,0.0,0.0,0.0,0.0,0.0,0.0,0.0,0.0,0.0,0.0,0.0,0.0,0.0,0.0,0.0,0.0,0.0,0.0,0.0,0.0,0.0,0.0,0.0,0.0,0.0,0.0,0.0,0.0,0.0,0.0,0.0,0.0,0.0,0.0,0.0,0.0,0.0,0.0,0.0,0.0,0.0,0.0,0.0,0.0,0.0,0.0,0.0,0.0,0.0,0.0,0.0,0.0,0.0,0.0,0.0,0.0,0.0,0.0,0.0,0.0,0.0,0.0,0.0,0.0,0.0,0.0,0.0,0.0,0.0,0.0,0.0,0.0,0.0,0.0,0.0,0.0,0.0,0.0,0.0,0.0,0.0,0.0,0.0,0.0,0.0,0.0,0.0,0.0,0.0,0.0,0.0,0.0,0.0,0.0,0.0,0.0,0.0,0.0,0.0,0.0,0.0,0.0,0.0,0.0,0.0,0.0,0.0,0.0,0.0,0.0,0.0,0.0,0.0,0.0,0.0,0.0,0.0,0.0,0.0,0.0,0.0,0.0,0.0,0.0,0.0,0.0,0.0,0.0,0.0,0.0,0.0,0.0,0.0,0.0,0.0,0.0,0.0,0.0,0.0,0.0,0.0,0.0,0.0,0.0,0.0,0.0,0.0,0.0,0.0,0.0,0.0,0.0,0.0,0.0,0.0,0.0,0.0,0.0,0.0,0.0,0.0,0.0,0.0,0.0,0.0,0.0,0.0,0.0,0.0,0.0,0.0,0.0,0.0,0.0,0.0,0.0,0.0,0.0,0.0,0.0,0.0,0.0,0.0,0.0,0.0,0.0,0.0,0.0,0.0,0.0,0.0,0.0,0.0,0.0,3.1411,0.0,0.0,0.0,0.0,0.0,0.0,0.0,0.0,0.0,0.0,0.0,0.0,0.0,0.0,0.0,0.0,0.0,0.0,0.0,0.0,0.0,0.0,0.0,0.0,0.0,0.0,0.0,0.0,0.0,0.0,0.0,0.0,0.0,0.0,0.0,0.0,0.0,0.0,0.0,0.0,0.0,0.0,0.0,0.0,0.0,0.0,0.0,0.0,0.0,0.0,0.0,0.0,0.0,0.0,0.0,0.0,0.0,0.0,0.0,0.0,0.0,0.0,0.0,0.0,0.0,0.0,0.0,0.0,0.0,0.0,0.0,0.0,0.0,0.0,0.0,0.0,0.0,0.0,0.0,0.0,0.0,0.0,0.0,0.0,0.0,0.0,0.0,0.0,0.0,0.0,0.0,0.0,0.0,0.0,0.0,0.0,0.0,0.0,0.0,0.0,0.0,0.0,0.0,0.0,0.0,0.0,0.0,0.0,0.0,0.0,3.2427,3.2427,3.2427,3.2273,3.1965,0.0,0.0,0.0,0.0,0.0,0.0,0.0,0.0,0.0,0.0,0.0,0.0,0.0,0.0,0.0,0.0,0.0,0.0,0.0,0.0,0.0,0.0,0.0,0.0,0.0,0.0,0.0,0.0,0.0,0.0,0.0,0.0,0.0,0.0,0.0,0.0,0.0,0.0,0.0,0.0,0.0,0.0,0.0,0.0,0.0,0.0,0.0,0.0,0.0,0.0,0.0,0.0,0.0,0.0,0.0,0.0,0.0,0.0,0.0,0.0,0.0,0.0,0.0,0.0,0.0,0.0,0.0,0.0,0.0,0.0,0.0,0.0,0.0,0.0,0.0,0.0,0.0,0.0,0.0,0.0,0.0,0.0,0.0,0.0,0.0,0.0,0.0,0.0,0.0,0.0,0.0,0.0,0.0,0.0,0.0,0.0,0.0,0.0,0.0,0.0,0.0,0.0,0.0,0.0,0.0,0.0,0.0,0.0,0.0,0.0,0.0,0.0,3.2889,3.2796,3.2642,0.0,0.0,0.0,0.0,0.0,0.0,0.0,0.0,0.0,0.0,0.0,0.0,0.0,0.0,0.0,0.0,0.0,0.0,0.0,0.0,0.0,0.0,0.0,0.0,0.0,0.0,0.0,0.0,0.0,0.0,0.0,0.0,0.0,0.0,0.0,0.0,0.0,0.0,0.0,0.0,0.0,0.0,0.0,0.0,0.0,0.0,0.0,0.0,0.0,0.0,0.0,0.0,0.0,0.0,0.0,0.0,0.0,0.0,0.0,0.0,0.0,0.0,0.0,0.0,0.0,0.0,0.0,0.0,0.0,0.0,0.0,0.0,0.0,0.0,0.0,0.0,0.0,0.0,0.0,0.0,0.0,0.0,0.0,0.0,0.0,0.0,0.0,0.0,0.0,0.0,0.0,0.0,0.0,0.0,0.0,0.0,0.0,0.0,0.0,0.0,0.0,0.0,0.0,0.0,0.0,0.0,0.0,0.0,0.0,0.0,3.2998,3.4258,3.4289,0.0,3.3367,0.0,0.0,0.0,0.0,0.0,0.0,0.0,0.0,0.0,0.0,0.0,0.0,0.0,0.0,0.0,0.0,0.0,0.0,0.0,0.0,0.0,0.0,0.0,0.0,0.0,0.0,0.0,0.0,0.0,0.0,0.0,0.0,0.0,0.0,0.0,0.0,0.0,0.0,0.0,0.0,0.0,0.0,0.0,0.0,0.0,0.0,0.0,0.0,0.0,0.0,0.0,0.0,0.0,0.0,0.0,0.0,0.0,0.0,0.0,0.0,0.0,0.0,0.0,0.0,0.0,0.0,0.0,0.0,0.0,0.0,0.0,0.0,0.0,0.0,0.0,0.0,0.0,0.0,0.0,0.0,0.0,0.0,0.0,0.0,0.0,0.0,0.0,0.0,0.0,0.0,0.0,0.0,0.0,0.0,0.0,0.0,0.0,0.0,0.0,0.0,0.0,0.0,0.0,0.0,0.0,0.0,0.0,0.0,0.0,0.0,3.3905,3.4474,3.4059,3.3706,0.0,0.0,0.0,0.0,0.0,0.0,0.0,0.0,0.0,0.0,0.0,0.0,0.0,0.0,0.0,0.0,0.0,0.0,0.0,0.0,0.0,0.0,0.0,0.0,0.0,0.0,0.0,0.0,0.0,0.0,0.0,0.0,0.0,0.0,0.0,0.0,0.0,0.0,0.0,0.0,0.0,0.0,0.0,0.0,0.0,0.0,0.0,0.0,0.0,0.0,0.0,0.0,0.0,0.0,0.0,0.0,0.0,0.0,0.0,0.0,0.0,0.0,0.0,0.0,0.0,0.0,0.0,0.0,0.0,0.0,0.0,0.0,0.0,0.0,0.0,0.0,0.0,0.0,0.0,0.0,0.0,0.0,0.0,0.0,0.0,0.0,0.0,0.0,0.0,0.0,0.0,0.0,0.0,0.0,0.0,0.0,0.0,0.0,0.0,0.0,0.0,0.0,0.0,0.0,0.0,0.0,0.0,0.0,0.0,0.0,3.4182,0.0,3.4751,3.426,3.3614,3.2889,0.0,0.0,0.0,0.0,0.0,0.0,0.0,0.0,0.0,0.0,0.0,0.0,0.0,0.0,0.0,0.0,0.0,0.0,0.0,0.0,0.0,0.0,0.0,0.0,0.0,0.0,0.0,0.0,0.0,0.0,0.0,0.0,0.0,0.0,0.0,0.0,0.0,0.0,0.0,0.0,0.0,0.0,0.0,0.0,0.0,0.0,0.0,0.0,0.0,0.0,0.0,0.0,0.0,0.0,0.0,0.0,0.0,0.0,0.0,0.0,0.0,0.0,0.0,0.0,0.0,0.0,0.0,0.0,0.0,0.0,0.0,0.0,0.0,0.0,0.0,0.0,0.0,0.0,0.0,0.0,0.0,0.0,0.0,0.0,0.0,0.0,0.0,0.0,0.0,0.0,0.0,0.0,0.0,0.0,0.0,0.0,0.0,0.0,0.0,0.0,0.0,0.0,0.0,0.0,0.0,0.0,0.0,0.0,0.0,3.509,3.4813,3.5445,3.5414,3.4182,0.0,0.0,0.0,0.0,0.0,0.0,0.0,0.0,0.0,0.0,0.0,0.0,0.0,0.0,0.0,0.0,0.0,0.0,0.0,0.0,0.0,0.0,0.0,0.0,0.0,0.0,0.0,0.0,0.0,0.0,0.0,0.0,0.0,0.0,0.0,0.0,0.0,0.0,0.0,0.0,0.0,0.0,0.0,0.0,0.0,0.0,0.0,0.0,0.0,0.0,0.0,0.0,0.0,0.0,0.0,0.0,0.0,0.0,0.0,0.0,0.0,0.0,0.0,0.0,0.0,0.0,0.0,0.0,0.0,0.0,0.0,0.0,0.0,0.0,0.0,0.0,0.0,0.0,0.0,0.0,0.0,0.0,0.0,0.0,0.0,0.0,0.0,0.0,0.0,0.0,0.0,0.0,0.0,0.0,0.0,0.0,0.0,0.0,0.0,0.0,0.0,0.0,0.0,0.0,0.0,0.0,0.0,0.0,0.0,3.3227,3.4059,3.5229,3.663,3.4675,3.3258,0.0,0.0,0.0,0.0,0.0,0.0,0.0,0.0,0.0,0.0,0.0,0.0,0.0,0.0,0.0,0.0,0.0,0.0,0.0,0.0,0.0,0.0,0.0,0.0,0.0,0.0,0.0,0.0,0.0,0.0,0.0,0.0,0.0,0.0,0.0,0.0,0.0,0.0,0.0,0.0,0.0,0.0,0.0,0.0,0.0,0.0,0.0,0.0,0.0,0.0,0.0,0.0,0.0,0.0,0.0,0.0,0.0,0.0,0.0,0.0,0.0,0.0,0.0,0.0,0.0,0.0,0.0,0.0,0.0,0.0,0.0,0.0,0.0,0.0,0.0,0.0,0.0,0.0,0.0,0.0,0.0,0.0,0.0,0.0,0.0,0.0,0.0,0.0,0.0,0.0,0.0,0.0,0.0,0.0,0.0,0.0,0.0,0.0,0.0,0.0,0.0,0.0,0.0,0.0,0.0,0.0,0.0,0.0,0.0,3.2427,0.0,3.5845,0.0,3.409,3.2536,0.0,0.0,0.0,0.0,0.0,0.0,0.0,0.0,0.0,0.0,0.0,0.0,0.0,0.0,0.0,0.0,0.0,0.0,0.0,0.0,0.0,0.0,0.0,0.0,0.0,0.0,0.0,0.0,0.0,0.0,0.0,0.0,0.0,0.0,0.0,0.0,0.0,0.0,0.0,0.0,0.0,0.0,0.0,0.0,0.0,0.0,0.0,0.0,0.0,0.0,0.0,0.0,0.0,0.0,0.0,0.0,0.0,0.0,0.0,0.0,0.0,0.0,0.0,0.0,0.0,0.0,0.0,0.0,0.0,0.0,0.0,0.0,0.0,0.0,0.0,0.0,0.0,0.0,0.0,0.0,0.0,0.0,0.0,0.0,0.0,0.0,0.0,0.0,0.0,0.0,0.0,0.0,0.0,0.0,0.0,0.0,0.0,0.0,0.0,0.0,0.0,0.0,0.0,0.0,0.0,0.0,0.0,0.0,3.2427,3.4382,3.6322,3.6476,3.4659,3.3813,3.2153,0.0,0.0,0.0,0.0,0.0,0.0,0.0,0.0,0.0,0.0,0.0,0.0,0.0,0.0,0.0,0.0,0.0,0.0,0.0,0.0,0.0,0.0,0.0,0.0,0.0,0.0,0.0,0.0,0.0,0.0,0.0,0.0,0.0,0.0,0.0,0.0,0.0,0.0,0.0,0.0,0.0,0.0,0.0,0.0,0.0,0.0,0.0,0.0,0.0,0.0,0.0,0.0,0.0,0.0,0.0,0.0,0.0,0.0,0.0,0.0,0.0,0.0,0.0,0.0,0.0,0.0,0.0,0.0,0.0,0.0,0.0,0.0,0.0,0.0,0.0,0.0,0.0,0.0,0.0,0.0,0.0,0.0,0.0,0.0,0.0,0.0,0.0,0.0,0.0,0.0,0.0,0.0,0.0,0.0,0.0,0.0,0.0,0.0,0.0,0.0,0.0,0.0,0.0,0.0,0.0,0.0,0.0,0.0,0.0,3.3104,3.5075,3.6276,3.6492,3.4044,3.2998,0.0,0.0,0.0,0.0,0.0,0.0,0.0,0.0,0.0,0.0,0.0,0.0,0.0,0.0,0.0,0.0,0.0,0.0,0.0,0.0,0.0,0.0,0.0,0.0,0.0,0.0,0.0,0.0,0.0,0.0,0.0,0.0,0.0,0.0,0.0,0.0,0.0,0.0,0.0,0.0,0.0,0.0,0.0,0.0,0.0,0.0,0.0,0.0,0.0,0.0,0.0,0.0,0.0,0.0,0.0,0.0,0.0,0.0,0.0,0.0,0.0,0.0,0.0,0.0,0.0,0.0,0.0,0.0,0.0,0.0,0.0,0.0,0.0,0.0,0.0,0.0,0.0,0.0,0.0,0.0,0.0,0.0,0.0,0.0,0.0,0.0,0.0,0.0,0.0,0.0,0.0,0.0,0.0,0.0,0.0,0.0,0.0,0.0,0.0,0.0,0.0,0.0,0.0,0.0,0.0,0.0,0.0,0.0,0.0,3.4798,3.6415,3.74,3.7492,3.4952,3.3798,3.4275,0.0,0.0,0.0,0.0,0.0,0.0,0.0,0.0,0.0,0.0,0.0,0.0,0.0,0.0,0.0,0.0,0.0,0.0,0.0,0.0,0.0,0.0,0.0,0.0,0.0,0.0,0.0,0.0,0.0,0.0,0.0,0.0,0.0,0.0,0.0,0.0,0.0,0.0,0.0,0.0,0.0,0.0,0.0,0.0,0.0,0.0,0.0,0.0,0.0,0.0,0.0,0.0,0.0,0.0,0.0,0.0,0.0,0.0,0.0,0.0,0.0,0.0,0.0,0.0,0.0,0.0,0.0,0.0,0.0,0.0,0.0,0.0,0.0,0.0,0.0,0.0,0.0,0.0,0.0,0.0,0.0,0.0,0.0,0.0,0.0,0.0,0.0,0.0,0.0,0.0,0.0,0.0,0.0,0.0,0.0,0.0,0.0,0.0,0.0,0.0,0.0,0.0,0.0,0.0,0.0,0.0,0.0,0.0,3.8662,4.0061,3.9845,3.7954,3.6461,3.4767,0.0,0.0,0.0,0.0,0.0,0.0,0.0,0.0,0.0,0.0,0.0,0.0,0.0,0.0,0.0,0.0,0.0,0.0,0.0,0.0,0.0,0.0,0.0,0.0,0.0,0.0,0.0,0.0,0.0,0.0,0.0,0.0,0.0,0.0,0.0,0.0,0.0,0.0,0.0,0.0,0.0,0.0,0.0,0.0,0.0,0.0,0.0,0.0,0.0,0.0,0.0,0.0,0.0,0.0,0.0,0.0,0.0,0.0,0.0,0.0,0.0,0.0,0.0,0.0,0.0,0.0,0.0,0.0,0.0,0.0,0.0,0.0,0.0,0.0,0.0,0.0,0.0,0.0,0.0,0.0,0.0,0.0,0.0,0.0,0.0,0.0,0.0,0.0,0.0,0.0,0.0,0.0,0.0,0.0,0.0,0.0,0.0,0.0,0.0,0.0,0.0,0.0,0.0,0.0,0.0,0.0,0.0,0.0,0.0,4.0816,4.3063,4.3544,4.2004,3.9216,3.7461,0.0,0.0,0.0,0.0,0.0,0.0,0.0,0.0,0.0,0.0,0.0,0.0,0.0,0.0,0.0,0.0,0.0,0.0,0.0,0.0,0.0,0.0,0.0,0.0,0.0,0.0,0.0,0.0,0.0,0.0,0.0,0.0,0.0,0.0,0.0,0.0,0.0,0.0,0.0,0.0,0.0,0.0,0.0,0.0,0.0,0.0,0.0,0.0,0.0,0.0,0.0,0.0,0.0,0.0,0.0,0.0,0.0,0.0,0.0,0.0,0.0,0.0,0.0,0.0,0.0,0.0,0.0,0.0,0.0,0.0,0.0,0.0,0.0,0.0,0.0,0.0,0.0,0.0,0.0,0.0,0.0,0.0,0.0,0.0,0.0,0.0,0.0,0.0,0.0,0.0,0.0,0.0,0.0,0.0,0.0,0.0,0.0,0.0,0.0,0.0,0.0,0.0,0.0,0.0,0.0,0.0,0.0,0.0,4.1186,4.2848,4.5464,4.6357,4.5299,4.2281,3.9677,0.0,0.0,0.0,0.0,0.0,0.0,0.0,0.0,0.0,0.0,0.0,0.0,0.0,0.0,0.0,0.0,0.0,0.0,0.0,0.0,0.0,0.0,0.0,0.0,0.0,0.0,0.0,0.0,0.0,0.0,0.0,0.0,0.0,0.0,0.0,0.0,0.0,0.0,0.0,0.0,0.0,0.0,0.0,0.0,0.0,0.0,0.0,0.0,0.0,0.0,0.0,0.0,0.0,0.0,0.0,0.0,0.0,0.0,0.0,0.0,0.0,0.0,0.0,0.0,0.0,0.0,0.0,0.0,0.0,0.0,0.0,0.0,0.0,0.0,0.0,0.0,0.0,0.0,0.0,0.0,0.0,0.0,0.0,0.0,0.0,0.0,0.0,0.0,0.0,0.0,0.0,0.0,0.0,0.0,0.0,0.0,0.0,0.0,0.0,0.0,0.0,0.0,0.0,0.0,0.0,0.0,0.0,0.0,4.2725,4.4683,4.725,4.8245,4.7558,4.5053,4.1573,0.0,0.0,0.0,0.0,0.0,0.0,0.0,0.0,0.0,0.0,0.0,0.0,0.0,0.0,0.0,0.0,0.0,0.0,0.0,0.0,0.0,0.0,0.0,0.0,0.0,0.0,0.0,0.0,0.0,0.0,0.0,0.0,0.0,0.0,0.0,0.0,0.0,0.0,0.0,0.0,0.0,0.0,0.0,0.0,0.0,0.0,0.0,0.0,0.0,0.0,0.0,0.0,0.0,0.0,0.0,0.0,0.0,0.0,0.0,0.0,0.0,0.0,0.0,0.0,0.0,0.0,0.0,0.0,0.0,0.0,0.0,0.0,0.0,0.0,0.0,0.0,0.0,0.0,0.0,0.0,0.0,0.0,0.0,0.0,0.0,0.0,0.0,0.0,0.0,0.0,0.0,0.0,0.0,0.0,0.0,0.0,0.0,0.0,0.0,0.0,0.0,0.0,0.0,0.0,0.0,0.0,0.0,0.0,4.3882,4.5361,4.7496,4.8276,4.7599,4.5495,4.2879,0.0,0.0,0.0,0.0,0.0,0.0,0.0,0.0,0.0,0.0,0.0,0.0,0.0,0.0,0.0,0.0,0.0,0.0,0.0,0.0,0.0,0.0,0.0,0.0,0.0,0.0,0.0,0.0,0.0,0.0,0.0,0.0,0.0,0.0,0.0,0.0,0.0,0.0,0.0,0.0,0.0,0.0,0.0,0.0,0.0,0.0,0.0,0.0,3.7929,0.0,0.0,0.0,0.0,0.0,0.0,0.0,0.0,0.0,0.0,0.0,0.0,0.0,0.0,0.0,0.0,0.0,0.0,0.0,0.0,0.0,0.0,0.0,0.0,0.0,0.0,0.0,0.0,0.0,0.0,0.0,0.0,0.0,0.0,0.0,0.0,0.0,0.0,0.0,0.0,0.0,0.0,0.0,0.0,0.0,0.0,0.0,0.0,0.0,0.0,0.0,0.0,0.0,0.0,0.0,0.0,0.0,0.0,0.0,4.4868,4.6511,4.7876,4.843,4.805,4.6419,4.3956,0.0,0.0,0.0,0.0,0.0,0.0,0.0,0.0,0.0,0.0,0.0,0.0,0.0,0.0,0.0,0.0,0.0,0.0,0.0,0.0,0.0,0.0,0.0,0.0,0.0,0.0,0.0,0.0,0.0,0.0,0.0,0.0,0.0,0.0,0.0,0.0,0.0,0.0,0.0,0.0,0.0,0.0,0.0,0.0,0.0,0.0,0.0,0.0,0.0,0.0,0.0,0.0,0.0,0.0,0.0,0.0,0.0,0.0,0.0,0.0,0.0,0.0,0.0,0.0,0.0,0.0,0.0,0.0,0.0,0.0,0.0,0.0,0.0,0.0,0.0,0.0,0.0,0.0,0.0,0.0,0.0,0.0,0.0,0.0,0.0,0.0,0.0,0.0,0.0,0.0,0.0,0.0,0.0,0.0,0.0,0.0,0.0,0.0,0.0,0.0,0.0,0.0,0.0,0.0,0.0,0.0,0.0,4.3371,4.5515,4.7681,4.8307,4.8583,4.8583,4.7311,4.4756,4.083,0.0,0.0,0.0,0.0,0.0,0.0,0.0,0.0,0.0,0.0,0.0,0.0,0.0,0.0,0.0,0.0,0.0,0.0,0.0,0.0,0.0,0.0,0.0,0.0,0.0,0.0,0.0,0.0,0.0,0.0,0.0,0.0,0.0,0.0,0.0,0.0,0.0,0.0,3.5201,3.7436,0.0,0.0,0.0,0.0,0.0,0.0,0.0,0.0,3.9902,0.0,0.0,0.0,0.0,0.0,0.0,0.0,0.0,0.0,0.0,0.0,0.0,0.0,0.0,0.0,0.0,0.0,0.0,0.0,0.0,0.0,0.0,0.0,0.0,0.0,0.0,0.0,0.0,0.0,0.0,0.0,0.0,0.0,0.0,0.0,0.0,0.0,0.0,0.0,0.0,0.0,0.0,0.0,0.0,0.0,0.0,0.0,0.0,0.0,0.0,0.0,0.0,0.0,0.0,0.0,0.0,4.4683,4.4098,4.5268,4.8337,4.8553,4.8583,4.8553,4.7311,4.4972,4.1568,0.0,0.0,0.0,0.0,0.0,0.0,0.0,0.0,0.0,0.0,0.0,0.0,0.0,0.0,0.0,0.0,0.0,0.0,0.0,0.0,0.0,0.0,0.0,0.0,0.0,0.0,0.0,0.0,0.0,0.0,0.0,0.0,0.0,0.0,0.0,0.0,0.0,0.0,0.0,3.9904,4.0956,0.0,0.0,0.0,0.0,0.0,0.0,0.0,0.0,4.0538,0.0,0.0,0.0,0.0,0.0,0.0,0.0,0.0,0.0,0.0,0.0,0.0,0.0,0.0,0.0,0.0,0.0,0.0,0.0,0.0,0.0,0.0,0.0,0.0,0.0,0.0,0.0,0.0,0.0,0.0,0.0,0.0,0.0,0.0,0.0,0.0,0.0,0.0,0.0,0.0,0.0,0.0,0.0,0.0,0.0,0.0,0.0,0.0,0.0,0.0,0.0,0.0,0.0,0.0,0.0,4.3833,4.5114,4.6634,4.8491,4.8583,4.8583,4.8522,4.6315,4.3771,0.0,0.0,0.0,0.0,0.0,0.0,0.0,0.0,0.0,0.0,0.0,0.0,0.0,0.0,0.0,0.0,0.0,0.0,0.0,0.0,0.0,0.0,0.0,0.0,0.0,0.0,0.0,0.0,0.0,0.0,0.0,0.0,0.0,0.0,0.0,0.0,0.0,0.0,0.0,0.0,4.0843,4.1673,4.1747,0.0,0.0,0.0,0.0,0.0,0.0,4.0901,4.0722,0.0,0.0,0.0,0.0,0.0,0.0,0.0,0.0,0.0,0.0,0.0,0.0,0.0,0.0,0.0,0.0,0.0,0.0,0.0,0.0,0.0,0.0,0.0,0.0,0.0,0.0,0.0,0.0,0.0,0.0,0.0,0.0,0.0,0.0,0.0,0.0,0.0,0.0,0.0,0.0,0.0,0.0,0.0,0.0,0.0,0.0,0.0,0.0,0.0,0.0,0.0,0.0,0.0,0.0,0.0,4.2602,4.5649,4.765,4.8522,4.8583,4.8583,4.8522,4.5761,4.3051,0.0,0.0,0.0,0.0,0.0,0.0,0.0,0.0,0.0,0.0,0.0,0.0,0.0,0.0,0.0,0.0,0.0,0.0,0.0,0.0,0.0,0.0,0.0,0.0,0.0,0.0,0.0,0.0,0.0,0.0,0.0,0.0,0.0,0.0,0.0,0.0,0.0,0.0,0.0,0.0,0.0,4.2613,4.3417,4.2749,0.0,0.0,0.0,0.0,4.1814,4.2168,0.0,0.0,0.0,0.0,0.0,0.0,0.0,0.0,0.0,0.0,0.0,0.0,0.0,0.0,0.0,0.0,0.0,0.0,0.0,0.0,0.0,0.0,0.0,0.0,0.0,0.0,0.0,0.0,0.0,0.0,0.0,0.0,0.0,0.0,0.0,0.0,0.0,0.0,0.0,0.0,0.0,0.0,0.0,0.0,0.0,0.0,0.0,0.0,0.0,0.0,0.0,0.0,0.0,0.0,0.0,0.0,4.254,4.4726,4.6726,4.8491,4.8583,4.8583,4.8553,4.7065,4.4449,0.0,0.0,0.0,0.0,0.0,0.0,0.0,0.0,0.0,0.0,0.0,0.0,0.0,0.0,0.0,0.0,0.0,0.0,0.0,0.0,0.0,0.0,0.0,0.0,0.0,0.0,0.0,0.0,0.0,0.0,0.0,0.0,0.0,0.0,0.0,0.0,0.0,0.0,0.0,0.0,0.0,4.4826,4.3283,4.3891,4.4429,0.0,0.0,4.5043,4.6611,4.7417,0.0,0.0,0.0,0.0,0.0,0.0,0.0,0.0,0.0,0.0,0.0,0.0,0.0,0.0,0.0,0.0,0.0,0.0,0.0,0.0,0.0,0.0,0.0,0.0,0.0,0.0,0.0,0.0,0.0,0.0,0.0,0.0,0.0,0.0,0.0,0.0,0.0,0.0,0.0,0.0,0.0,0.0,0.0,0.0,0.0,0.0,0.0,0.0,0.0,0.0,0.0,0.0,0.0,0.0,0.0,4.0539,4.3174,4.6315,4.8327,4.9189,4.922,4.9035,4.8604,4.5998,4.3417,0.0,0.0,0.0,0.0,0.0,0.0,0.0,0.0,0.0,0.0,0.0,0.0,0.0,0.0,0.0,0.0,0.0,0.0,0.0,0.0,0.0,0.0,0.0,0.0,0.0,0.0,0.0,0.0,0.0,0.0,0.0,0.0,0.0,0.0,0.0,0.0,0.0,0.0,0.0,0.0,0.0,0.0,4.5872,4.6564,0.0,0.0,0.0,4.7759,4.7693,0.0,0.0,0.0,0.0,0.0,0.0,0.0,0.0,0.0,0.0,0.0,0.0,0.0,0.0,0.0,0.0,0.0,0.0,0.0,0.0,0.0,0.0,0.0,0.0,0.0,0.0,0.0,0.0,0.0,0.0,0.0,0.0,0.0,0.0,0.0,0.0,0.0,0.0,0.0,0.0,0.0,0.0,0.0,0.0,0.0,0.0,0.0,0.0,0.0,0.0,0.0,0.0,0.0,0.0,0.0,0.0,0.0,4.3852,4.7701,4.9795,4.9949,4.9774,4.9435,4.885,4.5537,0.0,0.0,0.0,0.0,0.0,0.0,0.0,0.0,0.0,0.0,0.0,0.0,0.0,0.0,0.0,0.0,0.0,0.0,0.0,0.0,0.0,0.0,0.0,0.0,0.0,0.0,0.0,2.9057,0.0,0.0,0.0,0.0,0.0,0.0,0.0,0.0,0.0,0.0,0.0,0.0,0.0,0.0,4.6937,4.8224,4.9272,4.9962,0.0,0.0,5.0203,4.9272,4.9272,4.8272,0.0,0.0,0.0,0.0,0.0,0.0,0.0,0.0,0.0,0.0,0.0,0.0,0.0,0.0,0.0,0.0,0.0,0.0,0.0,0.0,0.0,0.0,0.0,0.0,0.0,0.0,0.0,0.0,0.0,0.0,0.0,0.0,0.0,0.0,0.0,0.0,0.0,0.0,0.0,0.0,0.0,0.0,0.0,0.0,0.0,0.0,0.0,0.0,0.0,0.0,0.0,0.0,0.0,0.0,0.0,4.4529,4.7947,5.0011,5.0574,4.9989,4.9672,4.9579,4.6889,4.405,0.0,0.0,0.0,0.0,0.0,0.0,0.0,0.0,0.0,0.0,0.0,0.0,0.0,0.0,0.0,0.0,0.0,0.0,0.0,0.0,0.0,0.0,0.0,0.0,0.0,0.0,0.0,0.0,0.0,0.0,0.0,0.0,0.0,0.0,0.0,0.0,0.0,0.0,0.0,0.0,0.0,4.9097,4.9214,5.1443,5.308,0.0,0.0,5.2272,5.2908,5.3563,5.2065,4.6259,0.0,0.0,0.0,0.0,0.0,0.0,0.0,0.0,0.0,0.0,0.0,0.0,0.0,0.0,0.0,0.0,0.0,0.0,0.0,0.0,0.0,0.0,0.0,0.0,0.0,0.0,0.0,0.0,0.0,0.0,0.0,0.0,0.0,0.0,0.0,0.0,0.0,0.0,0.0,0.0,0.0,0.0,0.0,0.0,0.0,0.0,0.0,0.0,0.0,0.0,0.0,0.0,0.0,4.2061,4.5207,4.8594,5.0636,5.1251,5.0636,5.0134,4.9703,4.7801,4.5371,0.0,0.0,0.0,0.0,0.0,0.0,0.0,0.0,0.0,0.0,0.0,0.0,0.0,0.0,0.0,0.0,0.0,0.0,0.0,0.0,0.0,0.0,0.0,0.0,0.0,0.0,0.0,0.0,3.5347,3.5973,3.6838,0.0,0.0,0.0,0.0,0.0,0.0,0.0,0.0,0.0,0.0,5.147,5.2588,5.3882,0.0,0.0,5.4478,5.4237,5.4115,5.3149,5.1272,4.8017,4.6583,0.0,0.0,0.0,0.0,0.0,0.0,0.0,0.0,0.0,0.0,0.0,0.0,0.0,0.0,0.0,0.0,0.0,0.0,0.0,0.0,0.0,0.0,0.0,0.0,0.0,0.0,0.0,0.0,0.0,0.0,0.0,0.0,0.0,0.0,0.0,0.0,0.0,0.0,0.0,0.0,0.0,0.0,0.0,0.0,0.0,0.0,0.0,0.0,0.0,0.0,0.0,0.0,4.2799,4.6172,4.949,5.1466,5.199,5.1726,5.1234,5.0445,4.9088,4.7064,0.0,0.0,0.0,0.0,0.0,0.0,0.0,0.0,0.0,0.0,0.0,0.0,0.0,0.0,0.0,0.0,0.0,0.0,0.0,0.0,0.0,0.0,0.0,0.0,0.0,0.0,0.0,0.0,3.7425,3.7583,3.8103,0.0,0.0,0.0,0.0,0.0,0.0,0.0,0.0,0.0,0.0,5.3663,5.4935,5.5593,5.5908,5.5616,5.5203,5.4858,5.4563,5.3184,5.1444,4.9479,0.0,0.0,0.0,0.0,0.0,0.0,0.0,0.0,0.0,0.0,0.0,0.0,0.0,0.0,0.0,0.0,0.0,0.0,0.0,0.0,0.0,0.0,0.0,0.0,0.0,0.0,0.0,0.0,0.0,0.0,3.2396,0.0,0.0,0.0,0.0,0.0,0.0,0.0,0.0,0.0,0.0,0.0,0.0,0.0,0.0,0.0,0.0,0.0,0.0,0.0,0.0,0.0,0.0,4.4202,4.7547,5.0724,5.2464,5.2726,5.3323,5.3102,5.2093,5.0949,4.9177,4.6758,0.0,0.0,0.0,0.0,0.0,0.0,0.0,0.0,0.0,0.0,0.0,0.0,0.0,0.0,0.0,0.0,0.0,0.0,0.0,0.0,0.0,0.0,0.0,0.0,0.0,0.0,3.759,3.7877,3.8252,0.0,0.0,0.0,0.0,0.0,0.0,0.0,0.0,0.0,0.0,5.4083,5.5547,5.56,5.6271,5.6529,5.5754,5.446,5.377,5.446,5.4444,5.3425,0.0,0.0,0.0,0.0,0.0,0.0,0.0,0.0,0.0,0.0,0.0,0.0,0.0,0.0,0.0,0.0,0.0,0.0,0.0,0.0,0.0,0.0,0.0,0.0,0.0,0.0,0.0,3.6846,3.5845,0.0,0.0,0.0,0.0,0.0,0.0,0.0,0.0,0.0,0.0,0.0,4.1711,4.3624,0.0,0.0,0.0,0.0,0.0,0.0,0.0,0.0,0.0,0.0,0.0,0.0,4.5036,4.9739,5.181,5.3545,5.507,5.4615,5.4134,5.3763,5.2719,5.0777,4.7872,0.0,0.0,0.0,0.0,0.0,0.0,0.0,0.0,0.0,0.0,0.0,0.0,0.0,0.0,0.0,0.0,0.0,0.0,0.0,0.0,0.0,0.0,0.0,0.0,0.0,3.91,0.0,0.0,0.0,0.0,0.0,0.0,0.0,0.0,0.0,0.0,0.0,5.1168,5.3444,5.5272,5.6564,5.7064,5.7789,5.7995,0.0,0.0,0.0,0.0,0.0,0.0,0.0,0.0,0.0,0.0,0.0,0.0,0.0,0.0,5.7444,5.0134,4.8996,4.9031,4.8548,0.0,0.0,0.0,0.0,0.0,0.0,0.0,0.0,0.0,0.0,0.0,0.0,0.0,0.0,0.0,0.0,3.9123,0.0,0.0,0.0,0.0,0.0,0.0,0.0,0.0,4.5111,4.6571,4.6478,4.8157,4.8408,0.0,4.6905,4.465,0.0,0.0,0.0,0.0,0.0,0.0,0.0,0.0,4.695,5.18,5.3929,5.5483,5.6539,5.6303,5.5831,5.5212,5.4101,5.2302,4.9727,4.7485,4.5228,0.0,0.0,0.0,0.0,0.0,0.0,0.0,0.0,0.0,0.0,0.0,0.0,0.0,0.0,0.0,0.0,0.0,0.0,0.0,0.0,0.0,0.0,0.0,4.04,0.0,0.0,0.0,0.0,0.0,0.0,0.0,0.0,0.0,5.0341,5.2134,5.4237,5.6564,5.7288,5.7943,5.8944,0.0,0.0,0.0,0.0,0.0,0.0,0.0,5.5789,5.6996,5.7288,5.7736,5.8944,6.122,6.2565,6.1565,0.0,0.0,5.5357,5.4322,5.4494,5.4011,5.5322,5.6426,5.6219,5.7736,5.8875,0.0,0.0,0.0,0.0,0.0,0.0,0.0,0.0,4.3063,4.334,0.0,4.2448,0.0,0.0,0.0,0.0,0.0,0.0,0.0,0.0,5.0548,5.2506,5.258,5.3237,5.3215,5.2674,5.3239,5.1873,4.853,4.3378,0.0,0.0,0.0,0.0,0.0,0.0,4.9978,5.3719,5.6863,5.8082,5.727,5.8385,5.8131,5.6397,5.5209,5.3911,5.241,5.0893,4.872,4.5742,4.3445,0.0,0.0,0.0,0.0,0.0,0.0,0.0,0.0,0.0,0.0,0.0,0.0,0.0,0.0,0.0,0.0,0.0,0.0,0.0,0.0,4.1642,0.0,0.0,0.0,0.0,0.0,0.0,0.0,0.0,0.0,0.0,5.408,5.503,5.7168,6.0771,0.0,0.0,0.0,0.0,5.9461,6.0254,5.9737,5.953,6.0289,6.0909,6.1082,6.053,0.0,0.0,6.391,6.5033,6.5585,6.4136,6.5723,6.6393,6.4101,6.2255,6.1323,6.1323,6.0875,6.0737,6.1461,6.2737,6.3772,5.0257,0.0,0.0,0.0,0.0,4.7978,4.9487,5.1836,5.042,4.9097,4.7886,4.7004,0.0,0.0,0.0,0.0,0.0,0.0,4.9596,5.124,5.3418,5.5116,5.6406,5.7285,5.7608,5.7438,5.7867,5.7403,5.5948,5.3384,4.8268,4.0886,0.0,0.0,0.0,0.0,5.2739,5.6658,5.8386,5.9625,6.0463,5.9947,5.892,5.7467,5.7103,5.646,5.5529,5.4011,5.2306,5.0292,4.7582,0.0,0.0,0.0,0.0,0.0,0.0,0.0,0.0,0.0,0.0,0.0,0.0,0.0,0.0,0.0,0.0,0.0,0.0,0.0,4.246,4.3207,4.4,0.0,0.0,0.0,0.0,0.0,0.0,0.0,0.0,0.0,6.1151,6.0909,6.0703,0.0,0.0,6.1427,6.1323,6.1875,6.253,6.3289,0.0,0.0,0.0,6.3496,6.3446,6.4807,6.6689,6.8069,6.8414,6.8828,6.8966,6.8483,6.9,6.9207,6.8532,6.6773,6.5481,6.5359,6.56,6.6083,6.6861,6.7793,6.8414,5.6423,5.2698,5.1405,5.1528,5.2667,5.2875,5.4291,5.6477,5.5253,5.4176,5.3244,5.2489,5.0317,4.7311,4.6687,0.0,0.0,0.0,5.3919,5.5223,5.6816,5.8287,5.9625,6.0212,6.064,6.0914,6.115,6.1086,6.075,5.9698,5.5677,4.8946,0.0,0.0,5.0141,5.306,5.6378,6.0,6.1318,6.2134,6.2541,6.0884,5.9615,5.8823,5.8219,5.7702,5.7253,5.6046,5.4685,5.3168,5.0789,4.7893,0.0,0.0,0.0,0.0,0.0,0.0,0.0,0.0,0.0,0.0,0.0,4.0055,3.7674,0.0,0.0,0.0,4.2539,4.4768,4.661,4.7714,0.0,0.0,0.0,0.0,0.0,0.0,0.0,5.9771,6.1634,6.3496,6.5738,6.5826,6.5324,6.4565,6.4101,6.3998,6.4427,0.0,6.5343,6.6359,6.693,6.7344,6.762,6.6896,6.6861,6.8517,6.9518,7.0415,7.1174,7.1312,7.1312,7.1332,7.1544,7.1752,7.1752,7.0845,6.9694,6.8621,6.8946,6.9601,7.0104,7.0794,7.1312,6.1686,6.0855,5.7722,5.6337,5.63,5.7617,5.8202,5.8202,5.814,5.8473,5.898,5.8114,5.6723,5.4898,5.3534,0.0,5.4354,5.7139,5.8551,5.8928,6.0603,6.1763,6.2395,6.2461,6.2837,6.3487,6.3551,6.3594,6.3645,6.3224,6.205,6.0095,5.6179,5.5047,5.6682,5.8275,6.0495,6.3355,6.4832,6.4996,6.3703,6.1565,6.0427,6.0289,5.884,5.8047,5.7909,5.7185,5.6115,5.4616,5.3134,5.0962,4.8065,0.0,0.0,0.0,0.0,0.0,0.0,0.0,0.0,0.0,0.0,0.0,0.0,0.0,0.0,0.0,4.7582,0.0,5.2272,5.3858,0.0,0.0,0.0,5.6444,5.7495,6.0013,6.2255,6.3772,0.0,0.0,6.8359,0.0,7.0277,6.9656,6.7655,6.6999,6.9,6.8069,6.7793,6.9173,6.9449,6.9725,7.0311,7.038,7.0553,7.1222,7.1588,7.1829,7.2437,7.2714,7.2762,7.2721,7.3412,7.3862,7.3862,7.426,7.4106,7.127,7.1301,7.1766,7.1882,7.2388,7.288,6.4057,6.3872,6.3071,6.1809,6.0424,6.1255,6.1625,6.1563,6.1071,6.0897,6.0951,6.0209,5.9565,5.9033,5.8501,5.9017,6.0482,6.1349,6.2453,6.3681,6.3967,6.4459,6.5147,6.5676,6.5994,6.6216,6.6698,6.6895,6.6684,6.6208,6.5675,6.5008,6.4108,6.2108,5.922,6.1286,6.2993,6.4111,6.526,6.539,6.4462,6.3358,6.222,6.1047,6.0116,5.9116,5.7943,5.7185,5.6357,5.5375,5.3927,5.2237,5.0375,4.6686,0.0,0.0,0.0,0.0,0.0,0.0,0.0,0.0,0.0,4.7941,4.3034,0.0,4.9858,0.0,5.2237,5.4203,5.4754,5.6168,0.0,0.0,6.022,6.1185,6.422,6.4722,6.5359,6.6842,6.8207,6.9428,7.0553,7.1015,7.1415,7.1795,7.0415,6.9345,6.9345,6.9518,6.9932,7.0739,7.0967,7.1256,7.1933,7.214,7.2174,7.2381,7.2416,7.2485,7.2657,7.3148,7.3537,7.3577,7.4187,7.4625,7.4681,7.4901,7.4812,7.4087,7.4064,7.4171,7.4171,7.4329,7.4435,6.5165,6.4974,6.5743,6.5214,6.3879,6.378,6.3749,6.3745,6.3849,6.3761,6.3527,6.3611,6.358,6.3518,6.3652,6.4132,6.481,6.5459,6.5989,6.6378,6.675,6.7162,6.7567,6.793,6.8266,6.859,6.8957,6.9078,6.8923,6.832,6.8147,6.8338,6.7748,6.6505,6.463,6.5267,6.5922,6.6568,6.6458,6.6171,6.5704,6.4032,6.253,6.1323,5.9909,5.8633,5.7444,5.6667,5.5892,5.515,5.4011,5.2996,5.2134,4.9479,4.7755,0.0,0.0,0.0,0.0,0.0,0.0,0.0,0.0,0.0,0.0,0.0,5.3892,5.4582,5.7081,5.9081,6.0082,6.1875,6.3669,6.5343,6.5447,6.6186,6.829,6.8448,6.8842,7.0035,7.0553,7.1105,7.1933,7.2036,7.2209,7.2623,7.1967,7.1277,7.0932,7.1174,7.1588,7.1967,7.2036,7.2174,7.2657,7.2692,7.2692,7.2692,7.2692,7.2783,7.3142,7.3517,7.3917,7.4302,7.501,7.5548,7.5565,7.5807,7.6032,7.6048,7.6048,7.5756,7.5155,7.501,7.501,6.613,6.5743,6.722,6.7462,6.6775,6.5879,6.5331,6.5191,6.6098,6.6321,6.6122,6.7245,6.7691,6.7638,6.8114,6.8193,6.8101,6.898,6.8902,6.807,6.9076,6.9506,6.954,6.9561,6.9822,7.0394,7.0415,7.0415,7.038,6.9759,6.9794,7.0311,6.9173,6.9173,7.0291,6.9049,6.8621,6.9,6.7689,6.6945,6.6827,6.4101,6.222,6.1254,5.9185,5.7564,5.6564,5.6046,5.5426,5.4701,5.4218,5.3977,5.3927,5.2513,5.1617,0.0,5.0168,0.0,0.0,0.0,0.0,0.0,0.0,0.0,0.0,5.7081,5.8668,5.965,6.2013,6.4274,6.6171,6.831,6.9587,6.9587,7.0242,7.0725,7.0843,7.1394,7.2071,7.2761,7.283,7.283,7.2692,7.2692,7.2692,7.2692,7.2657,7.2519,7.2623,7.2588,7.2588,7.2692,7.2692,7.2623,7.2713,7.2783,7.2866,7.2866,7.3053,7.3223,7.3858,7.4091,7.4343,7.5047,7.5809,7.632,7.6336,7.6845,7.7227,7.7181,7.7165,7.6777,7.5738,7.5441,7.5299,6.9399,6.9302,6.964,6.9337,6.8666,6.8659,6.7694,6.6231,6.6412,6.6815,6.7411,6.8531,6.9363,6.9785,6.8774,6.9222,7.0747,6.9835,6.9876,7.0728,7.0368,7.023,7.023,7.023,7.0257,7.0415,7.0415,7.0415,7.0415,7.0242,7.0277,7.0394,7.0705,7.0725,7.0415,0.0,0.0,0.0,6.7172,6.6723,6.6102,6.4343,6.2703,6.1323,5.9702,0.0,5.5134,5.5977,5.6219,5.5478,5.646,0.0,0.0,0.0,0.0,0.0,0.0,0.0,0.0,0.0,0.0,0.0,6.022,5.9668,5.9288,6.3289,6.529,6.391,6.6861,6.8828,6.869,7.0084,7.1105,7.1105,7.1795,7.2519,7.3071,7.3257,7.3451,7.3554,7.3589,7.3347,7.283,7.2692,7.2726,7.2726,7.2692,7.2692,7.2713,7.2713,7.2692,7.2692,7.2713,7.2713,7.2692,7.3223,7.3597,7.3657,7.4168,7.4548,7.4772,7.5299,7.5722,7.5963,7.6567,7.7087,7.7087,7.7212,7.7326,7.7326,7.7326,7.7212,7.6925,7.6861,7.6877,7.0611,0.0,7.124,7.1249,0.0,7.1401,7.0854,6.9439,6.873,6.8838,6.9481,7.0569,7.105,7.1019,7.0653,7.107,7.2124,7.1358,7.1412,7.2071,7.1726,7.1553,7.1553,7.1553,7.1553,7.1553,7.1553,7.1346,7.0946,7.0932,7.076,7.0394,7.0794,7.0967,7.0912,7.0587,6.9449,6.7551,6.7532,6.7379,6.6911,6.5117,6.36,6.2427,0.0,0.0,0.0,0.0,0.0,0.0,0.0,0.0,0.0,0.0,0.0,6.0013,5.9771,5.9909,6.0634,6.1737,6.322,6.5136,6.6689,6.6551,6.4289,6.6911,6.8552,6.8152,6.9842,7.1105,7.1519,7.2209,7.2774,7.3153,7.3533,7.3947,7.4257,7.4016,7.3796,7.3796,7.3796,7.3658,7.3313,7.3602,7.3602,7.3313,7.3244,7.3274,7.3211,7.2929,7.2692,7.2713,7.3039,7.3229,7.3311,7.3913,7.4416,7.4473,7.4735,7.5137,7.5548,7.5912,7.6303,7.6668,7.7071,7.7326,7.7326,7.7326,7.7326,7.7326,7.7326,7.7326,7.7326,7.7326,7.7326,7.1789,7.1451,7.2879,7.3229,7.2931,7.3842,7.3763,7.2915,0.0,0.0,0.0,7.2301,7.2339,7.1842,7.2437,7.2692,7.2692,7.2692,7.2692,7.2692,7.2692,7.2692,7.2692,7.2692,7.2692,7.2692,7.2692,7.2347,7.1726,7.1705,7.1415,7.0863,7.0794,7.1036,7.1429,7.0794,6.9794,6.8532,6.8138,6.7842,6.7669,6.5738,6.4324,6.36,6.1668,6.0151,5.9237,5.8909,5.8737,5.8737,5.8944,5.9737,6.1116,6.191,6.3427,6.5861,6.6344,6.6758,6.7379,6.8221,6.8773,6.8877,7.1463,7.1898,6.9138,6.9656,7.0587,7.1829,7.1933,7.245,7.3692,7.3934,7.4223,7.4822,7.4891,7.4925,7.5063,7.4602,7.4313,7.421,7.4257,7.4141,7.4016,7.4477,7.477,7.4354,7.4287,7.433,7.4302,7.3962,7.3633,7.3813,7.4212,7.4315,7.4518,7.5001,7.5388,7.5514,7.5603,7.5832,7.6239,7.6386,7.6652,7.7134,7.731,7.7326,7.7326,7.7326,7.7326,7.7326,7.7326,7.7326,7.7326,7.7436,7.7509,7.5128,7.53,7.5554,7.5393,7.498,7.5298,7.5101,7.4415,7.253,7.1747,7.1828,7.2442,7.2649,7.2565,7.2649,7.2692,7.2692,7.2692,7.2692,0.0,7.2692,7.2692,7.2692,7.2692,7.2692,7.2692,7.2692,7.2623,7.2519,7.2519,7.2485,7.2381,7.2381,7.2071,7.1463,7.0794,7.0311,7.0035,6.8172,6.6861,6.6206,6.5221,6.4358,6.36,6.2721,6.1514,6.0116,6.1238,6.1859,6.1875,6.3048,6.4152,6.5067,6.5773,6.6393,6.6896,6.8103,6.8862,6.9,7.0277,7.1312,7.2071,7.3636,7.3856,7.2278,7.2761,7.3278,7.3451,7.3416,7.3554,7.383,7.4395,7.4822,7.4903,7.4925,7.5167,7.5822,7.5787,7.5693,7.5737,7.5753,7.5473,7.5029,7.5021,7.5412,7.5734,7.588,7.6107,7.6543,7.6232,7.605,7.6441,7.6197,7.6201,7.6508,7.6931,7.6992,7.7044,7.748,7.7518,7.7097,7.7035,7.7118,7.7258,7.7326,7.7326,7.7326,7.7326,7.7326,7.7326,7.7326,7.7326,7.7326,7.7803,7.8148,7.6216,7.6309,7.6309,7.6267,7.6177,7.6403,7.6388,7.6053,7.4773,7.3672,7.2988,7.3181,7.3071,7.2692,7.2692,7.2692,7.2692,7.2692,7.2692,7.2692,7.2692,7.2692,7.2692,7.2692,7.2692,7.2692,7.2692,7.2692,7.2692,7.2692,7.2692,7.2692,7.2692,7.2312,7.1532,7.1153,7.0774,7.0415,6.936,6.8483,6.7758,6.6945,6.6393,6.6014,6.5343,6.4807,6.4496,6.5152,6.5531,6.5531,6.662,6.7379,6.7724,6.8448,6.9242,7.0035,7.076,7.1519,7.2291,7.296,7.3498,7.3891,7.4891,7.527,7.4602,7.405,7.3947,7.4326,7.405,7.4175,7.4947,7.5339,7.5718,7.6097,7.6166,7.6304,7.6546,7.6304,7.6261,7.6646,7.6774,7.6768,7.6915,7.7257,7.7394,7.7555,7.7514,7.7824,7.8603,7.8797,7.8401,7.7628,7.7432,7.7433,7.7505,7.7788,7.7823,7.747,7.7636,7.7714,7.7362,7.7326,7.7326,7.7326,7.7326,7.7326,7.7326,7.7326,7.7326,7.7326,7.7326,7.7326,7.7399,7.8002,7.8552,7.7054,7.7066,7.71,7.7205,7.74,7.7444,7.7477,7.7373,7.6649,7.5602,7.4395,7.3968,7.3485,7.2968,7.2795,7.2795,7.2899,7.2761,7.2795,7.2933,7.2761,7.2692,7.2726,7.2864,7.2933,7.2968,7.3106,7.3188,7.3175,7.3037,7.2864,7.2726,7.2692,7.2381,7.1774,7.176,7.1498,7.0967,7.0932,7.0484,6.9587,6.8946,6.8601,6.8566,6.8069,6.8069,6.8566,6.8621,6.8704,6.8877,6.9483,6.9966,7.0311,7.0863,7.1795,7.3015,7.3209,7.3671,7.4753,7.5098,7.5098,7.496,7.5787,7.627,7.6029,7.5016,7.4533,7.4994,7.4705,7.4843,7.5844,7.6235,7.658,7.7132,7.7389,7.7342,7.7199,7.7002,7.7052,7.755,7.772,7.8125,7.8727,7.9328,7.9458,7.9151,7.9268,7.9669,8.0281,8.0901,8.0339,7.921,7.8741,7.8761,7.8247,7.8317,7.8291,7.7656,7.7656,7.7619,7.7436,7.7326,7.7436,7.7546,7.7656,7.7803,7.7839,7.7913,7.7949,7.8023,7.7876,7.7656,7.7693,7.8369,7.8919,7.8676,7.8864,7.8795,7.9004,7.9109,7.8546,7.8258,7.8132,7.7442,7.6649,7.5753,7.443,7.3796,7.3623,7.3037,7.3106,7.3589,7.3002,7.3071,7.3554,7.3002,7.2692,7.2795,7.3382,7.3692,7.3796,7.4305,7.4546,7.4511,7.3981,7.3382,7.2761,7.2692,7.2692,7.2588,7.2588,7.2554,7.2485,7.2485,7.1795,7.0415,7.0208,7.0173,7.0173,7.0104,7.0139,7.0242,7.0208,7.0498,7.1118,7.1256,7.1933,7.3175,7.3451,7.3843,7.4615,7.4718,7.4787,7.496,7.558,7.5718,7.5098,7.627,7.6787,7.6201,7.5994,7.5891,7.6004,7.5935,7.5891,7.6132,7.6684,7.7108,7.731,7.7902,7.8095,7.7597,7.8503,7.9143,7.844,7.8997,7.952,7.9696,7.9861,8.0051,8.0533,8.1039,8.1459,8.1659,8.1815,8.1913,8.1386,8.0662,7.9987,8.0113,7.9407,7.8626,7.8405,7.8442,7.8023,7.7509,7.7326,7.7509,7.8096,7.8369,7.8552,7.914,7.9559,7.9449,7.914,7.8846,7.8479,7.8552,7.914,7.9507,7.9268,7.9338,7.9338,7.9407,7.9396,7.8741,7.8396,7.8327,7.7546,7.7028,7.6649,7.5637,7.4671,7.3809,7.3912,7.3947,7.3774,7.3947,7.3912,7.383,7.3912,7.3774,7.3451,7.4085,7.4464,7.4442,7.4787,7.4891,7.4856,7.458,7.4292,7.405,7.4016,7.3774,7.3382,7.3347,7.314,7.2726,7.2692,7.2381,7.1795,7.1312,7.105,7.105,7.105,7.1498,7.2312,7.2416,7.274,7.3443,7.3511,7.3787,7.443,7.4912,7.5477,7.6235,7.7132,7.7408,7.6994,7.7292,7.7097,7.6339,7.6822,7.7063,7.6787,7.6753,7.694,7.7328,7.6691,7.6235,7.6728,7.7028,7.7389,7.788,7.8294,7.8546,7.8703,7.9289,7.9702,7.9858,8.018,8.0659,8.1036,8.116,8.1318,8.1664,8.2018,8.217,8.2186,8.2186,8.2186,8.2039,8.1195,8.0498,8.0314,7.9412,7.8516,7.8002,7.7839,7.7619,7.7472,7.7326,7.7582,7.8442,7.8626,7.8919,7.9559,7.9779,7.9779,7.9743,7.9743,7.9433,7.991,8.0277,8.0277,8.0097,8.0155,8.0155,8.0097,8.0051,7.912,7.8706,7.8568,7.7649,7.7201,7.7132,7.6615,7.5671,7.4602,7.4787,7.4684,7.4499,7.4753,7.4753,7.4464,7.4787,7.4615,7.4223,7.4856,7.5235,7.5304,7.5684,7.5787,7.5546,7.5304,7.5132,7.496,7.4891,7.4649,7.4154,7.4119,7.3843,7.3382,7.314,7.3002,7.2933,7.245,7.2119,7.214,7.2119,7.274,7.4016,7.4119,7.4464,7.5167,7.5235,7.5442,7.5856,7.6408,7.7063,7.7787,7.8856,7.927,7.8741,7.8706,7.8339,7.7649,7.7511,7.7542,7.7535,7.7544,7.7966,7.862,7.7748,7.743,7.7762,7.8097,7.8419,7.8829,7.9286,7.9993,8.0,8.0493,8.1181,8.1237,8.1688,8.202,8.2368,8.2267,8.2121,8.2137,8.217,8.2186,8.2186,8.2186,8.2186,8.215,8.1525,8.0828,8.0183,7.925,7.8405,7.7876,7.7656,7.7399,7.7326,7.7326,7.7582,7.8369,7.8626,7.925,8.0131,8.0257,8.0293,8.0183,8.0167,8.0167,8.0241,8.0755,8.0938,8.1707,8.1672,8.1672,8.1603,8.1535,8.0086,7.9465,7.9339,7.7925,7.727,7.727,7.7166,7.6718,7.5947,7.5304,7.5304,7.5787,7.5304,7.5339,7.5753,7.5304,7.4925,7.4925,7.5649,7.6063,7.6235,7.7361,7.7684,7.7097,7.6408,7.5649,7.5029,7.5063,7.4938,7.4856,7.4856,7.4822,7.4615,7.405,7.3761,7.3761,7.3727,7.3658,7.3692,7.3692,7.4016,7.4753,7.4856,7.5235,7.6029,7.6097,7.6684,7.7982,7.8258,7.8637,7.9327,7.9477,7.9534,7.9511,7.9534,7.92,7.8521,7.8472,7.8373,7.8406,7.8441,7.88,7.9585,7.9478,7.94,7.962,7.987,8.0127,7.9932,8.1714,8.2094,8.1113,8.2812,8.342,8.2627,8.3089,8.3541,8.3291,8.2663,8.226,8.2186,8.2186,8.2186,8.2186,8.2186,8.2186,8.2076,8.1599,8.1012,8.0791,7.9764,7.8846,7.8442,7.8023,7.7436,7.7326,7.7399,7.7876,7.8479,7.9119,7.9853,8.0755,8.1195,8.1342,8.1269,8.1012,8.0938,8.0791,8.0791,8.0975,8.2224,8.181,8.1776,8.1776,8.1672,8.0672,8.0201,8.0097,7.9155,7.8373,7.7994,7.7982,7.7511,7.6787,7.6511,7.627,7.6132,7.627,7.627,7.6166,7.627,7.6132,7.5753,7.6442,7.7097,7.7637,7.8154,7.8511,7.858,7.7925,7.7465,7.7097,7.6615,7.6166,7.5753,7.5684,7.5442,7.4903,7.4615,7.4511,7.452,7.4511,7.474,7.5223,7.4753,7.4856,7.5649,7.5684,7.6029,7.6753,7.7292,7.781,7.8396,7.9293,8.0155,8.0879,8.0983,8.0986,8.1033,8.1018,8.0745,8.0104,7.999,7.9805,7.9367,7.9289,7.9624,8.0291,8.0495,8.0659,8.0984,8.0672,8.0472,8.125,8.2033,8.294,8.3318,8.4046,8.4161,8.3222,8.3154,8.3087,8.3308,8.27,8.2223,8.2186,8.2186,8.2186,8.2186,8.2186,8.2186,8.215,8.1966,8.1746,8.1746,8.0404,7.9339,7.9155,7.8809,7.8369,7.8148,7.7693,7.7949,7.8993,7.9706,8.0367,8.1195,8.1672,8.1893,8.1893,8.1636,8.1489,8.1432,8.1269,8.1379,8.2259,8.1845,8.1776,8.1776,8.1707,8.0959,8.0614,8.0511,7.9844,7.912,7.8499,7.8396,7.7982,7.7304,7.7201,7.6959,7.6511,7.6959,7.6925,7.6511,7.6959,7.6925,7.658,7.6959,7.7615,7.8327,7.8672,7.912,7.9638,7.8879,7.8568,7.8672,7.7959,7.7339,7.6925,7.6822,7.6442,7.5787,7.5408,7.5401,7.5625,7.5689,7.6047,7.6754,7.6587,7.6547,7.6854,7.6844,7.7367,7.8247,7.8903,7.9441,8.0019,8.1145,8.2065,8.2553,8.2646,8.2788,8.3031,8.3089,8.2905,8.252,8.2441,8.2108,8.1375,8.1074,8.1216,8.1561,8.1717,8.1995,8.2274,8.1813,8.1653,8.2538,8.319,8.3967,8.4855,8.5216,8.5143,8.4595,8.3474,8.3177,8.3471,8.2774,8.2296,8.2186,8.2186,8.2186,8.2186,8.2186,8.2186,8.2186,8.2186,8.2113,8.2076,8.1211,8.0404,8.0147,7.9538,7.9171,7.8877,7.8348,7.8421,7.9449,8.0257,8.0954,8.1505,8.2039,8.2203,8.2203,8.2076,8.1893,8.1819,8.1709,8.1746,8.1845,8.1776,8.1776,8.1776,8.1707,8.1052,8.0649,8.058,7.9925,7.9362,7.8775,7.8534,7.8189,7.7408,7.7339,7.7235,7.7132,7.727,7.7304,7.7235,7.7339,7.7373,7.7339,7.7408,7.7856,7.8637,7.9258,7.9948,8.0476,7.9362,7.8948,7.9293,7.8775,7.8339,7.8361,7.8258,7.7948,7.7189,7.66,7.6621,7.7186,7.736,7.7818,7.8597,7.919,7.9234,7.8575,7.8473,7.9115,8.0462,8.0759,8.1571,8.2841,8.3762,8.4308,8.4169,8.4308,8.4762,8.5401,8.5365,8.5248,8.5282,8.5483,8.4878,8.4151,8.3574,8.3246,8.3369,8.3318,8.3364,8.3511,8.3887,8.4056,8.3768,8.5097,8.6028,8.606,8.6481,8.6941,8.6444,8.4756,8.3838,8.3985,8.3141,8.226,8.2186,8.2186,8.2186,8.2186,8.2186,8.2186,8.2203,8.2235,8.2267,8.2235,8.2129,8.1668,8.1154,8.0399,7.9827,7.9785,7.9454,7.9443,8.0231,8.0914,8.1576,8.1806,8.23,8.2316,8.2316,8.2267,8.2251,8.2104,8.1957,8.1998,8.1776,8.1776,8.1776,8.1776,8.1776,8.1535,8.1431,8.1431,8.119,8.0614,7.9994,7.9925,7.9201,7.8258,7.7994,7.7718,7.727,7.7718,7.8028,7.8097,7.8546,7.8752,7.8775,7.8787,7.9166,7.9925,8.0741,8.119,8.119,8.0396,8.0063,8.0063,7.9534,7.9166,7.9246,7.9155,7.8775,7.8153,7.8385,7.844,7.83,7.9211,7.9898,8.0221,8.0938,8.1459,8.1697,8.0736,8.0668,8.1698,8.2211,8.3009,8.3983,8.4809,8.4952,8.4538,8.4952,8.558,8.626,8.6033,8.6012,8.6373,8.6101,8.5718,8.5384,8.4689,8.45,8.4812,8.4572,8.4225,8.4352,8.4976,8.527,8.5086,8.571,8.6407,8.6518,8.6371,8.6444,8.6611,8.4886,8.3931,8.4095,8.3214,8.226,8.2296,8.226,8.2186,8.2223,8.2239,8.2251,8.2332,8.2348,8.2396,8.2428,8.2428,8.2223,8.186,8.1255,8.0798,8.074,8.0661,8.0671,8.0908,8.1608,8.1981,8.2265,8.2375,8.2444,8.2508,8.2508,8.2423,8.227,8.2201,8.2148,8.2052,8.181,8.1776,8.1776,8.1776,8.1776,8.1776,8.1776,8.1776,8.1362,8.0683,8.058,7.9982,7.8948,7.8534,7.827,7.8154,7.8856,7.9224,7.9293,7.9672,7.989,7.9982,8.0258,8.0569,8.1097,8.1845,8.2224,8.2155,8.119,8.0905,8.1297,8.0775,8.064,8.0849,8.0893,8.0439,7.9616,8.0105,8.0328,8.0194,8.1133,8.1984,8.23,8.2771,8.342,8.407,8.3223,8.2928,8.3476,8.4223,8.5026,8.5747,8.6039,8.5892,8.5584,8.5839,8.6487,8.7211,8.6994,8.6976,8.7587,8.7435,8.6978,8.6664,8.5967,8.571,8.5637,8.5343,8.5049,8.5159,8.5783,8.6187,8.6261,8.6261,8.6481,8.6848,8.6554,8.6481,8.6481,8.5159,8.4535,8.4499,8.3361,8.2627,8.281,8.259,8.2406,8.246,8.2435,8.2422,8.2407,8.2492,8.2555,8.2649,8.2665,8.2665,8.2433,8.2091,8.1854,8.1744,8.1627,8.1585,8.1769,8.2286,8.2328,8.2555,8.2586,8.2618,8.268,8.2711,8.2618,8.2465,8.2318,8.225,8.25,8.1879,8.181,8.1776,8.1776,8.1776,8.1776,8.1776,8.1776,8.1397,8.0821,8.0787,8.0304,7.9569,7.9017,7.8982,7.9477,8.0063,8.0442,8.058,8.0752,8.0856,8.0925,8.1466,8.181,8.2121,8.2673,8.2928,8.2946,8.1804,8.1597,8.2857,8.2405,8.2418,8.2957,8.3285,8.243,8.1306,8.1846,8.2169,8.2105,8.303,8.3809,8.4493,8.4659,8.5045,8.556,8.5543,8.5588,8.5808,8.6319,8.6951,8.7678,8.7418,8.7004,8.6822,8.698,8.7406,8.7988,8.7826,8.8118,8.8795,8.8739,8.9033,8.7986,8.7142,8.6591,8.6224,8.5967,8.5857,8.6004,8.6444,8.6867,8.6978,8.6867,8.6904,8.6978,8.6941,8.6941,8.6721,8.571,8.4883,8.545,8.3688,8.3447,8.3647,8.3223,8.2982,8.2998,8.2895,8.2518,8.2502,8.2628,8.2742,8.285,8.288,8.288,8.2828,8.2582,8.2551,8.2484,8.2403,8.2329,8.2536,8.2684,8.269,8.2727,8.2773,8.2804,8.2835,8.2819,8.2727,8.2622,8.249,8.2443,8.2811,8.2569,8.2052,8.1776,8.1776,8.1776,8.181,8.181,8.181,8.1707,8.15,8.15,8.1017,8.0304,8.0097,7.9856,7.9844,8.0304,8.0959,8.1535,8.2086,8.2293,8.2328,8.2476,8.288,8.3352,8.3621,8.3781,8.3808,8.3458,8.353,8.4002,8.3922,8.3848,8.411,8.4176,8.3631,8.293,8.3478,8.3585,8.3338,8.4458,8.5248,8.5475,8.6004,8.6407,8.6647,8.6701,8.6669,8.6677,8.6856,8.7051,8.7381,8.7619,8.7545,8.7161,8.7545,8.7912,8.7986,8.7692,8.7766,8.8316,8.8225,8.7839,8.8169,8.7472,8.7252,8.7252,8.7105,8.6664,8.6701,8.6867,8.7014,8.7014,8.7014,8.7014,8.7014,8.7014,8.7014,8.6867,8.6077,8.5538,8.5127,8.4661,8.4122,8.4166,8.3887,8.3498,8.365,8.3256,8.2818,8.2773,8.2843,8.2956,8.3031,8.3061,8.3076,8.3091,8.3024,8.2964,8.2912,8.2838,8.2808,8.2889,8.2934,8.2956,8.2956,8.2986,8.3001,8.2986,8.3001,8.2971,8.2911,8.2769,8.2693,8.35,8.2914,8.2776,8.2535,8.2328,8.2604,8.2569,8.2293,8.2259,8.2086,8.1845,8.1776,8.1569,8.1121,8.0718,8.0603,8.0534,8.0914,8.1362,8.1836,8.2569,8.2869,8.2896,8.289,8.3475,8.4527,8.4597,8.5076,8.5574,8.5481,8.5372,8.5462,8.5443,8.5477,8.5542,8.5446,8.5085,8.4639,8.51,8.5172,8.4588,8.5633,8.6172,8.6371,8.6775,8.7014,8.6978,8.6978,8.7124,8.7344,8.7234,8.7124,8.7472,8.7582,8.7472,8.7014,8.7472,8.7655,8.7692,8.7509,8.7766,8.8133,8.7949,8.8262,8.8556,8.8225,8.8225,8.8023,8.7729,8.7381,8.7051,8.7014,8.7161,8.7435,8.7215,8.7014,8.7014,8.71,8.7046,8.6863,8.6434,8.6039,8.5758,8.5382,8.5258,8.5212,8.488,8.4585,8.4379,8.3719,8.3167,8.3111,8.3091,8.3225,8.3292,8.3307,8.3544,8.3574,8.3537,8.347,8.3121,8.3084,8.3069,8.3076,8.3151,8.318,8.3136,8.3106,8.3121,8.3121,8.318,8.3202,8.3113,8.2979,8.2904,8.4397,8.319,8.3752,8.3638,8.3166,8.3683,8.3511,8.3087,8.3018,8.2638,8.2086,8.1948,8.1879,8.1776,8.1097,8.1121,8.1707,8.1638,8.1849,8.2257,8.2853,8.3288,8.3276,8.3462,8.4262,8.5348,8.5544,8.6241,8.683,8.6811,8.678,8.6649,8.673,8.6884,8.6682,8.6821,8.6557,8.6051,8.6364,8.6379,8.594,8.6466,8.6794,8.6867,8.6904,8.7014,8.7014,8.7051,8.7288,8.8023,8.7399,8.7344,8.7839,8.7325,8.7088,8.7161,8.7344,8.7582,8.7509,8.8206,8.85,8.872,8.9106,8.94,8.9253,8.9143,8.8923,8.85,8.8353,8.8059,8.7655,8.7362,8.7744,8.8202,8.7781,8.7394,8.7211,8.7257,8.7237,8.7044,8.6651,8.6791,8.6697,8.6382,8.5846,8.6122,8.5826,8.553,8.5212,8.4741,8.4009,8.3372,8.3425,8.3537,8.3552,8.3552,8.3886,8.4109,8.4109,8.3945,8.3314,8.3165,8.318,8.318,8.318,8.318,8.318,8.318,8.318,8.3329,8.344,8.3381,8.3329,8.3173,8.3076,8.5018,8.4673,8.4166,8.3914,8.3787,8.3949,8.3924,8.3752,8.3776,8.3362,8.2776,8.2673,8.2293,8.1776,8.1569,8.1638,8.1871,8.1965,8.2118,8.2926,8.372,8.4073,8.4216,8.4584,8.5436,8.6219,8.6411,8.6683,8.7013,8.7161,8.6856,8.7011,8.7083,8.6986,8.7016,8.6978,8.6958,8.6811,8.6941,8.6904,8.6757,8.6831,8.7014,8.7014,8.7014,8.7014,8.7014,8.7014,8.7088,8.7161,8.7178,8.7234,8.7418,8.7308,8.7308,8.7565,8.8335,8.8849,8.8996,8.9473,9.0078,8.9931,8.9693,8.94,8.94,8.951,8.94,8.9143,8.9143,8.9033,8.8884,8.9007,8.9113,8.9239,8.9251,8.8968,8.8451,8.7794,8.7446,8.7328,8.7263,8.714,8.6872,8.7237,8.7037,8.6999,8.6771,8.649,8.6082,8.5637,8.4947,8.4167,8.4272,8.4406,8.4257,8.422,8.4332,8.4406,8.4369,8.4161,8.3492,8.318,8.318,8.318,8.318,8.318,8.318,8.3217,8.3254,8.3477,8.3737,8.3789,8.3752,8.3514,8.3217,8.5501,8.519,8.5121,8.488,8.4639,8.4915,8.488,8.4604,8.457,8.3949,8.3087,8.2914,8.25,8.181,8.18,8.1988,8.2476,8.2871,8.3279,8.3833,8.4579,8.4979,8.5209,8.5781,8.6436,8.6785,8.6792,8.7161,8.7773,8.7905,8.7924,8.7567,8.7545,8.7346,8.7051,8.7014,8.7014,8.6978,8.7014,8.7014,8.7014,8.7014,8.7014,8.7014,8.7014,8.7014,8.7014,8.7014,8.7198,8.7472,8.7582,8.7785,8.8189,8.85,8.883,8.9381,8.9491,8.9987,9.0097,9.0317,9.0555,9.0665,9.0519,9.0555,9.0519,9.0519,9.0352,9.0149,9.0021,8.9986,9.0092,8.9843,8.9983,9.0295,9.0159,8.9838,8.9444,8.8692,8.787,8.7711,8.766,8.7523,8.755,8.7694,8.7757,8.7539,8.7539,8.7257,8.6626,8.618,8.575,8.5267,8.5357,8.5335,8.5112,8.5,8.4867,8.4703,8.4406,8.4012,8.3381,8.3269,8.318,8.318,8.318,8.318,8.318,8.3254,8.3477,8.3923,8.422,8.4295,8.448,8.4629,8.4035,8.5949,8.5432,8.6053,8.5949,8.5535,8.5984,8.588,8.5432,8.5363,8.4785,8.3707,8.3441,8.3448,8.2604,8.2581,8.2853,8.3367,8.4127,8.4559,8.47,8.5502,8.5823,8.6082,8.652,8.6848,8.6933,8.6913,8.765,8.8416,8.8959,8.8137,8.7986,8.7949,8.7509,8.7088,8.7014,8.7014,8.7014,8.7014,8.7014,8.7014,8.7014,8.7014,8.7014,8.7014,8.7124,8.7288,8.7491,8.7822,8.85,8.8683,8.9197,8.9803,9.006,9.0665,9.1253,9.0776,9.0812,9.0849,9.0996,9.1143,9.0996,9.1363,9.1693,9.1693,9.1601,9.1416,9.1175,9.0972,9.1009,9.1059,9.0918,9.0929,9.1185,9.0832,9.0546,9.035,8.979,8.9095,8.8158,8.8196,8.8218,8.7958,8.7953,8.8053,8.81,8.8084,8.7935,8.7304,8.6858,8.6486,8.6338,8.6375,8.6561,8.6412,8.6152,8.5929,8.5112,8.4666,8.4198,8.3678,8.3641,8.3604,8.3254,8.318,8.3217,8.3217,8.3217,8.3589,8.4332,8.448,8.4332,8.4889,8.5706,8.4889,8.6225,8.6122,8.626,8.6225,8.6122,8.626,8.63,8.6156,8.6227,8.611,8.5951,8.5927,8.5505,8.498,8.4918,8.4725,8.4477,8.5039,8.5502,8.5616,8.6302,8.6661,8.6714,8.6838,8.6983,8.7002,8.7007,8.726,8.7439,8.7381,8.7565,8.7271,8.7271,8.7088,8.7051,8.7014,8.7014,8.7014,8.7014,8.7014,8.7014,8.7014,8.7014,8.7014,8.7088,8.7472,8.8059,8.8629,8.9363,9.0152,9.0812,9.151,9.1638,9.0629,9.0152,9.0501,9.1216,9.162,9.1657,9.217,9.2537,9.2574,9.2152,9.184,9.1876,9.1948,9.1909,9.1943,9.1975,9.2081,9.2153,9.1976,9.2225,9.2387,9.2306,9.2035,9.1585,9.1177,9.053,8.9368,8.9151,8.8864,8.8498,8.8186,8.8068,8.81,8.81,8.81,8.7787,8.7527,8.7378,8.7304,8.7341,8.7564,8.775,8.7452,8.7081,8.5855,8.5223,8.483,8.4421,8.431,8.4087,8.3886,8.3514,8.3343,8.3306,8.3217,8.3923,8.4778,8.4629,8.4369,8.5261,8.6041,8.5335,8.6294,8.6294,8.6294,8.6583,8.6964,8.7036,8.7313,8.7702,8.7772,8.7546,8.7342,8.7227,8.6609,8.5853,8.5615,8.5356,8.5431,8.5972,8.6356,8.65,8.6821,8.7014,8.7014,8.7014,8.7014,8.7014,8.7014,8.7014,8.7014,8.7051,8.7014,8.7014,8.7014,8.7014,8.7014,8.7014,8.7014,8.7014,8.7014,8.7014,8.7014,8.7014,8.7014,8.7088,8.7472,8.8023,8.8739,8.9106,8.9987,9.0922,9.1179,9.1711,9.1912,9.1728,9.1086,9.173,9.2189,9.2427,9.2354,9.2574,9.2354,9.25,9.2132,9.2057,9.2091,9.2198,9.225,9.234,9.2547,9.265,9.2545,9.2754,9.2855,9.2872,9.2938,9.2748,9.2505,9.2393,9.1613,9.0536,8.9793,8.931,8.8864,8.853,8.8195,8.81,8.8137,8.8137,8.8137,8.8121,8.801,8.7824,8.775,8.7861,8.801,8.7824,8.7564,8.6524,8.5743,8.5335,8.5075,8.4889,8.4815,8.474,8.4295,8.3923,8.3343,8.3292,8.4257,8.5223,8.5372,8.5558,8.6004,8.6152,8.5595,8.6583,8.6583,8.6804,8.7289,8.7911,8.8004,8.8355,8.8998,8.9019,8.8828,8.8476,8.8389,8.7813,8.69,8.6517,8.6397,8.6318,8.7007,8.7184,8.7182,8.7034,8.7014,8.7014,8.7014,8.7014,8.7014,8.7014,8.7014,8.7014,8.7014,8.7014,8.7014,8.7014,8.7014,8.7014,8.7014,8.7014,8.7014,8.7014,8.7014,8.7014,8.7014,8.7088,8.7252,8.7876,8.8592,8.951,8.995,9.0757,9.1564,9.1747,9.1617,9.222,9.2255,9.2773,9.375,9.3345,9.3051,9.2776,9.2426,9.2185,9.2292,9.2182,9.2233,9.2357,9.2409,9.2496,9.2565,9.2734,9.2922,9.2785,9.2905,9.2971,9.2988,9.2971,9.2951,9.2914,9.2802,9.2579,9.1576,9.0499,8.9756,8.931,8.853,8.8174,8.8307,8.8307,8.8285,8.8323,8.8508,8.8418,8.8174,8.8062,8.8025,8.7988,8.7712,8.7415,8.6784,8.6152,8.5781,8.5595,8.5483,8.5514,8.5633,8.5409,8.5,8.4146,8.3655,8.4629,8.5521,8.6152,8.6635,8.6932,8.6932,8.6524,8.755,8.7585,8.84,8.8845,8.891,8.8932,8.8998,8.9171,8.9257,8.9561,9.0099,9.0156,9.0003,8.953,8.8893,8.8435,8.8029,8.7697,8.7766,8.7655,8.7234,8.7014,8.7014,8.7014,8.7014,8.7014,8.7014,8.7014,8.7014,8.7014,8.7014,8.7014,8.7014,8.7014,8.7014,8.7014,8.7014,8.7014,8.7014,8.7014,8.7014,8.7014,8.7344,8.7766,8.8334,8.8995,9.0297,9.0976,9.1986,9.2774,9.2958,9.3066,9.3245,9.2707,9.2892,9.3169,9.3004,9.2487,9.2618,9.2398,9.2268,9.2357,9.2375,9.2392,9.2607,9.2747,9.2866,9.2922,9.2988,9.2971,9.2938,9.2971,9.2988,9.2988,9.2988,9.2988,9.2988,9.2988,9.2802,9.2468,9.139,9.0424,8.9756,8.8864,8.8137,8.8344,8.8545,8.8561,8.862,8.8901,8.9087,8.888,8.8753,8.8753,8.8604,8.827,8.7833,8.7223,8.6735,8.6385,8.6444,8.6475,8.6579,8.6631,8.6467,8.6147,8.5361,8.5145,8.5381,8.5706,8.6226,8.6969,8.7765,8.7579,8.7405,8.8998,8.8512,8.8932,8.9406,8.9868,8.9889,9.0175,9.0572,9.0651,9.0847,9.1171,9.1228,9.1033,9.0446,8.9326,8.8519,8.8133,8.7802,8.7528,8.7582,8.7215,8.7014,8.7014,8.7014,8.7014,8.7014,8.7014,8.7014,8.7014,8.7014,8.7014,8.7014,8.7014,8.7014,8.7014,8.7014,8.7014,8.7014,8.7014,8.7014,8.7014,8.7014,8.7178,8.7619,8.8916,8.9981,9.0807,9.2165,9.2918,9.3376,9.3118,9.2892,9.2994,9.2841,9.2969,9.3792,9.3644,9.3373,9.3127,9.2685,9.2627,9.2584,9.2656,9.2838,9.3219,9.3415,9.3519,9.3677,9.3248,9.3025,9.2988,9.2988,9.2988,9.2988,9.2988,9.2988,9.2988,9.2988,9.2876,9.2616,9.2315,9.1466,9.0764,9.0268,8.9523,8.9147,8.9445,8.9631,8.959,8.9607,8.9719,8.9719,8.9681,8.9644,8.9496,8.9236,8.8884,8.8307,8.7485,8.7292,8.7489,8.7586,8.7657,8.7975,8.8169,8.7595,8.6677,8.6172,8.608,8.6177,8.6301,8.7213,8.807,8.8344,8.8255,9.0377,8.9749,8.9785,9.0175,9.0788,9.0844,9.1152,9.1712,9.1712,9.1748,9.1803,9.1712,9.1216,9.0372,8.9344,8.8793,8.8169,8.7582,8.7344,8.7288,8.7105,8.7014,8.7014,8.7014,8.7014,8.7014,8.7014,8.7014,8.7014,8.7014,8.7014,8.7014,8.7014,8.7014,8.7014,8.7014,8.7014,8.7014,8.7014,8.7014,8.7031,8.7083,8.7211,8.8014,8.9295,9.0779,9.1185,9.2322,9.3204,9.32,9.2848,9.2676,9.2791,9.2862,9.3432,9.4147,9.4238,9.4265,9.4148,9.3911,9.3336,9.3256,9.3122,9.3432,9.3904,9.4102,9.3879,9.3694,9.3359,9.3062,9.2988,9.2988,9.2988,9.2988,9.2988,9.2988,9.2988,9.2988,9.3021,9.2884,9.2758,9.272,9.2125,9.1881,9.12,9.0264,9.027,9.0652,9.0733,9.0687,9.0531,9.0623,9.0571,9.0587,9.064,9.0363,8.9959,8.9347,8.8565,8.8207,8.8373,8.8562,8.8641,8.9074,8.9415,8.8986,8.8053,8.7326,8.6694,8.7094,8.7486,8.7749,8.8309,8.8705,8.8977,9.1657,9.162,9.1583,9.1565,9.1694,9.1694,9.1749,9.1803,9.1803,9.1803,9.1803,9.173,9.0959,8.995,8.9877,8.9344,8.8206,8.8133,8.7912,8.7655,8.7381,8.7051,8.7014,8.7014,8.7014,8.7014,8.7014,8.7014,8.7014,8.7014,8.7014,8.7014,8.7014,8.7014,8.7014,8.7014,8.7014,8.7014,8.7014,8.7049,8.7083,8.7206,8.7565,8.8353,8.941,9.0398,9.1137,9.2222,9.2789,9.2946,9.2778,9.2866,9.3074,9.3107,9.3846,9.4866,9.4845,9.5129,9.558,9.5321,9.5092,9.4923,9.4589,9.4052,9.414,9.3508,9.3211,9.3322,9.3174,9.3025,9.2988,9.2988,9.2988,9.2988,9.2988,9.2988,9.2988,9.2988,9.3037,9.3098,9.312,9.3154,9.3515,9.3257,9.2519,9.1564,9.1724,9.2105,9.2123,9.2065,9.1652,9.1545,9.1456,9.1564,9.1895,9.1501,9.0747,9.0196,8.9561,8.9288,8.9238,8.9412,8.9619,8.9605,8.9804,8.9645,8.9533,8.8982,8.8606,8.853,8.8631,8.8734,8.9049,8.9497,8.9635,9.1803,9.1803,9.1803,9.1803,9.1803,9.1803,9.1803,9.1803,9.1803,9.1803,9.1767,9.173,9.1179,9.0317,8.973,8.929,8.8206,8.7655,8.7582,8.7435,8.7124,8.7014,8.7014,8.7014,8.7014,8.7014,8.7014,8.7014,8.7014,8.7014,8.7014,8.7014,8.7014,8.7014,8.7014,8.7014,8.7014,8.7014,8.7031,8.7066,8.7203,8.7254,8.7466,8.7894,9.013,9.0604,9.097,9.2626,9.3007,9.2983,9.2872,9.3144,9.3529,9.3619,9.4474,9.5774,9.5588,9.622,9.6777,9.622,9.5217,9.4808,9.4734,9.4734,9.4288,9.3842,9.3731,9.3619,9.3211,9.3025,9.3021,9.3004,9.2988,9.2988,9.3054,9.3082,9.3146,9.3205,9.3348,9.3521,9.3702,9.3796,9.4211,9.4642,9.3795,9.2958,9.3251,9.3466,9.3424,9.3418,9.3091,9.2902,9.2865,9.3057,9.3389,9.2532,9.1482,9.1029,9.0582,9.0136,8.9897,9.0444,9.0578,9.0444,9.029,9.0364,9.0436,9.0536,9.026,8.9603,8.9459,8.9519,8.9893,9.0268,9.0339,9.1803,9.1803,9.1803,9.1803,9.1803,9.1803,9.1803,9.1803,9.1803,9.162,9.1436,9.14,9.0812,8.9968,8.9344,8.8812,8.8206,8.7766,8.7472,8.7435,8.7472,8.7234,8.7088,8.7014,8.7014,8.7014,8.7014,8.7014,8.7014,8.7014,8.7014,8.7014,8.7014,8.7014,8.7014,8.7014,8.7014,8.7031,8.71,8.7152,8.7305,8.7402,8.7468,8.7965,8.9889,9.0749,9.1079,9.2295,9.3289,9.312,9.3046,9.3285,9.3694,9.4214,9.4957,9.5811,9.6591,9.7,9.7297,9.6926,9.5774,9.544,9.518,9.492,9.44,9.3991,9.3582,9.3619,9.3264,9.307,9.3163,9.3301,9.3513,9.3627,9.3695,9.3754,9.3724,9.3783,9.39,9.4006,9.4243,9.4526,9.4806,9.5284,9.5123,9.4498,9.4703,9.4727,9.446,9.4501,9.4539,9.4425,9.4463,9.4725,9.4958,9.3467,9.2176,9.2034,9.1522,9.0629,9.0475,9.0971,9.1183,9.0848,9.0839,9.1109,9.1091,9.0934,9.0635,9.0241,9.0236,9.0258,9.0454,9.0781,9.0915,9.1803,9.1803,9.1803,9.1803,9.1803,9.1803,9.1803,9.1803,9.1767,9.1436,9.0922,9.0776,8.9931,8.883,8.8683,8.839,8.8169,8.8133,8.8059,8.7876,8.7876,8.7619,8.7234,8.7014,8.7014,8.7014,8.7014,8.7014,8.7014,8.7014,8.7014,8.7051,8.7124,8.7088,8.7014,8.7014,8.7014,8.7049,8.7203,8.7398,8.7422,8.7768,8.8104,8.844,8.9887,9.0806,9.1193,9.2266,9.3099,9.3062,9.2988,9.3136,9.3397,9.4065,9.4808,9.5588,9.6369,9.7074,9.7743,9.7743,9.7112,9.6146,9.5551,9.4957,9.4214,9.3582,9.3251,9.3444,9.3205,9.3326,9.3552,9.3813,9.4048,9.4188,9.4256,9.427,9.4229,9.4215,9.426,9.4487,9.4965,9.5374,9.5566,9.5821,9.604,9.6031,9.6164,9.5991,9.5511,9.5385,9.5423,9.5435,9.5435,9.5511,9.5357,9.3906,9.2915,9.2871,9.2277,9.1183,9.0771,9.1073,9.1145,9.1109,9.1127,9.1201,9.1201,9.1145,9.0876,9.0684,9.0867,9.098,9.1118,9.1175,9.1192,9.1803,9.1803,9.1803,9.1803,9.1803,9.1803,9.1803,9.1803,9.1767,9.162,9.1326,9.0886,9.006,8.9253,8.8812,8.8409,8.7785,8.8739,8.8739,8.7582,8.7949,8.7619,8.7198,8.7014,8.7014,8.7014,8.7014,8.7014,8.7014,8.7014,8.7014,8.7051,8.7399,8.7472,8.7325,8.7362,8.7654,8.7424,8.771,8.7995,8.7858,8.8671,8.9192,8.8843,9.0355,9.1205,9.1279,9.2431,9.2914,9.2988,9.2988,9.3174,9.3657,9.4437,9.5291,9.6108,9.6926,9.752,9.7855,9.7743,9.7186,9.6257,9.5551,9.4808,9.3636,9.3211,9.3216,9.3451,9.3506,9.3813,9.4201,9.4287,9.4447,9.446,9.4487,9.45,9.4487,9.45,9.4591,9.4953,9.5385,9.571,9.5922,9.6,9.6193,9.6288,9.6288,9.6288,9.5912,9.5932,9.5991,9.6,9.602,9.6107,9.5666,9.4263,9.3446,9.3284,9.2466,9.1304,9.1127,9.1201,9.1201,9.1136,9.1154,9.1201,9.1201,9.1201,9.1201,9.1145,9.1201,9.1201,9.1192,9.1192,9.1201,9.1803,9.1803,9.1803,9.1803,9.1803,9.1803,9.1803,9.1803,9.1767,9.1657,9.1289,9.0776,9.0134,8.951,8.8996,8.9179,8.8225,8.8519,8.9106,8.7822,8.8023,8.7692,8.7252,8.7014,8.7014,8.7014,8.7014,8.7014,8.7014,8.7014,8.7014,8.7198,8.7802,8.7854,8.7854,8.8166,8.833,8.8117,8.8273,8.8277,8.8343,8.8859,8.9607,8.9798,9.061,9.165,9.191,9.2393,9.2988,9.2988,9.3062,9.3248,9.3917,9.4808,9.5551,9.6294,9.7223,9.7743,9.7892,9.7892,9.7074,9.5663,9.544,9.4867,9.3823,9.3572,9.3717,9.3914,9.4034,9.4381,9.4756,9.4843,9.4929,9.4941,9.5122,9.5145,9.5157,9.5204,9.5227,9.5566,9.57,9.6,9.6165,9.6184,9.6279,9.6288,9.6288,9.6288,9.6288,9.6288,9.6288,9.6279,9.6269,9.626,9.5721,9.4579,9.3954,9.374,9.2595,9.1278,9.1201,9.1201,9.1201,9.1201,9.1201,9.1201,9.1201,9.1201,9.1201,9.1201,9.1201,9.1201,9.1201,9.1201,9.1201,9.1803,9.1803,9.1803,9.1803,9.1803,9.1803,9.1803,9.1803,9.1803,9.14,9.0702,9.0739,9.0244,8.9473,8.8757,8.9087,8.9821,8.8977,8.8812,8.8776,8.839,8.7729,8.7252,8.7014,8.7014,8.7014,8.7088,8.7234,8.7051,8.7014,8.7014,8.7288,8.7911,8.8144,8.8436,8.9005,8.9077,8.8971,8.8867,8.8721,8.862,8.9177,8.9708,9.0127,9.0982,9.1799,9.2171,9.2579,9.2914,9.2988,9.3025,9.3025,9.3508,9.4511,9.5068,9.5811,9.7,9.7334,9.752,9.7446,9.6963,9.5663,9.5551,9.5262,9.4681,9.4002,9.409,9.4367,9.4642,9.4977,9.5318,9.544,9.5608,9.5811,9.602,9.6049,9.6098,9.6107,9.6059,9.6155,9.6146,9.626,9.626,9.6279,9.6288,9.6288,9.6288,9.6288,9.6288,9.6288,9.6288,9.6288,9.6279,9.6279,9.5595,9.4711,9.4057,9.371,9.2364,9.1201,9.1201,9.1201,9.1201,9.1201,9.1201,9.1201,9.1201,9.1201,9.1201,9.1201,9.1201,9.1201,9.1201,9.1201,9.1201,9.1803,9.1803,9.1803,9.1803,9.1803,9.1803,9.1803,9.1803,9.1803,9.162,9.14,9.0849,9.0464,9.0207,9.0005,8.984,8.9767,8.9711,8.9197,8.8793,8.8243,8.7692,8.7288,8.7014,8.7014,8.7234,8.7435,8.7582,8.7161,8.7051,8.7435,8.7893,8.8071,8.8321,8.8996,8.9932,8.9921,8.9928,8.9827,8.935,8.9352,9.0095,9.0313,9.0722,9.165,9.2356,9.2653,9.2765,9.2988,9.2988,9.2988,9.2988,9.3099,9.3991,9.466,9.5365,9.5886,9.6108,9.622,9.6666,9.6554,9.5865,9.5882,9.5262,9.4608,9.4221,9.4373,9.4844,9.5306,9.5643,9.5846,9.6017,9.6049,9.6136,9.6288,9.6288,9.6288,9.6288,9.6288,9.6288,9.6288,9.6288,9.6288,9.6288,9.6288,9.6288,9.6288,9.6288,9.6288,9.6288,9.6288,9.6288,9.6288,9.6288,9.5711,9.4864,9.421,9.348,9.2172,9.124,9.1201,9.1201,9.1201,9.1201,9.1201,9.1201,9.1201,9.1201,9.1201,9.1201,9.1201,9.1201,9.1201,9.1201,9.1201,9.1803,9.1803,9.1803,9.1803,9.1803,9.1803,9.1803,9.1803,9.1803,9.1803,9.173,9.1326,9.0922,9.0519,9.017,8.9803,8.94,8.8886,8.8536,8.8463,8.7949,8.7472,8.7105,8.7051,8.7252,8.7545,8.7876,8.8133,8.7802,8.7545,8.7783,8.772,8.797,8.8531,8.9293,9.0187,9.0711,9.0757,9.0675,9.0184,9.0286,9.0833,9.1093,9.1353,9.2393,9.2839,9.2988,9.2988,9.2988,9.2988,9.2988,9.2988,9.3136,9.3768,9.4585,9.5254,9.5477,9.5551,9.57,9.6294,9.6034,9.5842,9.6026,9.571,9.5268,9.4898,9.5185,9.5621,9.5985,9.6304,9.6424,9.6509,9.6432,9.6317,9.6326,9.6288,9.6288,9.6288,9.6288,9.6288,9.6288,9.6288,9.6288,9.6288,9.6288,9.6288,9.6288,9.6288,9.6288,9.6288,9.6288,9.6288,9.6288,9.6249,9.5634,9.5018,9.421,9.3364,9.2172,9.1393,9.1278,9.1201,9.1201,9.1201,9.1201,9.1201,9.1201,9.1201,9.1201,9.1201,9.1201,9.1201,9.1201,9.1201,9.1201,9.1803,9.1803,9.1803,9.1803,9.1803,9.1803,9.1803,9.1803,9.1803,9.1803,9.1767,9.1767,9.1289,9.0629,9.0097,8.9803,8.9326,8.8666,8.8647,8.828,8.7766,8.7362,8.7288,8.7051,8.7252,8.7839,8.839,8.8811,8.9068,8.8461,8.7558,8.7378,8.7412,8.8079,8.9309,8.9889,9.0284,9.0402,9.0815,9.0852,9.0281,9.0796,9.1725,9.1799,9.2431,9.2988,9.2988,9.2988,9.2988,9.2988,9.2988,9.2988,9.3248,9.3545,9.44,9.4697,9.4808,9.4845,9.4994,9.5551,9.5663,9.5657,9.5875,9.5959,9.5701,9.5336,9.5543,9.5974,9.6299,9.6366,9.6443,9.6557,9.6557,9.6403,9.6288,9.6288,9.6288,9.6288,9.6288,9.6288,9.6288,9.6288,9.6288,9.6288,9.6288,9.6288,9.6288,9.6288,9.6288,9.6288,9.6288,9.6288,9.6288,9.6249,9.5903,9.5211,9.4258,9.3249,9.2249,9.1518,9.1325,9.124,9.1201,9.1201,9.1201,9.1201,9.1201,9.1201,9.1201,9.1201,9.1201,9.1201,9.1201,9.1201,9.1201,9.1803,9.1803,9.1803,9.1803,9.1803,9.1803,9.1803,9.1803,9.1803,9.1803,9.1803,9.173,9.1326,9.0519,9.0244,9.006,8.9693,8.8886,8.9363,8.9087,8.8426,8.7766,8.7692,8.7252,8.7288,8.7638,8.839,8.9397,8.9595,8.8622,8.7791,8.821,8.7891,8.8097,8.8884,8.9389,8.9819,8.9867,9.1024,9.1177,9.0483,9.0945,9.1725,9.1985,9.2505,9.2951,9.2988,9.2988,9.2988,9.2988,9.2988,9.2988,9.3025,9.3211,9.3359,9.3545,9.3768,9.3805,9.4028,9.4548,9.4808,9.5376,9.5735,9.6076,9.6101,9.5727,9.5762,9.6182,9.6432,9.6471,9.6432,9.6557,9.6634,9.6442,9.6288,9.6288,9.6288,9.6288,9.6288,9.6288,9.6288,9.6288,9.6288,9.6288,9.6288,9.6288,9.6288,9.6288,9.6288,9.6288,9.6288,9.6288,9.6288,9.6211,9.598,9.5441,9.445,9.3873,9.3095,9.2287,9.1441,9.1248,9.1201,9.1201,9.1201,9.1201,9.1201,9.1201,9.1201,9.1201,9.1201,9.1201,9.1201,9.1201,9.1201,9.0739,9.0776,9.1143,9.1253,9.1326,9.162,9.1803,9.1803,9.1803,9.1803,9.1803,9.173,9.1179,9.0225,9.006,8.9564,8.929,8.8923,8.8867,8.8904,8.8904,8.8316,8.7876,8.7435,8.7509,8.7785,8.872,8.9525,8.9627,8.889,8.8149,8.8322,8.785,8.8063,8.8742,8.9485,8.9533,8.9384,9.1205,9.139,9.0833,9.1502,9.2208,9.2505,9.2691,9.2988,9.2988,9.2988,9.2988,9.2988,9.2988,9.2988,9.2988,9.3062,9.3025,9.3062,9.3099,9.2988,9.3227,9.3653,9.4173,9.4882,9.6051,9.6601,9.6197,9.5934,9.6222,9.6663,9.6942,9.698,9.6673,9.6673,9.6634,9.648,9.6365,9.6288,9.6288,9.6288,9.6288,9.6288,9.6288,9.6288,9.6288,9.6288,9.6288,9.6288,9.6288,9.6288,9.6288,9.6288,9.6288,9.6288,9.6288,9.6288,9.6172,9.5518,9.4643,9.4143,9.3749,9.2941,9.2056,9.1518,9.1201,9.1201,9.1201,9.1201,9.1201,9.1201,9.1201,9.1201,9.1201,9.1201,9.1201,9.1201,9.1201,8.9436,8.951,9.017,9.0537,9.0665,9.1179,9.151,9.1583,9.151,9.1436,9.1326,9.1363,9.0592,8.9803,8.9179,8.8225,8.7839,8.8316,8.8353,8.8536,8.8353,8.8206,8.7912,8.7472,8.7619,8.7912,8.8573,8.8767,8.8809,8.8185,8.7881,8.7841,8.8196,8.8726,8.9894,9.0313,9.0016,9.0313,9.1167,9.1502,9.1725,9.2133,9.2653,9.2914,9.2988,9.2988,9.2988,9.2988,9.2988,9.3099,9.3174,9.3285,9.3322,9.3322,9.3099,9.3116,9.3179,9.3114,9.3181,9.3651,9.4077,9.4755,9.6187,9.6665,9.6236,9.6455,9.6751,9.6817,9.7134,9.7134,9.6788,9.6634,9.6557,9.6519,9.6365,9.6288,9.6288,9.6288,9.6288,9.6288,9.6288,9.6288,9.6288,9.6288,9.6288,9.6288,9.6288,9.6288,9.6288,9.6288,9.6288,9.6288,9.6288,9.6288,9.6249,9.5634,9.4797,9.4373,9.3941,9.3326,9.2633,9.1787,9.124,9.1201,9.1201,9.1201,9.1201,9.1201,9.1201,9.1201,9.1201,9.1201,9.1201,9.1201,9.1201,8.94,8.9436,8.9583,8.9987,9.0445,9.0115,9.0207,9.0665,9.0134,8.9877,8.9987,8.9877,8.9583,8.9363,8.8683,8.8023,8.7802,8.8059,8.8683,8.9069,8.8426,8.8243,8.7949,8.7418,8.7619,8.7802,8.7984,8.7956,8.8233,8.7921,8.7793,8.8064,8.8567,8.8965,8.9315,8.9719,8.9979,9.0387,9.0462,9.0647,9.1688,9.2171,9.2802,9.2988,9.2988,9.2988,9.2988,9.2988,9.2988,9.3174,9.3471,9.3694,9.3694,9.3636,9.3446,9.3301,9.3395,9.3389,9.3544,9.3697,9.4021,9.4715,9.588,9.6363,9.6362,9.6918,9.6943,9.6471,9.6634,9.6634,9.6403,9.6403,9.6365,9.6365,9.6288,9.6288,9.6288,9.6288,9.6288,9.6288,9.6288,9.6288,9.6288,9.6288,9.6288,9.6288,9.6288,9.6288,9.6288,9.6288,9.6288,9.6288,9.6288,9.6288,9.6249,9.5711,9.5027,9.4643,9.4018,9.3133,9.2364,9.1748,9.1355,9.124,9.1201,9.1201,9.1201,9.1201,9.1201,9.1201,9.1201,9.1201,9.1201,9.1201,9.1201]}]]